<?xml version='1.0' encoding='UTF-8'?><gpx version="1.1" creator="JPX - https://github.com/jenetics/jpx" xmlns="http://www.topografix.com/GPX/1/1"><trk><trkseg><trkpt lat="43.8838049" lon="7.9971751"><ele>42.0</ele><time>2026-04-11T06:02:58.189Z</time></trkpt><trkpt lat="43.8838937" lon="7.9972059"><ele>42.0</ele><time>2026-04-11T06:04:23.232Z</time></trkpt><trkpt lat="43.8841367" lon="7.997175"><ele>42.0</ele><time>2026-04-11T06:08:24.724Z</time></trkpt><trkpt lat="43.8840583" lon="7.997235"><ele>42.0</ele><time>2026-04-11T06:08:27.724Z</time></trkpt><trkpt lat="43.8840167" lon="7.9973017"><ele>42.0</ele><time>2026-04-11T06:08:30.724Z</time></trkpt><trkpt lat="43.88393" lon="7.99734"><ele>42.0</ele><time>2026-04-11T06:08:34.724Z</time></trkpt><trkpt lat="43.88386" lon="7.9973367"><ele>42.0</ele><time>2026-04-11T06:08:38.724Z</time></trkpt><trkpt lat="43.8838417" lon="7.9972"><ele>42.0</ele><time>2026-04-11T06:08:41.724Z</time></trkpt><trkpt lat="43.8838617" lon="7.9971"><ele>42.0</ele><time>2026-04-11T06:08:43.725Z</time></trkpt><trkpt lat="43.8837783" lon="7.9971083"><ele>42.0</ele><time>2026-04-11T06:10:15.725Z</time></trkpt><trkpt lat="43.8837017" lon="7.9971367"><ele>42.0</ele><time>2026-04-11T06:10:39.724Z</time></trkpt><trkpt lat="43.8836333" lon="7.9970683"><ele>42.0</ele><time>2026-04-11T06:10:41.724Z</time></trkpt><trkpt lat="43.8834567" lon="7.9969183"><ele>42.0</ele><time>2026-04-11T06:10:45.724Z</time></trkpt><trkpt lat="43.8833583" lon="7.9968233"><ele>42.0</ele><time>2026-04-11T06:10:47.724Z</time></trkpt><trkpt lat="43.8833033" lon="7.9967683"><ele>40.5</ele><time>2026-04-11T06:10:48.725Z</time></trkpt><trkpt lat="43.8832467" lon="7.99671"><ele>39.0</ele><time>2026-04-11T06:10:49.724Z</time></trkpt><trkpt lat="43.8831867" lon="7.99665"><ele>37.5</ele><time>2026-04-11T06:10:50.724Z</time></trkpt><trkpt lat="43.8831283" lon="7.9965867"><ele>36.0</ele><time>2026-04-11T06:10:51.724Z</time></trkpt><trkpt lat="43.8830667" lon="7.9965267"><ele>34.5</ele><time>2026-04-11T06:10:52.724Z</time></trkpt><trkpt lat="43.883" lon="7.9964633"><ele>33.0</ele><time>2026-04-11T06:10:53.724Z</time></trkpt><trkpt lat="43.8829383" lon="7.9964"><ele>32.333333333333336</ele><time>2026-04-11T06:10:54.725Z</time></trkpt><trkpt lat="43.8828833" lon="7.99634"><ele>31.666666666666664</ele><time>2026-04-11T06:10:55.724Z</time></trkpt><trkpt lat="43.882805" lon="7.9962467"><ele>31.0</ele><time>2026-04-11T06:10:57.724Z</time></trkpt><trkpt lat="43.8827367" lon="7.99627"><ele>30.333333333333332</ele><time>2026-04-11T06:11:05.725Z</time></trkpt><trkpt lat="43.8826933" lon="7.9963533"><ele>29.666666666666664</ele><time>2026-04-11T06:11:08.724Z</time></trkpt><trkpt lat="43.8826483" lon="7.9964467"><ele>29.0</ele><time>2026-04-11T06:11:11.724Z</time></trkpt><trkpt lat="43.8826017" lon="7.996535"><ele>28.166666666666664</ele><time>2026-04-11T06:11:14.724Z</time></trkpt><trkpt lat="43.8825383" lon="7.996625"><ele>27.333333333333332</ele><time>2026-04-11T06:11:17.724Z</time></trkpt><trkpt lat="43.8824983" lon="7.996705"><ele>26.5</ele><time>2026-04-11T06:11:19.725Z</time></trkpt><trkpt lat="43.8824633" lon="7.9967983"><ele>25.666666666666664</ele><time>2026-04-11T06:11:21.725Z</time></trkpt><trkpt lat="43.88243" lon="7.996895"><ele>24.833333333333332</ele><time>2026-04-11T06:11:23.724Z</time></trkpt><trkpt lat="43.8823933" lon="7.9969983"><ele>24.0</ele><time>2026-04-11T06:11:25.724Z</time></trkpt><trkpt lat="43.8823533" lon="7.9970983"><ele>24.0</ele><time>2026-04-11T06:11:27.724Z</time></trkpt><trkpt lat="43.882315" lon="7.9972"><ele>24.0</ele><time>2026-04-11T06:11:29.724Z</time></trkpt><trkpt lat="43.8822733" lon="7.9973017"><ele>24.0</ele><time>2026-04-11T06:11:31.724Z</time></trkpt><trkpt lat="43.88223" lon="7.9974033"><ele>24.0</ele><time>2026-04-11T06:11:33.724Z</time></trkpt><trkpt lat="43.8821833" lon="7.9975"><ele>24.0</ele><time>2026-04-11T06:11:35.724Z</time></trkpt><trkpt lat="43.882145" lon="7.9975967"><ele>24.0</ele><time>2026-04-11T06:11:37.725Z</time></trkpt><trkpt lat="43.8821" lon="7.9976983"><ele>24.5</ele><time>2026-04-11T06:11:39.724Z</time></trkpt><trkpt lat="43.88205" lon="7.9977967"><ele>25.0</ele><time>2026-04-11T06:11:41.724Z</time></trkpt><trkpt lat="43.8819967" lon="7.9978933"><ele>25.5</ele><time>2026-04-11T06:11:43.724Z</time></trkpt><trkpt lat="43.8819533" lon="7.9979967"><ele>26.0</ele><time>2026-04-11T06:11:45.724Z</time></trkpt><trkpt lat="43.88191" lon="7.9981017"><ele>26.5</ele><time>2026-04-11T06:11:47.724Z</time></trkpt><trkpt lat="43.8818683" lon="7.9982067"><ele>27.0</ele><time>2026-04-11T06:11:49.724Z</time></trkpt><trkpt lat="43.881815" lon="7.99831"><ele>26.200000000000003</ele><time>2026-04-11T06:11:51.724Z</time></trkpt><trkpt lat="43.88177" lon="7.99841"><ele>25.400000000000002</ele><time>2026-04-11T06:11:53.724Z</time></trkpt><trkpt lat="43.8817183" lon="7.9985133"><ele>24.6</ele><time>2026-04-11T06:11:55.724Z</time></trkpt><trkpt lat="43.8816617" lon="7.9986083"><ele>23.799999999999997</ele><time>2026-04-11T06:11:57.724Z</time></trkpt><trkpt lat="43.8815983" lon="7.9987"><ele>23.0</ele><time>2026-04-11T06:11:59.724Z</time></trkpt><trkpt lat="43.8815283" lon="7.9987883"><ele>23.0</ele><time>2026-04-11T06:12:01.724Z</time></trkpt><trkpt lat="43.8814583" lon="7.998875"><ele>23.0</ele><time>2026-04-11T06:12:03.724Z</time></trkpt><trkpt lat="43.8813883" lon="7.9989583"><ele>23.0</ele><time>2026-04-11T06:12:05.724Z</time></trkpt><trkpt lat="43.8813217" lon="7.99904"><ele>23.0</ele><time>2026-04-11T06:12:07.724Z</time></trkpt><trkpt lat="43.8812517" lon="7.9991183"><ele>23.0</ele><time>2026-04-11T06:12:09.724Z</time></trkpt><trkpt lat="43.8811833" lon="7.9991967"><ele>22.0</ele><time>2026-04-11T06:12:11.724Z</time></trkpt><trkpt lat="43.8811183" lon="7.999285"><ele>21.0</ele><time>2026-04-11T06:12:13.724Z</time></trkpt><trkpt lat="43.88106" lon="7.999395"><ele>20.0</ele><time>2026-04-11T06:12:15.724Z</time></trkpt><trkpt lat="43.8810083" lon="7.99951"><ele>19.0</ele><time>2026-04-11T06:12:17.725Z</time></trkpt><trkpt lat="43.8809617" lon="7.9996317"><ele>18.0</ele><time>2026-04-11T06:12:19.724Z</time></trkpt><trkpt lat="43.8809217" lon="7.9997567"><ele>18.0</ele><time>2026-04-11T06:12:21.724Z</time></trkpt><trkpt lat="43.8808783" lon="7.9998867"><ele>18.0</ele><time>2026-04-11T06:12:23.724Z</time></trkpt><trkpt lat="43.88084" lon="8.0000183"><ele>18.0</ele><time>2026-04-11T06:12:25.724Z</time></trkpt><trkpt lat="43.8808033" lon="8.00015"><ele>18.0</ele><time>2026-04-11T06:12:27.724Z</time></trkpt><trkpt lat="43.8807683" lon="8.000285"><ele>18.0</ele><time>2026-04-11T06:12:29.724Z</time></trkpt><trkpt lat="43.8807367" lon="8.000425"><ele>18.0</ele><time>2026-04-11T06:12:31.724Z</time></trkpt><trkpt lat="43.8806983" lon="8.0005633"><ele>18.0</ele><time>2026-04-11T06:12:33.724Z</time></trkpt><trkpt lat="43.8806683" lon="8.0006967"><ele>18.0</ele><time>2026-04-11T06:12:35.725Z</time></trkpt><trkpt lat="43.8806417" lon="8.0008333"><ele>18.0</ele><time>2026-04-11T06:12:37.724Z</time></trkpt><trkpt lat="43.880615" lon="8.0009633"><ele>18.0</ele><time>2026-04-11T06:12:39.724Z</time></trkpt><trkpt lat="43.880585" lon="8.0010983"><ele>18.4</ele><time>2026-04-11T06:12:41.724Z</time></trkpt><trkpt lat="43.8805567" lon="8.0012217"><ele>18.8</ele><time>2026-04-11T06:12:43.724Z</time></trkpt><trkpt lat="43.8805217" lon="8.0013533"><ele>19.2</ele><time>2026-04-11T06:12:45.724Z</time></trkpt><trkpt lat="43.8804817" lon="8.0014883"><ele>19.6</ele><time>2026-04-11T06:12:47.725Z</time></trkpt><trkpt lat="43.88043" lon="8.0016183"><ele>20.0</ele><time>2026-04-11T06:12:49.724Z</time></trkpt><trkpt lat="43.880375" lon="8.0017483"><ele>20.4</ele><time>2026-04-11T06:12:51.724Z</time></trkpt><trkpt lat="43.880325" lon="8.0018717"><ele>20.8</ele><time>2026-04-11T06:12:53.724Z</time></trkpt><trkpt lat="43.8802733" lon="8.0019917"><ele>21.200000000000003</ele><time>2026-04-11T06:12:55.724Z</time></trkpt><trkpt lat="43.8802233" lon="8.0021133"><ele>21.6</ele><time>2026-04-11T06:12:57.724Z</time></trkpt><trkpt lat="43.8801833" lon="8.00224"><ele>22.0</ele><time>2026-04-11T06:12:59.724Z</time></trkpt><trkpt lat="43.8801683" lon="8.00237"><ele>23.200000000000003</ele><time>2026-04-11T06:13:01.724Z</time></trkpt><trkpt lat="43.8801767" lon="8.0025033"><ele>24.4</ele><time>2026-04-11T06:13:03.724Z</time></trkpt><trkpt lat="43.8801883" lon="8.0026417"><ele>25.599999999999998</ele><time>2026-04-11T06:13:05.724Z</time></trkpt><trkpt lat="43.8801967" lon="8.0027867"><ele>26.799999999999997</ele><time>2026-04-11T06:13:07.724Z</time></trkpt><trkpt lat="43.88021" lon="8.0029283"><ele>28.0</ele><time>2026-04-11T06:13:09.724Z</time></trkpt><trkpt lat="43.8802183" lon="8.003065"><ele>28.0</ele><time>2026-04-11T06:13:11.724Z</time></trkpt><trkpt lat="43.8802283" lon="8.003205"><ele>27.999999999999996</ele><time>2026-04-11T06:13:13.724Z</time></trkpt><trkpt lat="43.8802333" lon="8.00334"><ele>27.999999999999996</ele><time>2026-04-11T06:13:15.724Z</time></trkpt><trkpt lat="43.8802417" lon="8.00347"><ele>28.0</ele><time>2026-04-11T06:13:17.724Z</time></trkpt><trkpt lat="43.88025" lon="8.003605"><ele>28.0</ele><time>2026-04-11T06:13:19.724Z</time></trkpt><trkpt lat="43.880255" lon="8.0037383"><ele>28.2</ele><time>2026-04-11T06:13:21.725Z</time></trkpt><trkpt lat="43.8802533" lon="8.0038733"><ele>28.4</ele><time>2026-04-11T06:13:23.724Z</time></trkpt><trkpt lat="43.8802367" lon="8.0040033"><ele>28.599999999999998</ele><time>2026-04-11T06:13:25.724Z</time></trkpt><trkpt lat="43.8802183" lon="8.004135"><ele>28.799999999999997</ele><time>2026-04-11T06:13:27.724Z</time></trkpt><trkpt lat="43.8802083" lon="8.00427"><ele>29.0</ele><time>2026-04-11T06:13:29.724Z</time></trkpt><trkpt lat="43.8801867" lon="8.0044017"><ele>28.0</ele><time>2026-04-11T06:13:31.724Z</time></trkpt><trkpt lat="43.880155" lon="8.0045333"><ele>27.0</ele><time>2026-04-11T06:13:33.724Z</time></trkpt><trkpt lat="43.880115" lon="8.0046633"><ele>26.0</ele><time>2026-04-11T06:13:35.725Z</time></trkpt><trkpt lat="43.8800717" lon="8.00479"><ele>25.0</ele><time>2026-04-11T06:13:37.724Z</time></trkpt><trkpt lat="43.8800183" lon="8.004905"><ele>24.0</ele><time>2026-04-11T06:13:39.724Z</time></trkpt><trkpt lat="43.8799617" lon="8.0050183"><ele>22.2</ele><time>2026-04-11T06:13:41.725Z</time></trkpt><trkpt lat="43.87991" lon="8.0051333"><ele>20.4</ele><time>2026-04-11T06:13:43.724Z</time></trkpt><trkpt lat="43.8798583" lon="8.0052467"><ele>18.6</ele><time>2026-04-11T06:13:45.725Z</time></trkpt><trkpt lat="43.8798067" lon="8.0053583"><ele>16.8</ele><time>2026-04-11T06:13:47.724Z</time></trkpt><trkpt lat="43.87976" lon="8.0054733"><ele>15.0</ele><time>2026-04-11T06:13:49.724Z</time></trkpt><trkpt lat="43.8796967" lon="8.005585"><ele>15.0</ele><time>2026-04-11T06:13:51.724Z</time></trkpt><trkpt lat="43.8796333" lon="8.005695"><ele>15.0</ele><time>2026-04-11T06:13:53.724Z</time></trkpt><trkpt lat="43.8795667" lon="8.0057983"><ele>15.0</ele><time>2026-04-11T06:13:55.724Z</time></trkpt><trkpt lat="43.8794983" lon="8.0058833"><ele>15.0</ele><time>2026-04-11T06:13:57.724Z</time></trkpt><trkpt lat="43.8794217" lon="8.0059233"><ele>15.0</ele><time>2026-04-11T06:13:59.724Z</time></trkpt><trkpt lat="43.87933" lon="8.0059417"><ele>14.2</ele><time>2026-04-11T06:14:01.724Z</time></trkpt><trkpt lat="43.8792467" lon="8.00599"><ele>13.4</ele><time>2026-04-11T06:14:03.724Z</time></trkpt><trkpt lat="43.879165" lon="8.0060617"><ele>12.600000000000001</ele><time>2026-04-11T06:14:05.724Z</time></trkpt><trkpt lat="43.8790883" lon="8.00614"><ele>11.8</ele><time>2026-04-11T06:14:07.724Z</time></trkpt><trkpt lat="43.879015" lon="8.0062233"><ele>11.0</ele><time>2026-04-11T06:14:09.724Z</time></trkpt><trkpt lat="43.8789417" lon="8.0063133"><ele>11.0</ele><time>2026-04-11T06:14:11.724Z</time></trkpt><trkpt lat="43.878865" lon="8.006405"><ele>11.0</ele><time>2026-04-11T06:14:13.724Z</time></trkpt><trkpt lat="43.878785" lon="8.006495"><ele>11.0</ele><time>2026-04-11T06:14:15.724Z</time></trkpt><trkpt lat="43.878705" lon="8.0065833"><ele>11.0</ele><time>2026-04-11T06:14:17.724Z</time></trkpt><trkpt lat="43.8786283" lon="8.0066767"><ele>11.0</ele><time>2026-04-11T06:14:19.724Z</time></trkpt><trkpt lat="43.87855" lon="8.0067683"><ele>11.0</ele><time>2026-04-11T06:14:21.724Z</time></trkpt><trkpt lat="43.8784783" lon="8.00686"><ele>11.0</ele><time>2026-04-11T06:14:23.725Z</time></trkpt><trkpt lat="43.87841" lon="8.00695"><ele>11.0</ele><time>2026-04-11T06:14:25.724Z</time></trkpt><trkpt lat="43.8783417" lon="8.00703"><ele>11.0</ele><time>2026-04-11T06:14:27.724Z</time></trkpt><trkpt lat="43.8782733" lon="8.0071067"><ele>11.0</ele><time>2026-04-11T06:14:29.724Z</time></trkpt><trkpt lat="43.8782017" lon="8.0071833"><ele>11.0</ele><time>2026-04-11T06:14:31.724Z</time></trkpt><trkpt lat="43.8781317" lon="8.007255"><ele>11.0</ele><time>2026-04-11T06:14:33.724Z</time></trkpt><trkpt lat="43.8780617" lon="8.00733"><ele>11.0</ele><time>2026-04-11T06:14:35.724Z</time></trkpt><trkpt lat="43.8779917" lon="8.007395"><ele>11.0</ele><time>2026-04-11T06:14:37.724Z</time></trkpt><trkpt lat="43.8779117" lon="8.0074417"><ele>11.0</ele><time>2026-04-11T06:14:39.724Z</time></trkpt><trkpt lat="43.8778317" lon="8.0074933"><ele>11.0</ele><time>2026-04-11T06:14:41.724Z</time></trkpt><trkpt lat="43.8777583" lon="8.0075517"><ele>11.0</ele><time>2026-04-11T06:14:43.725Z</time></trkpt><trkpt lat="43.8776967" lon="8.0076233"><ele>11.0</ele><time>2026-04-11T06:14:45.724Z</time></trkpt><trkpt lat="43.8776383" lon="8.0077167"><ele>11.0</ele><time>2026-04-11T06:14:47.724Z</time></trkpt><trkpt lat="43.8775733" lon="8.007805"><ele>11.0</ele><time>2026-04-11T06:14:49.724Z</time></trkpt><trkpt lat="43.87749" lon="8.00788"><ele>11.0</ele><time>2026-04-11T06:14:51.724Z</time></trkpt><trkpt lat="43.87741" lon="8.0079567"><ele>11.600000000000001</ele><time>2026-04-11T06:14:53.724Z</time></trkpt><trkpt lat="43.8773217" lon="8.00802"><ele>12.2</ele><time>2026-04-11T06:14:55.724Z</time></trkpt><trkpt lat="43.87723" lon="8.0080633"><ele>12.799999999999999</ele><time>2026-04-11T06:14:57.724Z</time></trkpt><trkpt lat="43.87713" lon="8.0081017"><ele>13.399999999999999</ele><time>2026-04-11T06:14:59.724Z</time></trkpt><trkpt lat="43.8770333" lon="8.0081417"><ele>14.0</ele><time>2026-04-11T06:15:01.724Z</time></trkpt><trkpt lat="43.8769383" lon="8.00818"><ele>14.0</ele><time>2026-04-11T06:15:03.724Z</time></trkpt><trkpt lat="43.8768383" lon="8.0082183"><ele>13.999999999999998</ele><time>2026-04-11T06:15:05.724Z</time></trkpt><trkpt lat="43.87675" lon="8.00825"><ele>13.999999999999998</ele><time>2026-04-11T06:15:07.724Z</time></trkpt><trkpt lat="43.876665" lon="8.0082467"><ele>14.0</ele><time>2026-04-11T06:15:09.724Z</time></trkpt><trkpt lat="43.876585" lon="8.0082283"><ele>14.0</ele><time>2026-04-11T06:15:11.724Z</time></trkpt><trkpt lat="43.8764983" lon="8.0082"><ele>13.6</ele><time>2026-04-11T06:15:13.724Z</time></trkpt><trkpt lat="43.8764017" lon="8.0081933"><ele>13.2</ele><time>2026-04-11T06:15:15.724Z</time></trkpt><trkpt lat="43.8763033" lon="8.0082217"><ele>12.799999999999999</ele><time>2026-04-11T06:15:17.724Z</time></trkpt><trkpt lat="43.8762083" lon="8.0082667"><ele>12.399999999999999</ele><time>2026-04-11T06:15:19.724Z</time></trkpt><trkpt lat="43.876125" lon="8.0083583"><ele>12.0</ele><time>2026-04-11T06:15:21.724Z</time></trkpt><trkpt lat="43.8761217" lon="8.0085367"><ele>11.999999999999998</ele><time>2026-04-11T06:15:23.724Z</time></trkpt><trkpt lat="43.87613" lon="8.008635"><ele>12.0</ele><time>2026-04-11T06:15:24.724Z</time></trkpt><trkpt lat="43.87614" lon="8.0087367"><ele>12.0</ele><time>2026-04-11T06:15:25.725Z</time></trkpt><trkpt lat="43.87615" lon="8.0088333"><ele>12.0</ele><time>2026-04-11T06:15:26.724Z</time></trkpt><trkpt lat="43.8761667" lon="8.0089283"><ele>12.0</ele><time>2026-04-11T06:15:27.724Z</time></trkpt><trkpt lat="43.8761783" lon="8.0090217"><ele>11.999999999999998</ele><time>2026-04-11T06:15:28.724Z</time></trkpt><trkpt lat="43.8761933" lon="8.00911"><ele>12.0</ele><time>2026-04-11T06:15:29.724Z</time></trkpt><trkpt lat="43.8761967" lon="8.0092"><ele>11.8</ele><time>2026-04-11T06:15:30.724Z</time></trkpt><trkpt lat="43.8762083" lon="8.00936"><ele>11.6</ele><time>2026-04-11T06:15:32.724Z</time></trkpt><trkpt lat="43.876235" lon="8.009485"><ele>11.4</ele><time>2026-04-11T06:15:34.724Z</time></trkpt><trkpt lat="43.8762683" lon="8.009585"><ele>11.200000000000001</ele><time>2026-04-11T06:15:36.724Z</time></trkpt><trkpt lat="43.8763017" lon="8.00971"><ele>11.0</ele><time>2026-04-11T06:15:39.724Z</time></trkpt><trkpt lat="43.8763067" lon="8.009825"><ele>11.0</ele><time>2026-04-11T06:15:41.724Z</time></trkpt><trkpt lat="43.8762783" lon="8.0099383"><ele>11.0</ele><time>2026-04-11T06:15:43.724Z</time></trkpt><trkpt lat="43.8762517" lon="8.0100467"><ele>11.0</ele><time>2026-04-11T06:15:45.724Z</time></trkpt><trkpt lat="43.876225" lon="8.0101617"><ele>11.0</ele><time>2026-04-11T06:15:47.725Z</time></trkpt><trkpt lat="43.8761883" lon="8.01027"><ele>11.0</ele><time>2026-04-11T06:15:49.724Z</time></trkpt><trkpt lat="43.87621" lon="8.0103717"><ele>11.0</ele><time>2026-04-11T06:15:52.724Z</time></trkpt><trkpt lat="43.8762733" lon="8.010425"><ele>11.666666666666666</ele><time>2026-04-11T06:15:54.724Z</time></trkpt><trkpt lat="43.8763433" lon="8.010485"><ele>12.333333333333332</ele><time>2026-04-11T06:15:56.724Z</time></trkpt><trkpt lat="43.8764117" lon="8.0105533"><ele>13.0</ele><time>2026-04-11T06:15:58.724Z</time></trkpt><trkpt lat="43.876485" lon="8.0106183"><ele>13.666666666666666</ele><time>2026-04-11T06:16:00.725Z</time></trkpt><trkpt lat="43.8765667" lon="8.0106817"><ele>14.333333333333334</ele><time>2026-04-11T06:16:02.724Z</time></trkpt><trkpt lat="43.876645" lon="8.01075"><ele>15.0</ele><time>2026-04-11T06:16:04.724Z</time></trkpt><trkpt lat="43.87672" lon="8.0108233"><ele>16.8</ele><time>2026-04-11T06:16:06.724Z</time></trkpt><trkpt lat="43.8767933" lon="8.010895"><ele>18.6</ele><time>2026-04-11T06:16:08.724Z</time></trkpt><trkpt lat="43.87687" lon="8.010985"><ele>20.4</ele><time>2026-04-11T06:16:10.724Z</time></trkpt><trkpt lat="43.8769383" lon="8.0110683"><ele>22.2</ele><time>2026-04-11T06:16:12.724Z</time></trkpt><trkpt lat="43.8770067" lon="8.0111417"><ele>24.0</ele><time>2026-04-11T06:16:14.724Z</time></trkpt><trkpt lat="43.877075" lon="8.01121"><ele>24.0</ele><time>2026-04-11T06:16:16.724Z</time></trkpt><trkpt lat="43.877135" lon="8.0112967"><ele>24.0</ele><time>2026-04-11T06:16:18.724Z</time></trkpt><trkpt lat="43.8772" lon="8.0113667"><ele>24.0</ele><time>2026-04-11T06:16:20.724Z</time></trkpt><trkpt lat="43.87727" lon="8.011435"><ele>24.0</ele><time>2026-04-11T06:16:22.724Z</time></trkpt><trkpt lat="43.8773467" lon="8.0115133"><ele>24.0</ele><time>2026-04-11T06:16:24.724Z</time></trkpt><trkpt lat="43.8774167" lon="8.0115867"><ele>24.0</ele><time>2026-04-11T06:16:26.724Z</time></trkpt><trkpt lat="43.8774817" lon="8.0116717"><ele>24.0</ele><time>2026-04-11T06:16:28.724Z</time></trkpt><trkpt lat="43.87755" lon="8.011755"><ele>24.0</ele><time>2026-04-11T06:16:30.724Z</time></trkpt><trkpt lat="43.877615" lon="8.011845"><ele>24.0</ele><time>2026-04-11T06:16:32.724Z</time></trkpt><trkpt lat="43.8776783" lon="8.0119433"><ele>24.0</ele><time>2026-04-11T06:16:34.724Z</time></trkpt><trkpt lat="43.87774" lon="8.01204"><ele>24.0</ele><time>2026-04-11T06:16:36.724Z</time></trkpt><trkpt lat="43.877805" lon="8.0121317"><ele>24.0</ele><time>2026-04-11T06:16:38.724Z</time></trkpt><trkpt lat="43.877865" lon="8.0122233"><ele>24.0</ele><time>2026-04-11T06:16:40.724Z</time></trkpt><trkpt lat="43.877925" lon="8.0123133"><ele>24.0</ele><time>2026-04-11T06:16:42.725Z</time></trkpt><trkpt lat="43.87798" lon="8.012405"><ele>24.0</ele><time>2026-04-11T06:16:44.724Z</time></trkpt><trkpt lat="43.8780417" lon="8.012495"><ele>24.0</ele><time>2026-04-11T06:16:46.725Z</time></trkpt><trkpt lat="43.8781033" lon="8.012585"><ele>24.0</ele><time>2026-04-11T06:16:48.724Z</time></trkpt><trkpt lat="43.8781667" lon="8.01266"><ele>15.0</ele><time>2026-04-11T06:16:50.724Z</time></trkpt><trkpt lat="43.8766016" lon="8.0103353"><ele>35.0</ele><time>2026-04-11T06:17:30.572Z</time></trkpt><trkpt lat="43.8795434" lon="8.0178379"><ele>35.0</ele><time>2026-04-11T06:18:06.56Z</time></trkpt><trkpt lat="43.8795867" lon="8.0174083"><ele>35.0</ele><time>2026-04-11T06:18:07.724Z</time></trkpt><trkpt lat="43.8795633" lon="8.0175017"><ele>35.0</ele><time>2026-04-11T06:18:09.724Z</time></trkpt><trkpt lat="43.8795983" lon="8.01762"><ele>35.0</ele><time>2026-04-11T06:18:11.724Z</time></trkpt><trkpt lat="43.8796433" lon="8.017735"><ele>35.0</ele><time>2026-04-11T06:18:13.724Z</time></trkpt><trkpt lat="43.8797117" lon="8.0178333"><ele>35.0</ele><time>2026-04-11T06:18:15.724Z</time></trkpt><trkpt lat="43.87975" lon="8.0179533"><ele>35.0</ele><time>2026-04-11T06:18:17.724Z</time></trkpt><trkpt lat="43.879785" lon="8.018085"><ele>35.0</ele><time>2026-04-11T06:18:19.724Z</time></trkpt><trkpt lat="43.879835" lon="8.0182017"><ele>35.0</ele><time>2026-04-11T06:18:21.724Z</time></trkpt><trkpt lat="43.8798933" lon="8.01831"><ele>35.0</ele><time>2026-04-11T06:18:23.724Z</time></trkpt><trkpt lat="43.879955" lon="8.018415"><ele>35.0</ele><time>2026-04-11T06:18:25.724Z</time></trkpt><trkpt lat="43.88001" lon="8.0185167"><ele>35.0</ele><time>2026-04-11T06:18:27.724Z</time></trkpt><trkpt lat="43.8800667" lon="8.0186217"><ele>35.0</ele><time>2026-04-11T06:18:29.724Z</time></trkpt><trkpt lat="43.8801317" lon="8.01872"><ele>34.8</ele><time>2026-04-11T06:18:31.724Z</time></trkpt><trkpt lat="43.8801917" lon="8.018815"><ele>34.6</ele><time>2026-04-11T06:18:33.724Z</time></trkpt><trkpt lat="43.8802567" lon="8.0189033"><ele>34.4</ele><time>2026-04-11T06:18:35.725Z</time></trkpt><trkpt lat="43.8803117" lon="8.019005"><ele>34.2</ele><time>2026-04-11T06:18:37.724Z</time></trkpt><trkpt lat="43.8803667" lon="8.0191067"><ele>34.0</ele><time>2026-04-11T06:18:39.725Z</time></trkpt><trkpt lat="43.8804267" lon="8.0191933"><ele>31.333333333333336</ele><time>2026-04-11T06:18:41.724Z</time></trkpt><trkpt lat="43.88049" lon="8.0192717"><ele>28.666666666666668</ele><time>2026-04-11T06:18:43.724Z</time></trkpt><trkpt lat="43.8805567" lon="8.0193583"><ele>26.0</ele><time>2026-04-11T06:18:45.724Z</time></trkpt><trkpt lat="43.88062" lon="8.0194483"><ele>23.333333333333336</ele><time>2026-04-11T06:18:47.724Z</time></trkpt><trkpt lat="43.8806833" lon="8.0195433"><ele>20.666666666666668</ele><time>2026-04-11T06:18:49.724Z</time></trkpt><trkpt lat="43.8807417" lon="8.019635"><ele>18.0</ele><time>2026-04-11T06:18:51.724Z</time></trkpt><trkpt lat="43.88081" lon="8.0197217"><ele>18.0</ele><time>2026-04-11T06:18:53.724Z</time></trkpt><trkpt lat="43.88088" lon="8.0198067"><ele>18.0</ele><time>2026-04-11T06:18:55.724Z</time></trkpt><trkpt lat="43.88095" lon="8.01989"><ele>18.0</ele><time>2026-04-11T06:18:57.724Z</time></trkpt><trkpt lat="43.8810183" lon="8.0199717"><ele>18.0</ele><time>2026-04-11T06:18:59.724Z</time></trkpt><trkpt lat="43.881085" lon="8.020055"><ele>18.0</ele><time>2026-04-11T06:19:01.724Z</time></trkpt><trkpt lat="43.88115" lon="8.0201483"><ele>19.0</ele><time>2026-04-11T06:19:03.724Z</time></trkpt><trkpt lat="43.8812133" lon="8.0202333"><ele>20.0</ele><time>2026-04-11T06:19:05.724Z</time></trkpt><trkpt lat="43.8812717" lon="8.0203283"><ele>21.0</ele><time>2026-04-11T06:19:07.724Z</time></trkpt><trkpt lat="43.8813333" lon="8.0204233"><ele>22.0</ele><time>2026-04-11T06:19:09.724Z</time></trkpt><trkpt lat="43.8813917" lon="8.0205233"><ele>23.0</ele><time>2026-04-11T06:19:11.724Z</time></trkpt><trkpt lat="43.881455" lon="8.0206233"><ele>23.0</ele><time>2026-04-11T06:19:13.724Z</time></trkpt><trkpt lat="43.8815133" lon="8.02072"><ele>23.0</ele><time>2026-04-11T06:19:15.724Z</time></trkpt><trkpt lat="43.8815683" lon="8.0208283"><ele>23.0</ele><time>2026-04-11T06:19:17.724Z</time></trkpt><trkpt lat="43.8816217" lon="8.0209383"><ele>23.0</ele><time>2026-04-11T06:19:19.724Z</time></trkpt><trkpt lat="43.8816767" lon="8.021045"><ele>23.0</ele><time>2026-04-11T06:19:21.725Z</time></trkpt><trkpt lat="43.8817317" lon="8.0211483"><ele>22.799999999999997</ele><time>2026-04-11T06:19:23.724Z</time></trkpt><trkpt lat="43.8817833" lon="8.0212533"><ele>22.6</ele><time>2026-04-11T06:19:25.724Z</time></trkpt><trkpt lat="43.8818283" lon="8.02136"><ele>22.4</ele><time>2026-04-11T06:19:27.724Z</time></trkpt><trkpt lat="43.8818783" lon="8.0214667"><ele>22.200000000000003</ele><time>2026-04-11T06:19:29.724Z</time></trkpt><trkpt lat="43.8819283" lon="8.0215717"><ele>22.0</ele><time>2026-04-11T06:19:31.724Z</time></trkpt><trkpt lat="43.8819733" lon="8.0216833"><ele>22.0</ele><time>2026-04-11T06:19:33.724Z</time></trkpt><trkpt lat="43.8820167" lon="8.0217883"><ele>22.0</ele><time>2026-04-11T06:19:35.724Z</time></trkpt><trkpt lat="43.88206" lon="8.0218833"><ele>22.0</ele><time>2026-04-11T06:19:37.724Z</time></trkpt><trkpt lat="43.8821017" lon="8.0219733"><ele>22.0</ele><time>2026-04-11T06:19:39.724Z</time></trkpt><trkpt lat="43.8821417" lon="8.0220767"><ele>22.0</ele><time>2026-04-11T06:19:41.724Z</time></trkpt><trkpt lat="43.882185" lon="8.0221867"><ele>22.0</ele><time>2026-04-11T06:19:43.724Z</time></trkpt><trkpt lat="43.8822333" lon="8.0223067"><ele>22.0</ele><time>2026-04-11T06:19:45.724Z</time></trkpt><trkpt lat="43.8822833" lon="8.0224233"><ele>22.0</ele><time>2026-04-11T06:19:47.724Z</time></trkpt><trkpt lat="43.8823267" lon="8.02254"><ele>22.0</ele><time>2026-04-11T06:19:49.724Z</time></trkpt><trkpt lat="43.8823683" lon="8.022655"><ele>22.0</ele><time>2026-04-11T06:19:51.725Z</time></trkpt><trkpt lat="43.8824" lon="8.0227733"><ele>22.0</ele><time>2026-04-11T06:19:53.724Z</time></trkpt><trkpt lat="43.8824217" lon="8.0229033"><ele>21.6</ele><time>2026-04-11T06:19:55.724Z</time></trkpt><trkpt lat="43.8824533" lon="8.02303"><ele>21.200000000000003</ele><time>2026-04-11T06:19:57.724Z</time></trkpt><trkpt lat="43.8824867" lon="8.023155"><ele>20.8</ele><time>2026-04-11T06:19:59.724Z</time></trkpt><trkpt lat="43.88252" lon="8.023275"><ele>20.4</ele><time>2026-04-11T06:20:01.724Z</time></trkpt><trkpt lat="43.8825433" lon="8.0234033"><ele>20.0</ele><time>2026-04-11T06:20:03.724Z</time></trkpt><trkpt lat="43.8825683" lon="8.0235367"><ele>24.0</ele><time>2026-04-11T06:20:05.724Z</time></trkpt><trkpt lat="43.882605" lon="8.02366"><ele>28.0</ele><time>2026-04-11T06:20:07.724Z</time></trkpt><trkpt lat="43.8826233" lon="8.02379"><ele>32.0</ele><time>2026-04-11T06:20:09.724Z</time></trkpt><trkpt lat="43.8826567" lon="8.023915"><ele>36.0</ele><time>2026-04-11T06:20:11.724Z</time></trkpt><trkpt lat="43.8826917" lon="8.024035"><ele>40.0</ele><time>2026-04-11T06:20:13.724Z</time></trkpt><trkpt lat="43.882725" lon="8.0241617"><ele>40.0</ele><time>2026-04-11T06:20:15.724Z</time></trkpt><trkpt lat="43.8827633" lon="8.0242883"><ele>40.0</ele><time>2026-04-11T06:20:17.724Z</time></trkpt><trkpt lat="43.8828033" lon="8.0244117"><ele>40.0</ele><time>2026-04-11T06:20:19.724Z</time></trkpt><trkpt lat="43.8828517" lon="8.0245367"><ele>40.0</ele><time>2026-04-11T06:20:21.724Z</time></trkpt><trkpt lat="43.882905" lon="8.0246533"><ele>40.0</ele><time>2026-04-11T06:20:23.724Z</time></trkpt><trkpt lat="43.882965" lon="8.0247683"><ele>40.0</ele><time>2026-04-11T06:20:25.724Z</time></trkpt><trkpt lat="43.88302" lon="8.024885"><ele>40.0</ele><time>2026-04-11T06:20:27.724Z</time></trkpt><trkpt lat="43.88307" lon="8.025"><ele>40.0</ele><time>2026-04-11T06:20:29.724Z</time></trkpt><trkpt lat="43.883125" lon="8.0251083"><ele>40.0</ele><time>2026-04-11T06:20:31.724Z</time></trkpt><trkpt lat="43.88318" lon="8.0252183"><ele>40.0</ele><time>2026-04-11T06:20:33.724Z</time></trkpt><trkpt lat="43.8832367" lon="8.0253317"><ele>39.0</ele><time>2026-04-11T06:20:35.724Z</time></trkpt><trkpt lat="43.8832967" lon="8.02544"><ele>38.0</ele><time>2026-04-11T06:20:37.724Z</time></trkpt><trkpt lat="43.8833533" lon="8.025545"><ele>37.0</ele><time>2026-04-11T06:20:39.724Z</time></trkpt><trkpt lat="43.883415" lon="8.02565"><ele>36.0</ele><time>2026-04-11T06:20:41.724Z</time></trkpt><trkpt lat="43.8834767" lon="8.0257567"><ele>35.0</ele><time>2026-04-11T06:20:43.724Z</time></trkpt><trkpt lat="43.8835383" lon="8.0258583"><ele>35.0</ele><time>2026-04-11T06:20:45.724Z</time></trkpt><trkpt lat="43.8835967" lon="8.0259667"><ele>35.0</ele><time>2026-04-11T06:20:47.725Z</time></trkpt><trkpt lat="43.8836667" lon="8.026065"><ele>35.0</ele><time>2026-04-11T06:20:49.724Z</time></trkpt><trkpt lat="43.88374" lon="8.0261583"><ele>35.0</ele><time>2026-04-11T06:20:51.725Z</time></trkpt><trkpt lat="43.8838167" lon="8.0262433"><ele>35.0</ele><time>2026-04-11T06:20:53.724Z</time></trkpt><trkpt lat="43.8838933" lon="8.0263383"><ele>35.0</ele><time>2026-04-11T06:20:55.724Z</time></trkpt><trkpt lat="43.88397" lon="8.0264283"><ele>35.0</ele><time>2026-04-11T06:20:57.724Z</time></trkpt><trkpt lat="43.88405" lon="8.0265217"><ele>35.0</ele><time>2026-04-11T06:20:59.724Z</time></trkpt><trkpt lat="43.8841217" lon="8.0266233"><ele>35.0</ele><time>2026-04-11T06:21:01.724Z</time></trkpt><trkpt lat="43.884195" lon="8.0267217"><ele>35.0</ele><time>2026-04-11T06:21:03.724Z</time></trkpt><trkpt lat="43.8842767" lon="8.026805"><ele>35.4</ele><time>2026-04-11T06:21:05.724Z</time></trkpt><trkpt lat="43.8843583" lon="8.0268983"><ele>35.8</ele><time>2026-04-11T06:21:07.724Z</time></trkpt><trkpt lat="43.884435" lon="8.0269967"><ele>36.2</ele><time>2026-04-11T06:21:09.724Z</time></trkpt><trkpt lat="43.8845117" lon="8.0270883"><ele>36.6</ele><time>2026-04-11T06:21:11.724Z</time></trkpt><trkpt lat="43.8845883" lon="8.0271933"><ele>37.0</ele><time>2026-04-11T06:21:13.724Z</time></trkpt><trkpt lat="43.8846617" lon="8.027295"><ele>37.0</ele><time>2026-04-11T06:21:15.725Z</time></trkpt><trkpt lat="43.8847317" lon="8.0273933"><ele>37.0</ele><time>2026-04-11T06:21:17.724Z</time></trkpt><trkpt lat="43.8848067" lon="8.0274933"><ele>37.0</ele><time>2026-04-11T06:21:19.724Z</time></trkpt><trkpt lat="43.8848783" lon="8.0275967"><ele>37.0</ele><time>2026-04-11T06:21:21.724Z</time></trkpt><trkpt lat="43.8849483" lon="8.0277033"><ele>37.0</ele><time>2026-04-11T06:21:23.724Z</time></trkpt><trkpt lat="43.8850183" lon="8.02781"><ele>35.800000000000004</ele><time>2026-04-11T06:21:25.724Z</time></trkpt><trkpt lat="43.8850783" lon="8.027925"><ele>34.6</ele><time>2026-04-11T06:21:27.724Z</time></trkpt><trkpt lat="43.8851367" lon="8.0280433"><ele>33.400000000000006</ele><time>2026-04-11T06:21:29.724Z</time></trkpt><trkpt lat="43.8852" lon="8.0281567"><ele>32.2</ele><time>2026-04-11T06:21:31.724Z</time></trkpt><trkpt lat="43.8852583" lon="8.028275"><ele>31.0</ele><time>2026-04-11T06:21:33.724Z</time></trkpt><trkpt lat="43.8853167" lon="8.0283917"><ele>29.4</ele><time>2026-04-11T06:21:35.724Z</time></trkpt><trkpt lat="43.8853767" lon="8.0285033"><ele>27.8</ele><time>2026-04-11T06:21:37.724Z</time></trkpt><trkpt lat="43.8854367" lon="8.02861"><ele>26.2</ele><time>2026-04-11T06:21:39.724Z</time></trkpt><trkpt lat="43.8854967" lon="8.0287167"><ele>24.599999999999998</ele><time>2026-04-11T06:21:41.724Z</time></trkpt><trkpt lat="43.88555" lon="8.0288183"><ele>23.0</ele><time>2026-04-11T06:21:43.724Z</time></trkpt><trkpt lat="43.8855667" lon="8.0289433"><ele>23.0</ele><time>2026-04-11T06:21:45.724Z</time></trkpt><trkpt lat="43.8856017" lon="8.0290833"><ele>23.0</ele><time>2026-04-11T06:21:47.724Z</time></trkpt><trkpt lat="43.88565" lon="8.0292383"><ele>23.0</ele><time>2026-04-11T06:21:49.724Z</time></trkpt><trkpt lat="43.8856983" lon="8.0293683"><ele>23.0</ele><time>2026-04-11T06:21:51.724Z</time></trkpt><trkpt lat="43.8857483" lon="8.0294983"><ele>23.0</ele><time>2026-04-11T06:21:53.724Z</time></trkpt><trkpt lat="43.8857733" lon="8.0296383"><ele>21.666666666666668</ele><time>2026-04-11T06:21:55.724Z</time></trkpt><trkpt lat="43.8857833" lon="8.029775"><ele>20.333333333333336</ele><time>2026-04-11T06:21:57.725Z</time></trkpt><trkpt lat="43.8857733" lon="8.0298833"><ele>19.0</ele><time>2026-04-11T06:21:59.724Z</time></trkpt><trkpt lat="43.885765" lon="8.0299783"><ele>17.666666666666668</ele><time>2026-04-11T06:22:01.725Z</time></trkpt><trkpt lat="43.8857917" lon="8.0300967"><ele>16.333333333333332</ele><time>2026-04-11T06:22:03.725Z</time></trkpt><trkpt lat="43.8858417" lon="8.0302067"><ele>15.0</ele><time>2026-04-11T06:22:05.724Z</time></trkpt><trkpt lat="43.8858933" lon="8.0303167"><ele>15.4</ele><time>2026-04-11T06:22:07.724Z</time></trkpt><trkpt lat="43.8859433" lon="8.0304417"><ele>15.8</ele><time>2026-04-11T06:22:09.724Z</time></trkpt><trkpt lat="43.886" lon="8.0305567"><ele>16.2</ele><time>2026-04-11T06:22:11.724Z</time></trkpt><trkpt lat="43.8860633" lon="8.03067"><ele>16.6</ele><time>2026-04-11T06:22:13.724Z</time></trkpt><trkpt lat="43.8861233" lon="8.03079"><ele>17.0</ele><time>2026-04-11T06:22:15.724Z</time></trkpt><trkpt lat="43.8861833" lon="8.0309067"><ele>15.4</ele><time>2026-04-11T06:22:17.725Z</time></trkpt><trkpt lat="43.88624" lon="8.03103"><ele>13.799999999999999</ele><time>2026-04-11T06:22:19.724Z</time></trkpt><trkpt lat="43.8863" lon="8.031145"><ele>12.2</ele><time>2026-04-11T06:22:21.725Z</time></trkpt><trkpt lat="43.8863583" lon="8.0312583"><ele>10.6</ele><time>2026-04-11T06:22:23.724Z</time></trkpt><trkpt lat="43.886415" lon="8.0313733"><ele>9.0</ele><time>2026-04-11T06:22:25.724Z</time></trkpt><trkpt lat="43.8864683" lon="8.0314933"><ele>9.0</ele><time>2026-04-11T06:22:27.724Z</time></trkpt><trkpt lat="43.8865167" lon="8.0316167"><ele>9.0</ele><time>2026-04-11T06:22:29.724Z</time></trkpt><trkpt lat="43.8865617" lon="8.0317383"><ele>9.0</ele><time>2026-04-11T06:22:31.724Z</time></trkpt><trkpt lat="43.8866033" lon="8.0318633"><ele>9.0</ele><time>2026-04-11T06:22:33.724Z</time></trkpt><trkpt lat="43.88664" lon="8.0319933"><ele>9.0</ele><time>2026-04-11T06:22:35.724Z</time></trkpt><trkpt lat="43.8866817" lon="8.0321183"><ele>9.0</ele><time>2026-04-11T06:22:37.724Z</time></trkpt><trkpt lat="43.8867267" lon="8.0322367"><ele>9.0</ele><time>2026-04-11T06:22:39.725Z</time></trkpt><trkpt lat="43.8867717" lon="8.0323567"><ele>9.0</ele><time>2026-04-11T06:22:41.724Z</time></trkpt><trkpt lat="43.8868067" lon="8.0324817"><ele>9.0</ele><time>2026-04-11T06:22:43.724Z</time></trkpt><trkpt lat="43.88684" lon="8.0326067"><ele>9.0</ele><time>2026-04-11T06:22:45.724Z</time></trkpt><trkpt lat="43.8868667" lon="8.0327367"><ele>9.0</ele><time>2026-04-11T06:22:47.725Z</time></trkpt><trkpt lat="43.886895" lon="8.0328667"><ele>9.0</ele><time>2026-04-11T06:22:49.724Z</time></trkpt><trkpt lat="43.8869283" lon="8.0329983"><ele>9.0</ele><time>2026-04-11T06:22:51.724Z</time></trkpt><trkpt lat="43.8869683" lon="8.0331333"><ele>9.0</ele><time>2026-04-11T06:22:53.724Z</time></trkpt><trkpt lat="43.88701" lon="8.0332617"><ele>9.0</ele><time>2026-04-11T06:22:55.725Z</time></trkpt><trkpt lat="43.8870367" lon="8.0333883"><ele>9.2</ele><time>2026-04-11T06:22:57.724Z</time></trkpt><trkpt lat="43.88706" lon="8.0335217"><ele>9.4</ele><time>2026-04-11T06:22:59.724Z</time></trkpt><trkpt lat="43.887085" lon="8.0336567"><ele>9.6</ele><time>2026-04-11T06:23:01.724Z</time></trkpt><trkpt lat="43.887125" lon="8.0337883"><ele>9.8</ele><time>2026-04-11T06:23:03.724Z</time></trkpt><trkpt lat="43.88716" lon="8.03392"><ele>10.0</ele><time>2026-04-11T06:23:05.725Z</time></trkpt><trkpt lat="43.8871967" lon="8.0340483"><ele>9.6</ele><time>2026-04-11T06:23:07.724Z</time></trkpt><trkpt lat="43.887225" lon="8.0341817"><ele>9.2</ele><time>2026-04-11T06:23:09.724Z</time></trkpt><trkpt lat="43.8872517" lon="8.0343217"><ele>8.8</ele><time>2026-04-11T06:23:11.724Z</time></trkpt><trkpt lat="43.8872817" lon="8.034455"><ele>8.4</ele><time>2026-04-11T06:23:13.724Z</time></trkpt><trkpt lat="43.88731" lon="8.0345917"><ele>8.0</ele><time>2026-04-11T06:23:15.724Z</time></trkpt><trkpt lat="43.8873267" lon="8.0347267"><ele>8.0</ele><time>2026-04-11T06:23:17.725Z</time></trkpt><trkpt lat="43.8873533" lon="8.0348533"><ele>8.0</ele><time>2026-04-11T06:23:19.724Z</time></trkpt><trkpt lat="43.8873933" lon="8.034985"><ele>8.0</ele><time>2026-04-11T06:23:21.725Z</time></trkpt><trkpt lat="43.8874317" lon="8.0351167"><ele>8.0</ele><time>2026-04-11T06:23:23.724Z</time></trkpt><trkpt lat="43.887465" lon="8.0352483"><ele>8.0</ele><time>2026-04-11T06:23:25.724Z</time></trkpt><trkpt lat="43.8875017" lon="8.03538"><ele>8.0</ele><time>2026-04-11T06:23:27.724Z</time></trkpt><trkpt lat="43.8875467" lon="8.0355017"><ele>8.0</ele><time>2026-04-11T06:23:29.724Z</time></trkpt><trkpt lat="43.8876" lon="8.03562"><ele>8.0</ele><time>2026-04-11T06:23:31.724Z</time></trkpt><trkpt lat="43.8876417" lon="8.0357417"><ele>8.0</ele><time>2026-04-11T06:23:33.725Z</time></trkpt><trkpt lat="43.8876783" lon="8.0358617"><ele>8.0</ele><time>2026-04-11T06:23:35.724Z</time></trkpt><trkpt lat="43.8877167" lon="8.0359833"><ele>7.6000000000000005</ele><time>2026-04-11T06:23:37.724Z</time></trkpt><trkpt lat="43.88775" lon="8.0361033"><ele>7.200000000000001</ele><time>2026-04-11T06:23:39.724Z</time></trkpt><trkpt lat="43.8877783" lon="8.0362283"><ele>6.8</ele><time>2026-04-11T06:23:41.724Z</time></trkpt><trkpt lat="43.8878017" lon="8.0363567"><ele>6.4</ele><time>2026-04-11T06:23:43.725Z</time></trkpt><trkpt lat="43.887835" lon="8.0364833"><ele>6.0</ele><time>2026-04-11T06:23:45.724Z</time></trkpt><trkpt lat="43.8878683" lon="8.0366067"><ele>6.0</ele><time>2026-04-11T06:23:47.724Z</time></trkpt><trkpt lat="43.88789" lon="8.036735"><ele>6.0</ele><time>2026-04-11T06:23:49.724Z</time></trkpt><trkpt lat="43.8879167" lon="8.0368683"><ele>6.0</ele><time>2026-04-11T06:23:51.724Z</time></trkpt><trkpt lat="43.8879433" lon="8.037"><ele>6.0</ele><time>2026-04-11T06:23:53.724Z</time></trkpt><trkpt lat="43.88797" lon="8.037125"><ele>6.0</ele><time>2026-04-11T06:23:55.724Z</time></trkpt><trkpt lat="43.8879967" lon="8.03724"><ele>6.0</ele><time>2026-04-11T06:23:57.724Z</time></trkpt><trkpt lat="43.8880283" lon="8.0373717"><ele>6.0</ele><time>2026-04-11T06:23:59.724Z</time></trkpt><trkpt lat="43.88806" lon="8.0375083"><ele>6.0</ele><time>2026-04-11T06:24:01.724Z</time></trkpt><trkpt lat="43.8880933" lon="8.037645"><ele>6.0</ele><time>2026-04-11T06:24:03.724Z</time></trkpt><trkpt lat="43.8881267" lon="8.0377883"><ele>6.0</ele><time>2026-04-11T06:24:05.724Z</time></trkpt><trkpt lat="43.888155" lon="8.0379233"><ele>7.0</ele><time>2026-04-11T06:24:07.724Z</time></trkpt><trkpt lat="43.8881817" lon="8.0380617"><ele>8.0</ele><time>2026-04-11T06:24:09.724Z</time></trkpt><trkpt lat="43.8882083" lon="8.0381967"><ele>9.0</ele><time>2026-04-11T06:24:11.724Z</time></trkpt><trkpt lat="43.8882167" lon="8.038325"><ele>10.0</ele><time>2026-04-11T06:24:13.725Z</time></trkpt><trkpt lat="43.8882517" lon="8.03844"><ele>11.0</ele><time>2026-04-11T06:24:15.724Z</time></trkpt><trkpt lat="43.8882517" lon="8.0385567"><ele>11.200000000000001</ele><time>2026-04-11T06:24:17.724Z</time></trkpt><trkpt lat="43.8882133" lon="8.0386317"><ele>11.4</ele><time>2026-04-11T06:24:19.724Z</time></trkpt><trkpt lat="43.8881283" lon="8.03867"><ele>11.6</ele><time>2026-04-11T06:24:21.724Z</time></trkpt><trkpt lat="43.8880233" lon="8.0387033"><ele>11.8</ele><time>2026-04-11T06:24:23.724Z</time></trkpt><trkpt lat="43.8879333" lon="8.038755"><ele>12.0</ele><time>2026-04-11T06:24:25.724Z</time></trkpt><trkpt lat="43.8878217" lon="8.0387967"><ele>12.0</ele><time>2026-04-11T06:24:27.724Z</time></trkpt><trkpt lat="43.8877" lon="8.0388267"><ele>12.0</ele><time>2026-04-11T06:24:29.724Z</time></trkpt><trkpt lat="43.8876333" lon="8.0388433"><ele>12.0</ele><time>2026-04-11T06:24:30.724Z</time></trkpt><trkpt lat="43.8875283" lon="8.0389017"><ele>12.0</ele><time>2026-04-11T06:24:32.724Z</time></trkpt><trkpt lat="43.8874267" lon="8.03895"><ele>12.0</ele><time>2026-04-11T06:24:34.724Z</time></trkpt><trkpt lat="43.887335" lon="8.0390067"><ele>12.0</ele><time>2026-04-11T06:24:36.724Z</time></trkpt><trkpt lat="43.8872517" lon="8.03908"><ele>12.0</ele><time>2026-04-11T06:24:38.725Z</time></trkpt><trkpt lat="43.8871667" lon="8.0391517"><ele>12.0</ele><time>2026-04-11T06:24:40.724Z</time></trkpt><trkpt lat="43.8871017" lon="8.039215"><ele>12.0</ele><time>2026-04-11T06:24:42.724Z</time></trkpt><trkpt lat="43.8870533" lon="8.039325"><ele>12.0</ele><time>2026-04-11T06:24:44.724Z</time></trkpt><trkpt lat="43.887065" lon="8.039445"><ele>11.6</ele><time>2026-04-11T06:24:46.725Z</time></trkpt><trkpt lat="43.8871083" lon="8.0395583"><ele>11.2</ele><time>2026-04-11T06:24:48.724Z</time></trkpt><trkpt lat="43.88715" lon="8.039675"><ele>10.8</ele><time>2026-04-11T06:24:50.724Z</time></trkpt><trkpt lat="43.8872" lon="8.0397917"><ele>10.4</ele><time>2026-04-11T06:24:52.725Z</time></trkpt><trkpt lat="43.8872467" lon="8.0399033"><ele>10.0</ele><time>2026-04-11T06:24:54.724Z</time></trkpt><trkpt lat="43.8873133" lon="8.040005"><ele>10.0</ele><time>2026-04-11T06:24:56.725Z</time></trkpt><trkpt lat="43.8873633" lon="8.0401017"><ele>10.0</ele><time>2026-04-11T06:24:58.724Z</time></trkpt><trkpt lat="43.8874" lon="8.0401833"><ele>10.0</ele><time>2026-04-11T06:25:00.724Z</time></trkpt><trkpt lat="43.8874333" lon="8.04031"><ele>10.0</ele><time>2026-04-11T06:25:03.724Z</time></trkpt><trkpt lat="43.8874583" lon="8.040395"><ele>10.0</ele><time>2026-04-11T06:25:05.724Z</time></trkpt><trkpt lat="43.8874733" lon="8.0405117"><ele>10.0</ele><time>2026-04-11T06:25:08.724Z</time></trkpt><trkpt lat="43.8875067" lon="8.04059"><ele>10.0</ele><time>2026-04-11T06:25:11.724Z</time></trkpt><trkpt lat="43.88758" lon="8.040605"><ele>10.0</ele><time>2026-04-11T06:25:19.725Z</time></trkpt><trkpt lat="43.8876467" lon="8.04062"><ele>10.0</ele><time>2026-04-11T06:25:30.724Z</time></trkpt><trkpt lat="43.8876767" lon="8.04053"><ele>10.0</ele><time>2026-04-11T06:26:11.724Z</time></trkpt><trkpt lat="43.88768" lon="8.04044"><ele>10.0</ele><time>2026-04-11T06:26:19.724Z</time></trkpt><trkpt lat="43.8876883" lon="8.0405333"><ele>10.0</ele><time>2026-04-11T06:26:39.724Z</time></trkpt><trkpt lat="43.88778" lon="8.0405283"><ele>10.0</ele><time>2026-04-11T06:27:01.724Z</time></trkpt><trkpt lat="43.88772" lon="8.0405633"><ele>10.0</ele><time>2026-04-11T06:27:11.724Z</time></trkpt><trkpt lat="43.88767" lon="8.0405"><ele>10.0</ele><time>2026-04-11T06:27:18.725Z</time></trkpt><trkpt lat="43.8876433" lon="8.04042"><ele>10.0</ele><time>2026-04-11T06:27:25.724Z</time></trkpt><trkpt lat="43.887715" lon="8.0405433"><ele>10.0</ele><time>2026-04-11T06:28:10.724Z</time></trkpt><trkpt lat="43.8876867" lon="8.0406267"><ele>10.0</ele><time>2026-04-11T06:30:48.724Z</time></trkpt><trkpt lat="43.8876083" lon="8.0406367"><ele>10.0</ele><time>2026-04-11T06:31:54.725Z</time></trkpt><trkpt lat="43.887535" lon="8.0406683"><ele>10.0</ele><time>2026-04-11T06:42:38.725Z</time></trkpt><trkpt lat="43.887465" lon="8.0406933"><ele>10.0</ele><time>2026-04-11T06:42:43.725Z</time></trkpt><trkpt lat="43.8874667" lon="8.040795"><ele>10.0</ele><time>2026-04-11T06:42:47.726Z</time></trkpt><trkpt lat="43.887475" lon="8.0409217"><ele>10.0</ele><time>2026-04-11T06:42:50.725Z</time></trkpt><trkpt lat="43.8874817" lon="8.04102"><ele>10.0</ele><time>2026-04-11T06:42:52.726Z</time></trkpt><trkpt lat="43.8874883" lon="8.041125"><ele>10.0</ele><time>2026-04-11T06:42:54.725Z</time></trkpt><trkpt lat="43.8874983" lon="8.04123"><ele>9.833333333333334</ele><time>2026-04-11T06:42:56.725Z</time></trkpt><trkpt lat="43.8875067" lon="8.0413383"><ele>9.666666666666668</ele><time>2026-04-11T06:42:58.725Z</time></trkpt><trkpt lat="43.8875067" lon="8.041445"><ele>9.5</ele><time>2026-04-11T06:43:00.725Z</time></trkpt><trkpt lat="43.88751" lon="8.0415417"><ele>9.333333333333334</ele><time>2026-04-11T06:43:02.725Z</time></trkpt><trkpt lat="43.8875133" lon="8.0416317"><ele>9.166666666666666</ele><time>2026-04-11T06:43:04.725Z</time></trkpt><trkpt lat="43.8875217" lon="8.0417517"><ele>9.0</ele><time>2026-04-11T06:43:07.725Z</time></trkpt><trkpt lat="43.8875267" lon="8.0418767"><ele>9.142857142857144</ele><time>2026-04-11T06:43:10.725Z</time></trkpt><trkpt lat="43.88753" lon="8.041965"><ele>9.285714285714286</ele><time>2026-04-11T06:43:12.725Z</time></trkpt><trkpt lat="43.8875317" lon="8.0420567"><ele>9.428571428571429</ele><time>2026-04-11T06:43:14.725Z</time></trkpt><trkpt lat="43.88754" lon="8.0421467"><ele>9.571428571428573</ele><time>2026-04-11T06:43:16.725Z</time></trkpt><trkpt lat="43.88754" lon="8.042235"><ele>9.714285714285715</ele><time>2026-04-11T06:43:18.725Z</time></trkpt><trkpt lat="43.88754" lon="8.0423233"><ele>9.857142857142858</ele><time>2026-04-11T06:43:20.725Z</time></trkpt><trkpt lat="43.8875433" lon="8.0424133"><ele>10.0</ele><time>2026-04-11T06:43:22.725Z</time></trkpt><trkpt lat="43.8875517" lon="8.0425033"><ele>10.0</ele><time>2026-04-11T06:43:24.725Z</time></trkpt><trkpt lat="43.887555" lon="8.042595"><ele>10.0</ele><time>2026-04-11T06:43:26.725Z</time></trkpt><trkpt lat="43.8875567" lon="8.0426867"><ele>10.0</ele><time>2026-04-11T06:43:28.725Z</time></trkpt><trkpt lat="43.88756" lon="8.04278"><ele>10.0</ele><time>2026-04-11T06:43:30.725Z</time></trkpt><trkpt lat="43.887565" lon="8.0428733"><ele>10.0</ele><time>2026-04-11T06:43:32.725Z</time></trkpt><trkpt lat="43.8875667" lon="8.0429683"><ele>10.0</ele><time>2026-04-11T06:43:34.725Z</time></trkpt><trkpt lat="43.8875667" lon="8.0430617"><ele>10.0</ele><time>2026-04-11T06:43:36.725Z</time></trkpt><trkpt lat="43.8875717" lon="8.0431517"><ele>10.0</ele><time>2026-04-11T06:43:38.725Z</time></trkpt><trkpt lat="43.887575" lon="8.0432817"><ele>10.0</ele><time>2026-04-11T06:43:41.725Z</time></trkpt><trkpt lat="43.887575" lon="8.043375"><ele>10.0</ele><time>2026-04-11T06:43:43.725Z</time></trkpt><trkpt lat="43.8875833" lon="8.0434633"><ele>10.0</ele><time>2026-04-11T06:43:45.725Z</time></trkpt><trkpt lat="43.8875883" lon="8.0435567"><ele>10.0</ele><time>2026-04-11T06:43:47.725Z</time></trkpt><trkpt lat="43.8875967" lon="8.0436883"><ele>10.0</ele><time>2026-04-11T06:43:50.725Z</time></trkpt><trkpt lat="43.8876017" lon="8.04378"><ele>10.571428571428571</ele><time>2026-04-11T06:43:52.725Z</time></trkpt><trkpt lat="43.887605" lon="8.0438733"><ele>11.142857142857142</ele><time>2026-04-11T06:43:54.726Z</time></trkpt><trkpt lat="43.8876083" lon="8.043965"><ele>11.714285714285715</ele><time>2026-04-11T06:43:56.725Z</time></trkpt><trkpt lat="43.8876133" lon="8.0440583"><ele>12.285714285714285</ele><time>2026-04-11T06:43:58.725Z</time></trkpt><trkpt lat="43.88762" lon="8.0441533"><ele>12.857142857142858</ele><time>2026-04-11T06:44:00.725Z</time></trkpt><trkpt lat="43.8876283" lon="8.0442483"><ele>13.428571428571429</ele><time>2026-04-11T06:44:02.725Z</time></trkpt><trkpt lat="43.8876383" lon="8.0443433"><ele>14.0</ele><time>2026-04-11T06:44:04.725Z</time></trkpt><trkpt lat="43.8876467" lon="8.0444383"><ele>14.000000000000002</ele><time>2026-04-11T06:44:06.726Z</time></trkpt><trkpt lat="43.88766" lon="8.0445267"><ele>14.0</ele><time>2026-04-11T06:44:08.725Z</time></trkpt><trkpt lat="43.887685" lon="8.044655"><ele>14.0</ele><time>2026-04-11T06:44:11.725Z</time></trkpt><trkpt lat="43.887695" lon="8.0447417"><ele>14.0</ele><time>2026-04-11T06:44:13.726Z</time></trkpt><trkpt lat="43.8877067" lon="8.0448283"><ele>14.000000000000002</ele><time>2026-04-11T06:44:15.725Z</time></trkpt><trkpt lat="43.8877117" lon="8.0449583"><ele>14.0</ele><time>2026-04-11T06:44:18.725Z</time></trkpt><trkpt lat="43.88772" lon="8.0450733"><ele>13.666666666666668</ele><time>2026-04-11T06:44:21.725Z</time></trkpt><trkpt lat="43.8877567" lon="8.045185"><ele>13.333333333333334</ele><time>2026-04-11T06:44:24.725Z</time></trkpt><trkpt lat="43.8878017" lon="8.0452933"><ele>13.0</ele><time>2026-04-11T06:44:27.725Z</time></trkpt><trkpt lat="43.88782" lon="8.0454133"><ele>12.666666666666668</ele><time>2026-04-11T06:44:30.725Z</time></trkpt><trkpt lat="43.8878133" lon="8.0455017"><ele>12.333333333333334</ele><time>2026-04-11T06:44:32.725Z</time></trkpt><trkpt lat="43.88781" lon="8.0456017"><ele>12.0</ele><time>2026-04-11T06:44:34.725Z</time></trkpt><trkpt lat="43.8878083" lon="8.0457"><ele>12.142857142857142</ele><time>2026-04-11T06:44:36.725Z</time></trkpt><trkpt lat="43.887805" lon="8.0457983"><ele>12.285714285714285</ele><time>2026-04-11T06:44:38.725Z</time></trkpt><trkpt lat="43.8877983" lon="8.0458883"><ele>12.428571428571427</ele><time>2026-04-11T06:44:40.726Z</time></trkpt><trkpt lat="43.88781" lon="8.0460083"><ele>12.571428571428571</ele><time>2026-04-11T06:44:43.725Z</time></trkpt><trkpt lat="43.887815" lon="8.046135"><ele>12.714285714285715</ele><time>2026-04-11T06:44:46.725Z</time></trkpt><trkpt lat="43.8878167" lon="8.0462233"><ele>12.857142857142856</ele><time>2026-04-11T06:44:48.725Z</time></trkpt><trkpt lat="43.88782" lon="8.0463133"><ele>13.0</ele><time>2026-04-11T06:44:50.726Z</time></trkpt><trkpt lat="43.8878583" lon="8.046415"><ele>13.0</ele><time>2026-04-11T06:44:53.725Z</time></trkpt><trkpt lat="43.8879217" lon="8.046455"><ele>13.0</ele><time>2026-04-11T06:44:55.726Z</time></trkpt><trkpt lat="43.887985" lon="8.0464833"><ele>13.0</ele><time>2026-04-11T06:44:57.725Z</time></trkpt><trkpt lat="43.8880667" lon="8.0465017"><ele>13.0</ele><time>2026-04-11T06:45:00.725Z</time></trkpt><trkpt lat="43.8881333" lon="8.0465167"><ele>13.0</ele><time>2026-04-11T06:45:03.725Z</time></trkpt><trkpt lat="43.8881983" lon="8.0465233"><ele>13.0</ele><time>2026-04-11T06:45:07.725Z</time></trkpt><trkpt lat="43.8882767" lon="8.0465283"><ele>13.0</ele><time>2026-04-11T06:45:11.725Z</time></trkpt><trkpt lat="43.8883567" lon="8.0464967"><ele>12.999999999999998</ele><time>2026-04-11T06:45:14.725Z</time></trkpt><trkpt lat="43.8883867" lon="8.0463733"><ele>13.0</ele><time>2026-04-11T06:45:17.725Z</time></trkpt><trkpt lat="43.8884033" lon="8.0462667"><ele>13.0</ele><time>2026-04-11T06:45:19.725Z</time></trkpt><trkpt lat="43.8884217" lon="8.046155"><ele>13.0</ele><time>2026-04-11T06:45:21.725Z</time></trkpt><trkpt lat="43.8884417" lon="8.0460417"><ele>12.999999999999998</ele><time>2026-04-11T06:45:23.725Z</time></trkpt><trkpt lat="43.8884633" lon="8.0459283"><ele>13.0</ele><time>2026-04-11T06:45:25.726Z</time></trkpt><trkpt lat="43.8884983" lon="8.0458267"><ele>13.999999999999998</ele><time>2026-04-11T06:45:27.725Z</time></trkpt><trkpt lat="43.8885233" lon="8.0457317"><ele>15.0</ele><time>2026-04-11T06:45:29.725Z</time></trkpt><trkpt lat="43.8885617" lon="8.045655"><ele>16.0</ele><time>2026-04-11T06:45:31.725Z</time></trkpt><trkpt lat="43.8886133" lon="8.0456033"><ele>17.0</ele><time>2026-04-11T06:45:33.725Z</time></trkpt><trkpt lat="43.8887017" lon="8.0455967"><ele>18.0</ele><time>2026-04-11T06:45:36.725Z</time></trkpt><trkpt lat="43.88877" lon="8.04565"><ele>19.0</ele><time>2026-04-11T06:45:38.726Z</time></trkpt><trkpt lat="43.8888433" lon="8.0457133"><ele>19.0</ele><time>2026-04-11T06:45:40.725Z</time></trkpt><trkpt lat="43.8889183" lon="8.0457617"><ele>19.0</ele><time>2026-04-11T06:45:42.725Z</time></trkpt><trkpt lat="43.8889917" lon="8.0457717"><ele>19.0</ele><time>2026-04-11T06:45:44.725Z</time></trkpt><trkpt lat="43.889055" lon="8.045755"><ele>19.0</ele><time>2026-04-11T06:45:46.726Z</time></trkpt><trkpt lat="43.8891133" lon="8.0457117"><ele>19.0</ele><time>2026-04-11T06:45:48.725Z</time></trkpt><trkpt lat="43.88917" lon="8.0456633"><ele>19.0</ele><time>2026-04-11T06:45:50.725Z</time></trkpt><trkpt lat="43.889225" lon="8.04561"><ele>19.0</ele><time>2026-04-11T06:45:52.725Z</time></trkpt><trkpt lat="43.8892933" lon="8.0455267"><ele>21.333333333333332</ele><time>2026-04-11T06:45:55.725Z</time></trkpt><trkpt lat="43.8893217" lon="8.0454267"><ele>23.666666666666664</ele><time>2026-04-11T06:45:58.725Z</time></trkpt><trkpt lat="43.8893217" lon="8.0452967"><ele>26.0</ele><time>2026-04-11T06:46:01.726Z</time></trkpt><trkpt lat="43.889315" lon="8.04517"><ele>28.333333333333332</ele><time>2026-04-11T06:46:04.725Z</time></trkpt><trkpt lat="43.8893133" lon="8.0450467"><ele>30.666666666666668</ele><time>2026-04-11T06:46:07.725Z</time></trkpt><trkpt lat="43.88932" lon="8.0449183"><ele>33.0</ele><time>2026-04-11T06:46:10.725Z</time></trkpt><trkpt lat="43.8893133" lon="8.0448017"><ele>33.285714285714285</ele><time>2026-04-11T06:46:13.726Z</time></trkpt><trkpt lat="43.8893217" lon="8.0446733"><ele>33.57142857142857</ele><time>2026-04-11T06:46:16.725Z</time></trkpt><trkpt lat="43.8893217" lon="8.0445767"><ele>33.85714285714286</ele><time>2026-04-11T06:46:18.725Z</time></trkpt><trkpt lat="43.8893233" lon="8.0444783"><ele>34.14285714285714</ele><time>2026-04-11T06:46:20.725Z</time></trkpt><trkpt lat="43.8893267" lon="8.0443817"><ele>34.42857142857143</ele><time>2026-04-11T06:46:22.726Z</time></trkpt><trkpt lat="43.88934" lon="8.0442833"><ele>34.714285714285715</ele><time>2026-04-11T06:46:24.725Z</time></trkpt><trkpt lat="43.8893583" lon="8.044185"><ele>35.0</ele><time>2026-04-11T06:46:26.725Z</time></trkpt><trkpt lat="43.88938" lon="8.0440867"><ele>33.5</ele><time>2026-04-11T06:46:28.725Z</time></trkpt><trkpt lat="43.8894" lon="8.0439983"><ele>32.0</ele><time>2026-04-11T06:46:30.725Z</time></trkpt><trkpt lat="43.8894233" lon="8.0439133"><ele>30.5</ele><time>2026-04-11T06:46:32.725Z</time></trkpt><trkpt lat="43.889455" lon="8.0437917"><ele>29.0</ele><time>2026-04-11T06:46:35.725Z</time></trkpt><trkpt lat="43.8894767" lon="8.0436667"><ele>27.499999999999996</ele><time>2026-04-11T06:46:38.725Z</time></trkpt><trkpt lat="43.8895317" lon="8.0435733"><ele>26.0</ele><time>2026-04-11T06:46:41.725Z</time></trkpt><trkpt lat="43.8896233" lon="8.043555"><ele>26.0</ele><time>2026-04-11T06:46:44.725Z</time></trkpt><trkpt lat="43.8896867" lon="8.0435317"><ele>26.0</ele><time>2026-04-11T06:46:46.725Z</time></trkpt><trkpt lat="43.8897733" lon="8.0434833"><ele>26.0</ele><time>2026-04-11T06:46:49.725Z</time></trkpt><trkpt lat="43.889855" lon="8.0434433"><ele>26.0</ele><time>2026-04-11T06:46:52.725Z</time></trkpt><trkpt lat="43.8899133" lon="8.0434067"><ele>26.0</ele><time>2026-04-11T06:46:54.725Z</time></trkpt><trkpt lat="43.8899783" lon="8.043375"><ele>26.0</ele><time>2026-04-11T06:46:56.725Z</time></trkpt><trkpt lat="43.8900417" lon="8.04335"><ele>26.0</ele><time>2026-04-11T06:46:58.726Z</time></trkpt><trkpt lat="43.89011" lon="8.0433233"><ele>25.71428571428571</ele><time>2026-04-11T06:47:00.726Z</time></trkpt><trkpt lat="43.8901767" lon="8.0432967"><ele>25.42857142857143</ele><time>2026-04-11T06:47:02.725Z</time></trkpt><trkpt lat="43.890245" lon="8.0432733"><ele>25.142857142857142</ele><time>2026-04-11T06:47:04.725Z</time></trkpt><trkpt lat="43.890315" lon="8.0432417"><ele>24.857142857142854</ele><time>2026-04-11T06:47:06.725Z</time></trkpt><trkpt lat="43.8903883" lon="8.0432117"><ele>24.57142857142857</ele><time>2026-04-11T06:47:08.725Z</time></trkpt><trkpt lat="43.890455" lon="8.04318"><ele>24.285714285714285</ele><time>2026-04-11T06:47:10.726Z</time></trkpt><trkpt lat="43.89052" lon="8.043155"><ele>24.0</ele><time>2026-04-11T06:47:12.725Z</time></trkpt><trkpt lat="43.89059" lon="8.0431417"><ele>23.999999999999996</ele><time>2026-04-11T06:47:14.725Z</time></trkpt><trkpt lat="43.8906567" lon="8.04313"><ele>24.0</ele><time>2026-04-11T06:47:16.725Z</time></trkpt><trkpt lat="43.890725" lon="8.0431233"><ele>24.0</ele><time>2026-04-11T06:47:18.725Z</time></trkpt><trkpt lat="43.8907917" lon="8.0431117"><ele>24.0</ele><time>2026-04-11T06:47:20.725Z</time></trkpt><trkpt lat="43.8908583" lon="8.0431017"><ele>24.0</ele><time>2026-04-11T06:47:22.726Z</time></trkpt><trkpt lat="43.8909283" lon="8.0430917"><ele>23.999999999999996</ele><time>2026-04-11T06:47:24.725Z</time></trkpt><trkpt lat="43.8909983" lon="8.0430867"><ele>24.0</ele><time>2026-04-11T06:47:26.725Z</time></trkpt><trkpt lat="43.8910667" lon="8.0430817"><ele>25.333333333333332</ele><time>2026-04-11T06:47:28.725Z</time></trkpt><trkpt lat="43.8911333" lon="8.043075"><ele>26.666666666666664</ele><time>2026-04-11T06:47:30.725Z</time></trkpt><trkpt lat="43.8912" lon="8.0430567"><ele>28.0</ele><time>2026-04-11T06:47:32.725Z</time></trkpt><trkpt lat="43.891265" lon="8.04304"><ele>29.333333333333332</ele><time>2026-04-11T06:47:34.725Z</time></trkpt><trkpt lat="43.891355" lon="8.0430083"><ele>30.666666666666664</ele><time>2026-04-11T06:47:37.725Z</time></trkpt><trkpt lat="43.891445" lon="8.042975"><ele>32.0</ele><time>2026-04-11T06:47:40.725Z</time></trkpt><trkpt lat="43.891505" lon="8.0429483"><ele>32.0</ele><time>2026-04-11T06:47:42.725Z</time></trkpt><trkpt lat="43.8914967" lon="8.0430583"><ele>31.999999999999996</ele><time>2026-04-11T06:47:49.725Z</time></trkpt><trkpt lat="43.89145" lon="8.0431183"><ele>32.0</ele><time>2026-04-11T06:47:51.725Z</time></trkpt><trkpt lat="43.8914033" lon="8.043185"><ele>32.0</ele><time>2026-04-11T06:47:53.725Z</time></trkpt><trkpt lat="43.891335" lon="8.043275"><ele>31.999999999999996</ele><time>2026-04-11T06:47:56.724Z</time></trkpt><trkpt lat="43.8912733" lon="8.04332"><ele>32.0</ele><time>2026-04-11T06:47:58.725Z</time></trkpt><trkpt lat="43.89121" lon="8.043355"><ele>32.0</ele><time>2026-04-11T06:48:00.724Z</time></trkpt><trkpt lat="43.8911483" lon="8.0434017"><ele>33.0</ele><time>2026-04-11T06:48:02.725Z</time></trkpt><trkpt lat="43.8910683" lon="8.0434433"><ele>34.0</ele><time>2026-04-11T06:48:04.725Z</time></trkpt><trkpt lat="43.8909917" lon="8.043485"><ele>35.0</ele><time>2026-04-11T06:48:06.724Z</time></trkpt><trkpt lat="43.8909333" lon="8.0435383"><ele>36.0</ele><time>2026-04-11T06:48:08.724Z</time></trkpt><trkpt lat="43.8908733" lon="8.0435983"><ele>37.0</ele><time>2026-04-11T06:48:10.724Z</time></trkpt><trkpt lat="43.890815" lon="8.0436583"><ele>38.0</ele><time>2026-04-11T06:48:12.724Z</time></trkpt><trkpt lat="43.8907617" lon="8.0437117"><ele>38.0</ele><time>2026-04-11T06:48:14.724Z</time></trkpt><trkpt lat="43.8907017" lon="8.0438117"><ele>38.0</ele><time>2026-04-11T06:48:17.724Z</time></trkpt><trkpt lat="43.8906417" lon="8.0439033"><ele>38.0</ele><time>2026-04-11T06:48:20.724Z</time></trkpt><trkpt lat="43.8905717" lon="8.0439867"><ele>38.0</ele><time>2026-04-11T06:48:23.724Z</time></trkpt><trkpt lat="43.890515" lon="8.0440433"><ele>38.0</ele><time>2026-04-11T06:48:25.724Z</time></trkpt><trkpt lat="43.8904567" lon="8.0441417"><ele>38.0</ele><time>2026-04-11T06:48:28.724Z</time></trkpt><trkpt lat="43.890415" lon="8.0442433"><ele>39.33333333333333</ele><time>2026-04-11T06:48:31.724Z</time></trkpt><trkpt lat="43.8903767" lon="8.0443717"><ele>40.666666666666664</ele><time>2026-04-11T06:48:34.725Z</time></trkpt><trkpt lat="43.8903717" lon="8.0444667"><ele>42.0</ele><time>2026-04-11T06:48:36.724Z</time></trkpt><trkpt lat="43.89041" lon="8.0445683"><ele>43.333333333333336</ele><time>2026-04-11T06:48:39.724Z</time></trkpt><trkpt lat="43.890495" lon="8.044615"><ele>44.66666666666667</ele><time>2026-04-11T06:48:42.724Z</time></trkpt><trkpt lat="43.8905717" lon="8.0446233"><ele>46.0</ele><time>2026-04-11T06:48:45.724Z</time></trkpt><trkpt lat="43.8906483" lon="8.044635"><ele>46.0</ele><time>2026-04-11T06:48:48.724Z</time></trkpt><trkpt lat="43.8907317" lon="8.04465"><ele>46.0</ele><time>2026-04-11T06:48:51.724Z</time></trkpt><trkpt lat="43.8908133" lon="8.044665"><ele>46.0</ele><time>2026-04-11T06:48:54.725Z</time></trkpt><trkpt lat="43.890885" lon="8.044665"><ele>46.0</ele><time>2026-04-11T06:48:56.724Z</time></trkpt><trkpt lat="43.8909483" lon="8.0446583"><ele>46.0</ele><time>2026-04-11T06:48:58.724Z</time></trkpt><trkpt lat="43.8910317" lon="8.0446217"><ele>46.0</ele><time>2026-04-11T06:49:01.724Z</time></trkpt><trkpt lat="43.8911117" lon="8.0445783"><ele>47.5</ele><time>2026-04-11T06:49:04.724Z</time></trkpt><trkpt lat="43.891195" lon="8.0445333"><ele>49.0</ele><time>2026-04-11T06:49:07.724Z</time></trkpt><trkpt lat="43.8912517" lon="8.044495"><ele>50.5</ele><time>2026-04-11T06:49:09.725Z</time></trkpt><trkpt lat="43.8913117" lon="8.0444633"><ele>52.0</ele><time>2026-04-11T06:49:11.725Z</time></trkpt><trkpt lat="43.8913983" lon="8.044415"><ele>53.49999999999999</ele><time>2026-04-11T06:49:14.724Z</time></trkpt><trkpt lat="43.89148" lon="8.04439"><ele>55.0</ele><time>2026-04-11T06:49:17.724Z</time></trkpt><trkpt lat="43.8915567" lon="8.044355"><ele>54.99999999999999</ele><time>2026-04-11T06:49:20.724Z</time></trkpt><trkpt lat="43.8916383" lon="8.04431"><ele>55.0</ele><time>2026-04-11T06:49:23.724Z</time></trkpt><trkpt lat="43.891725" lon="8.0442767"><ele>55.0</ele><time>2026-04-11T06:49:26.724Z</time></trkpt><trkpt lat="43.8918117" lon="8.0442733"><ele>55.0</ele><time>2026-04-11T06:49:29.724Z</time></trkpt><trkpt lat="43.8918917" lon="8.0442917"><ele>54.99999999999999</ele><time>2026-04-11T06:49:32.724Z</time></trkpt><trkpt lat="43.89198" lon="8.0443183"><ele>55.0</ele><time>2026-04-11T06:49:35.724Z</time></trkpt><trkpt lat="43.892075" lon="8.04434"><ele>56.166666666666664</ele><time>2026-04-11T06:49:38.724Z</time></trkpt><trkpt lat="43.8921383" lon="8.0443417"><ele>57.33333333333333</ele><time>2026-04-11T06:49:40.724Z</time></trkpt><trkpt lat="43.8922217" lon="8.044325"><ele>58.5</ele><time>2026-04-11T06:49:43.724Z</time></trkpt><trkpt lat="43.8923017" lon="8.0442917"><ele>59.66666666666667</ele><time>2026-04-11T06:49:46.724Z</time></trkpt><trkpt lat="43.8923867" lon="8.04426"><ele>60.833333333333336</ele><time>2026-04-11T06:49:49.724Z</time></trkpt><trkpt lat="43.8924617" lon="8.044215"><ele>62.0</ele><time>2026-04-11T06:49:52.724Z</time></trkpt><trkpt lat="43.892535" lon="8.0441583"><ele>61.833333333333336</ele><time>2026-04-11T06:49:55.724Z</time></trkpt><trkpt lat="43.8926017" lon="8.0440867"><ele>61.66666666666667</ele><time>2026-04-11T06:49:58.724Z</time></trkpt><trkpt lat="43.8926617" lon="8.0440067"><ele>61.5</ele><time>2026-04-11T06:50:01.724Z</time></trkpt><trkpt lat="43.8927317" lon="8.0439617"><ele>61.33333333333333</ele><time>2026-04-11T06:50:04.724Z</time></trkpt><trkpt lat="43.8928117" lon="8.0439517"><ele>61.166666666666664</ele><time>2026-04-11T06:50:07.725Z</time></trkpt><trkpt lat="43.89289" lon="8.0439583"><ele>61.0</ele><time>2026-04-11T06:50:10.725Z</time></trkpt><trkpt lat="43.8929683" lon="8.04399"><ele>60.99999999999999</ele><time>2026-04-11T06:50:13.724Z</time></trkpt><trkpt lat="43.8930433" lon="8.0440483"><ele>61.0</ele><time>2026-04-11T06:50:16.724Z</time></trkpt><trkpt lat="43.8931117" lon="8.0440917"><ele>61.0</ele><time>2026-04-11T06:50:19.724Z</time></trkpt><trkpt lat="43.8931883" lon="8.0441283"><ele>61.0</ele><time>2026-04-11T06:50:22.724Z</time></trkpt><trkpt lat="43.8932617" lon="8.0441567"><ele>60.99999999999999</ele><time>2026-04-11T06:50:25.724Z</time></trkpt><trkpt lat="43.893335" lon="8.0441883"><ele>61.0</ele><time>2026-04-11T06:50:28.724Z</time></trkpt><trkpt lat="43.8934083" lon="8.0442183"><ele>63.428571428571416</ele><time>2026-04-11T06:50:31.724Z</time></trkpt><trkpt lat="43.89348" lon="8.0442333"><ele>65.85714285714286</ele><time>2026-04-11T06:50:34.724Z</time></trkpt><trkpt lat="43.893545" lon="8.04424"><ele>68.28571428571428</ele><time>2026-04-11T06:50:37.724Z</time></trkpt><trkpt lat="43.8936167" lon="8.0442283"><ele>70.71428571428571</ele><time>2026-04-11T06:50:40.724Z</time></trkpt><trkpt lat="43.89369" lon="8.0442217"><ele>73.14285714285714</ele><time>2026-04-11T06:50:43.724Z</time></trkpt><trkpt lat="43.8937633" lon="8.0442333"><ele>75.57142857142857</ele><time>2026-04-11T06:50:46.724Z</time></trkpt><trkpt lat="43.8938417" lon="8.0442367"><ele>78.0</ele><time>2026-04-11T06:50:49.725Z</time></trkpt><trkpt lat="43.89392" lon="8.0442533"><ele>78.0</ele><time>2026-04-11T06:50:52.725Z</time></trkpt><trkpt lat="43.8939967" lon="8.0442717"><ele>78.0</ele><time>2026-04-11T06:50:55.724Z</time></trkpt><trkpt lat="43.894065" lon="8.0442833"><ele>78.0</ele><time>2026-04-11T06:50:58.724Z</time></trkpt><trkpt lat="43.8941417" lon="8.04429"><ele>78.0</ele><time>2026-04-11T06:51:01.725Z</time></trkpt><trkpt lat="43.894215" lon="8.0443117"><ele>78.0</ele><time>2026-04-11T06:51:04.724Z</time></trkpt><trkpt lat="43.89429" lon="8.044345"><ele>78.0</ele><time>2026-04-11T06:51:07.724Z</time></trkpt><trkpt lat="43.8943517" lon="8.0443683"><ele>78.0</ele><time>2026-04-11T06:51:09.725Z</time></trkpt><trkpt lat="43.8944117" lon="8.0443967"><ele>78.5</ele><time>2026-04-11T06:51:11.724Z</time></trkpt><trkpt lat="43.8944733" lon="8.0444267"><ele>79.0</ele><time>2026-04-11T06:51:13.724Z</time></trkpt><trkpt lat="43.8945533" lon="8.0444467"><ele>79.5</ele><time>2026-04-11T06:51:16.724Z</time></trkpt><trkpt lat="43.894625" lon="8.0444767"><ele>80.0</ele><time>2026-04-11T06:51:19.724Z</time></trkpt><trkpt lat="43.8946983" lon="8.0444983"><ele>80.5</ele><time>2026-04-11T06:51:23.724Z</time></trkpt><trkpt lat="43.8947817" lon="8.044515"><ele>81.0</ele><time>2026-04-11T06:51:28.724Z</time></trkpt><trkpt lat="43.8948517" lon="8.0444967"><ele>81.0</ele><time>2026-04-11T06:51:31.724Z</time></trkpt><trkpt lat="43.894925" lon="8.0445267"><ele>81.0</ele><time>2026-04-11T06:51:35.725Z</time></trkpt><trkpt lat="43.89499" lon="8.0445433"><ele>81.0</ele><time>2026-04-11T06:51:39.724Z</time></trkpt><trkpt lat="43.8950617" lon="8.0445583"><ele>81.0</ele><time>2026-04-11T06:51:43.724Z</time></trkpt><trkpt lat="43.8951367" lon="8.044555"><ele>81.0</ele><time>2026-04-11T06:51:46.724Z</time></trkpt><trkpt lat="43.8952267" lon="8.044555"><ele>81.0</ele><time>2026-04-11T06:51:49.724Z</time></trkpt><trkpt lat="43.8952917" lon="8.0445617"><ele>81.0</ele><time>2026-04-11T06:51:51.724Z</time></trkpt><trkpt lat="43.8953567" lon="8.04457"><ele>81.83333333333333</ele><time>2026-04-11T06:51:53.724Z</time></trkpt><trkpt lat="43.8954217" lon="8.0445767"><ele>82.66666666666667</ele><time>2026-04-11T06:51:55.724Z</time></trkpt><trkpt lat="43.8954867" lon="8.04459"><ele>83.5</ele><time>2026-04-11T06:51:57.724Z</time></trkpt><trkpt lat="43.8955533" lon="8.0446"><ele>84.33333333333334</ele><time>2026-04-11T06:51:59.724Z</time></trkpt><trkpt lat="43.895645" lon="8.0446117"><ele>85.16666666666667</ele><time>2026-04-11T06:52:02.724Z</time></trkpt><trkpt lat="43.8957367" lon="8.0446217"><ele>86.0</ele><time>2026-04-11T06:52:05.724Z</time></trkpt><trkpt lat="43.8958183" lon="8.0446317"><ele>86.33333333333334</ele><time>2026-04-11T06:52:08.724Z</time></trkpt><trkpt lat="43.8959233" lon="8.0446033"><ele>86.66666666666667</ele><time>2026-04-11T06:52:11.724Z</time></trkpt><trkpt lat="43.8960133" lon="8.0446167"><ele>87.0</ele><time>2026-04-11T06:52:14.724Z</time></trkpt><trkpt lat="43.896075" lon="8.0446367"><ele>87.33333333333333</ele><time>2026-04-11T06:52:16.724Z</time></trkpt><trkpt lat="43.896165" lon="8.0446633"><ele>87.66666666666666</ele><time>2026-04-11T06:52:19.725Z</time></trkpt><trkpt lat="43.8962533" lon="8.0446933"><ele>88.0</ele><time>2026-04-11T06:52:22.724Z</time></trkpt><trkpt lat="43.8963367" lon="8.0446983"><ele>88.0</ele><time>2026-04-11T06:52:25.724Z</time></trkpt><trkpt lat="43.8964217" lon="8.0447283"><ele>88.0</ele><time>2026-04-11T06:52:28.724Z</time></trkpt><trkpt lat="43.89651" lon="8.044755"><ele>88.0</ele><time>2026-04-11T06:52:31.724Z</time></trkpt><trkpt lat="43.8966017" lon="8.0447567"><ele>88.0</ele><time>2026-04-11T06:52:34.724Z</time></trkpt><trkpt lat="43.8966933" lon="8.0447283"><ele>88.0</ele><time>2026-04-11T06:52:37.724Z</time></trkpt><trkpt lat="43.89678" lon="8.0446833"><ele>90.60000000000001</ele><time>2026-04-11T06:52:40.724Z</time></trkpt><trkpt lat="43.896865" lon="8.0446267"><ele>93.2</ele><time>2026-04-11T06:52:43.724Z</time></trkpt><trkpt lat="43.896955" lon="8.044605"><ele>95.8</ele><time>2026-04-11T06:52:46.724Z</time></trkpt><trkpt lat="43.8970467" lon="8.0445867"><ele>98.4</ele><time>2026-04-11T06:52:49.724Z</time></trkpt><trkpt lat="43.897135" lon="8.0445583"><ele>101.0</ele><time>2026-04-11T06:52:52.724Z</time></trkpt><trkpt lat="43.8972117" lon="8.044515"><ele>100.99999999999999</ele><time>2026-04-11T06:52:55.724Z</time></trkpt><trkpt lat="43.89728" lon="8.0444733"><ele>101.0</ele><time>2026-04-11T06:52:58.724Z</time></trkpt><trkpt lat="43.897345" lon="8.0444167"><ele>101.0</ele><time>2026-04-11T06:53:01.724Z</time></trkpt><trkpt lat="43.8974067" lon="8.044345"><ele>101.0</ele><time>2026-04-11T06:53:04.724Z</time></trkpt><trkpt lat="43.8974733" lon="8.0442833"><ele>100.99999999999999</ele><time>2026-04-11T06:53:07.725Z</time></trkpt><trkpt lat="43.89754" lon="8.0442167"><ele>101.0</ele><time>2026-04-11T06:53:10.724Z</time></trkpt><trkpt lat="43.8976" lon="8.044145"><ele>101.66666666666666</ele><time>2026-04-11T06:53:13.725Z</time></trkpt><trkpt lat="43.89764" lon="8.0440717"><ele>102.33333333333333</ele><time>2026-04-11T06:53:15.724Z</time></trkpt><trkpt lat="43.8976767" lon="8.043995"><ele>103.0</ele><time>2026-04-11T06:53:17.724Z</time></trkpt><trkpt lat="43.8977183" lon="8.0438867"><ele>103.66666666666666</ele><time>2026-04-11T06:53:20.724Z</time></trkpt><trkpt lat="43.89775" lon="8.0437883"><ele>104.33333333333333</ele><time>2026-04-11T06:53:23.724Z</time></trkpt><trkpt lat="43.8977833" lon="8.04368"><ele>105.0</ele><time>2026-04-11T06:53:26.724Z</time></trkpt><trkpt lat="43.8977883" lon="8.0435717"><ele>105.0</ele><time>2026-04-11T06:53:29.724Z</time></trkpt><trkpt lat="43.8978067" lon="8.043455"><ele>105.0</ele><time>2026-04-11T06:53:32.724Z</time></trkpt><trkpt lat="43.897855" lon="8.0433467"><ele>105.0</ele><time>2026-04-11T06:53:35.724Z</time></trkpt><trkpt lat="43.8979217" lon="8.0432633"><ele>105.0</ele><time>2026-04-11T06:53:38.725Z</time></trkpt><trkpt lat="43.897995" lon="8.043215"><ele>105.0</ele><time>2026-04-11T06:53:41.724Z</time></trkpt><trkpt lat="43.8980633" lon="8.043215"><ele>105.0</ele><time>2026-04-11T06:53:43.725Z</time></trkpt><trkpt lat="43.8981283" lon="8.0432467"><ele>105.0</ele><time>2026-04-11T06:53:45.724Z</time></trkpt><trkpt lat="43.8981833" lon="8.0433333"><ele>105.0</ele><time>2026-04-11T06:53:48.724Z</time></trkpt><trkpt lat="43.8982233" lon="8.0434383"><ele>105.0</ele><time>2026-04-11T06:53:51.724Z</time></trkpt><trkpt lat="43.8982667" lon="8.043555"><ele>105.0</ele><time>2026-04-11T06:53:54.724Z</time></trkpt><trkpt lat="43.8983" lon="8.0436717"><ele>105.0</ele><time>2026-04-11T06:53:57.724Z</time></trkpt><trkpt lat="43.8983433" lon="8.0437783"><ele>105.0</ele><time>2026-04-11T06:54:00.724Z</time></trkpt><trkpt lat="43.8984083" lon="8.0438517"><ele>104.16666666666667</ele><time>2026-04-11T06:54:03.724Z</time></trkpt><trkpt lat="43.8984833" lon="8.04388"><ele>103.33333333333334</ele><time>2026-04-11T06:54:06.724Z</time></trkpt><trkpt lat="43.8985717" lon="8.0438817"><ele>102.5</ele><time>2026-04-11T06:54:09.724Z</time></trkpt><trkpt lat="43.8986367" lon="8.0438867"><ele>101.66666666666667</ele><time>2026-04-11T06:54:11.724Z</time></trkpt><trkpt lat="43.8987033" lon="8.0438883"><ele>100.83333333333334</ele><time>2026-04-11T06:54:13.725Z</time></trkpt><trkpt lat="43.8987917" lon="8.043875"><ele>100.0</ele><time>2026-04-11T06:54:16.724Z</time></trkpt><trkpt lat="43.8988733" lon="8.0438633"><ele>100.00000000000001</ele><time>2026-04-11T06:54:19.725Z</time></trkpt><trkpt lat="43.898955" lon="8.043825"><ele>100.0</ele><time>2026-04-11T06:54:22.724Z</time></trkpt><trkpt lat="43.89902" lon="8.0437933"><ele>100.0</ele><time>2026-04-11T06:54:25.724Z</time></trkpt><trkpt lat="43.8990933" lon="8.0437583"><ele>100.0</ele><time>2026-04-11T06:54:28.724Z</time></trkpt><trkpt lat="43.8990633" lon="8.043845"><ele>100.00000000000001</ele><time>2026-04-11T06:54:33.724Z</time></trkpt><trkpt lat="43.8990067" lon="8.0438833"><ele>100.0</ele><time>2026-04-11T06:54:35.724Z</time></trkpt><trkpt lat="43.8989267" lon="8.043945"><ele>100.00000000000001</ele><time>2026-04-11T06:54:38.724Z</time></trkpt><trkpt lat="43.8988467" lon="8.0440033"><ele>100.0</ele><time>2026-04-11T06:54:41.724Z</time></trkpt><trkpt lat="43.898785" lon="8.0440733"><ele>100.0</ele><time>2026-04-11T06:54:44.724Z</time></trkpt><trkpt lat="43.8987367" lon="8.0441483"><ele>100.0</ele><time>2026-04-11T06:54:47.725Z</time></trkpt><trkpt lat="43.8986883" lon="8.0442317"><ele>100.00000000000001</ele><time>2026-04-11T06:54:50.724Z</time></trkpt><trkpt lat="43.8986267" lon="8.0442967"><ele>100.0</ele><time>2026-04-11T06:54:53.725Z</time></trkpt><trkpt lat="43.8985683" lon="8.0443467"><ele>102.83333333333334</ele><time>2026-04-11T06:54:56.724Z</time></trkpt><trkpt lat="43.89851" lon="8.0443917"><ele>105.66666666666667</ele><time>2026-04-11T06:54:59.724Z</time></trkpt><trkpt lat="43.8984467" lon="8.0444033"><ele>108.5</ele><time>2026-04-11T06:55:01.724Z</time></trkpt><trkpt lat="43.8983533" lon="8.0444133"><ele>111.33333333333334</ele><time>2026-04-11T06:55:04.724Z</time></trkpt><trkpt lat="43.8982733" lon="8.04446"><ele>114.16666666666667</ele><time>2026-04-11T06:55:07.725Z</time></trkpt><trkpt lat="43.8981883" lon="8.0445"><ele>117.0</ele><time>2026-04-11T06:55:10.724Z</time></trkpt><trkpt lat="43.8981033" lon="8.0445467"><ele>117.0</ele><time>2026-04-11T06:55:13.724Z</time></trkpt><trkpt lat="43.8980233" lon="8.0445983"><ele>117.0</ele><time>2026-04-11T06:55:16.724Z</time></trkpt><trkpt lat="43.8979467" lon="8.044665"><ele>117.0</ele><time>2026-04-11T06:55:19.724Z</time></trkpt><trkpt lat="43.8978817" lon="8.0447483"><ele>117.0</ele><time>2026-04-11T06:55:22.724Z</time></trkpt><trkpt lat="43.8978483" lon="8.04486"><ele>117.0</ele><time>2026-04-11T06:55:25.724Z</time></trkpt><trkpt lat="43.897855" lon="8.04498"><ele>117.0</ele><time>2026-04-11T06:55:28.724Z</time></trkpt><trkpt lat="43.897865" lon="8.0450933"><ele>119.33333333333333</ele><time>2026-04-11T06:55:31.724Z</time></trkpt><trkpt lat="43.8978667" lon="8.0452"><ele>121.66666666666666</ele><time>2026-04-11T06:55:34.725Z</time></trkpt><trkpt lat="43.897865" lon="8.0453083"><ele>124.0</ele><time>2026-04-11T06:55:37.724Z</time></trkpt><trkpt lat="43.8978667" lon="8.0454167"><ele>126.33333333333333</ele><time>2026-04-11T06:55:40.724Z</time></trkpt><trkpt lat="43.8978883" lon="8.0455183"><ele>128.66666666666666</ele><time>2026-04-11T06:55:43.724Z</time></trkpt><trkpt lat="43.897915" lon="8.04562"><ele>131.0</ele><time>2026-04-11T06:55:46.725Z</time></trkpt><trkpt lat="43.89795" lon="8.0457233"><ele>132.5</ele><time>2026-04-11T06:55:49.724Z</time></trkpt><trkpt lat="43.8979767" lon="8.0458167"><ele>134.0</ele><time>2026-04-11T06:55:52.724Z</time></trkpt><trkpt lat="43.8980083" lon="8.04591"><ele>135.5</ele><time>2026-04-11T06:55:55.724Z</time></trkpt><trkpt lat="43.8980433" lon="8.0459983"><ele>137.0</ele><time>2026-04-11T06:55:58.724Z</time></trkpt><trkpt lat="43.8980883" lon="8.046085"><ele>138.5</ele><time>2026-04-11T06:56:01.724Z</time></trkpt><trkpt lat="43.8981383" lon="8.0461717"><ele>140.0</ele><time>2026-04-11T06:56:04.724Z</time></trkpt><trkpt lat="43.8981933" lon="8.0462533"><ele>140.0</ele><time>2026-04-11T06:56:07.724Z</time></trkpt><trkpt lat="43.8982383" lon="8.04633"><ele>140.0</ele><time>2026-04-11T06:56:10.724Z</time></trkpt><trkpt lat="43.898285" lon="8.0464017"><ele>140.0</ele><time>2026-04-11T06:56:13.725Z</time></trkpt><trkpt lat="43.8983417" lon="8.0464883"><ele>140.0</ele><time>2026-04-11T06:56:17.724Z</time></trkpt><trkpt lat="43.8983933" lon="8.0465567"><ele>140.0</ele><time>2026-04-11T06:56:20.724Z</time></trkpt><trkpt lat="43.8984583" lon="8.046595"><ele>140.0</ele><time>2026-04-11T06:56:23.724Z</time></trkpt><trkpt lat="43.898535" lon="8.0466167"><ele>140.0</ele><time>2026-04-11T06:56:26.724Z</time></trkpt><trkpt lat="43.8986133" lon="8.04664"><ele>141.28571428571428</ele><time>2026-04-11T06:56:29.724Z</time></trkpt><trkpt lat="43.8986867" lon="8.04667"><ele>142.57142857142856</ele><time>2026-04-11T06:56:32.724Z</time></trkpt><trkpt lat="43.89876" lon="8.046705"><ele>143.85714285714286</ele><time>2026-04-11T06:56:35.724Z</time></trkpt><trkpt lat="43.8988317" lon="8.04674"><ele>145.14285714285714</ele><time>2026-04-11T06:56:38.724Z</time></trkpt><trkpt lat="43.8988967" lon="8.04678"><ele>146.42857142857142</ele><time>2026-04-11T06:56:41.724Z</time></trkpt><trkpt lat="43.8989533" lon="8.0468333"><ele>147.71428571428572</ele><time>2026-04-11T06:56:44.724Z</time></trkpt><trkpt lat="43.8990217" lon="8.0468783"><ele>149.0</ele><time>2026-04-11T06:56:47.725Z</time></trkpt><trkpt lat="43.8990967" lon="8.0469233"><ele>149.0</ele><time>2026-04-11T06:56:50.725Z</time></trkpt><trkpt lat="43.8991733" lon="8.0469683"><ele>149.0</ele><time>2026-04-11T06:56:53.724Z</time></trkpt><trkpt lat="43.8992567" lon="8.0470017"><ele>149.0</ele><time>2026-04-11T06:56:56.724Z</time></trkpt><trkpt lat="43.89934" lon="8.047015"><ele>149.0</ele><time>2026-04-11T06:56:59.724Z</time></trkpt><trkpt lat="43.8994267" lon="8.04701"><ele>149.0</ele><time>2026-04-11T06:57:02.724Z</time></trkpt><trkpt lat="43.89949" lon="8.0470067"><ele>149.0</ele><time>2026-04-11T06:57:04.724Z</time></trkpt><trkpt lat="43.8995783" lon="8.0469933"><ele>150.83333333333331</ele><time>2026-04-11T06:57:07.724Z</time></trkpt><trkpt lat="43.8996667" lon="8.0469717"><ele>152.66666666666666</ele><time>2026-04-11T06:57:10.724Z</time></trkpt><trkpt lat="43.899755" lon="8.0469433"><ele>154.5</ele><time>2026-04-11T06:57:13.724Z</time></trkpt><trkpt lat="43.8998433" lon="8.046925"><ele>156.33333333333334</ele><time>2026-04-11T06:57:16.724Z</time></trkpt><trkpt lat="43.89992" lon="8.0469317"><ele>158.16666666666669</ele><time>2026-04-11T06:57:19.724Z</time></trkpt><trkpt lat="43.8999883" lon="8.0469733"><ele>160.0</ele><time>2026-04-11T06:57:22.725Z</time></trkpt><trkpt lat="43.9000533" lon="8.0470433"><ele>162.66666666666669</ele><time>2026-04-11T06:57:25.724Z</time></trkpt><trkpt lat="43.9001217" lon="8.0471067"><ele>165.33333333333334</ele><time>2026-04-11T06:57:28.724Z</time></trkpt><trkpt lat="43.9001833" lon="8.0471767"><ele>168.0</ele><time>2026-04-11T06:57:31.724Z</time></trkpt><trkpt lat="43.9002333" lon="8.0472333"><ele>170.66666666666666</ele><time>2026-04-11T06:57:33.724Z</time></trkpt><trkpt lat="43.90029" lon="8.047275"><ele>173.33333333333331</ele><time>2026-04-11T06:57:35.724Z</time></trkpt><trkpt lat="43.9003667" lon="8.0473367"><ele>176.0</ele><time>2026-04-11T06:57:38.724Z</time></trkpt><trkpt lat="43.9004367" lon="8.0474133"><ele>175.33333333333331</ele><time>2026-04-11T06:57:41.725Z</time></trkpt><trkpt lat="43.900515" lon="8.047475"><ele>174.66666666666666</ele><time>2026-04-11T06:57:44.724Z</time></trkpt><trkpt lat="43.9005967" lon="8.0475233"><ele>174.0</ele><time>2026-04-11T06:57:47.724Z</time></trkpt><trkpt lat="43.9006817" lon="8.0475533"><ele>173.33333333333334</ele><time>2026-04-11T06:57:50.724Z</time></trkpt><trkpt lat="43.90077" lon="8.0475667"><ele>172.66666666666669</ele><time>2026-04-11T06:57:53.724Z</time></trkpt><trkpt lat="43.9008567" lon="8.047575"><ele>172.0</ele><time>2026-04-11T06:57:56.724Z</time></trkpt><trkpt lat="43.9009433" lon="8.0475767"><ele>172.0</ele><time>2026-04-11T06:57:59.724Z</time></trkpt><trkpt lat="43.9010383" lon="8.047595"><ele>172.0</ele><time>2026-04-11T06:58:02.724Z</time></trkpt><trkpt lat="43.901125" lon="8.04762"><ele>172.0</ele><time>2026-04-11T06:58:05.724Z</time></trkpt><trkpt lat="43.9011983" lon="8.0476433"><ele>172.0</ele><time>2026-04-11T06:58:08.724Z</time></trkpt><trkpt lat="43.9012683" lon="8.047705"><ele>172.0</ele><time>2026-04-11T06:58:11.725Z</time></trkpt><trkpt lat="43.9013333" lon="8.0477867"><ele>172.0</ele><time>2026-04-11T06:58:14.724Z</time></trkpt><trkpt lat="43.9013767" lon="8.047855"><ele>172.00000000000003</ele><time>2026-04-11T06:58:16.724Z</time></trkpt><trkpt lat="43.901425" lon="8.0479117"><ele>172.0</ele><time>2026-04-11T06:58:18.724Z</time></trkpt><trkpt lat="43.901485" lon="8.0479483"><ele>172.0</ele><time>2026-04-11T06:58:20.724Z</time></trkpt><trkpt lat="43.9015517" lon="8.0479617"><ele>172.0</ele><time>2026-04-11T06:58:22.724Z</time></trkpt><trkpt lat="43.901645" lon="8.047965"><ele>172.0</ele><time>2026-04-11T06:58:25.724Z</time></trkpt><trkpt lat="43.9017117" lon="8.0479733"><ele>172.00000000000003</ele><time>2026-04-11T06:58:27.724Z</time></trkpt><trkpt lat="43.9018017" lon="8.0479717"><ele>172.0</ele><time>2026-04-11T06:58:30.724Z</time></trkpt><trkpt lat="43.9018683" lon="8.0479683"><ele>174.16666666666669</ele><time>2026-04-11T06:58:32.724Z</time></trkpt><trkpt lat="43.90196" lon="8.0479817"><ele>176.33333333333334</ele><time>2026-04-11T06:58:35.724Z</time></trkpt><trkpt lat="43.9020533" lon="8.04798"><ele>178.5</ele><time>2026-04-11T06:58:38.724Z</time></trkpt><trkpt lat="43.90214" lon="8.047975"><ele>180.66666666666666</ele><time>2026-04-11T06:58:41.724Z</time></trkpt><trkpt lat="43.9022117" lon="8.04799"><ele>182.83333333333331</ele><time>2026-04-11T06:58:44.724Z</time></trkpt><trkpt lat="43.9022717" lon="8.0480167"><ele>185.0</ele><time>2026-04-11T06:58:46.725Z</time></trkpt><trkpt lat="43.9023517" lon="8.0480667"><ele>185.0</ele><time>2026-04-11T06:58:49.724Z</time></trkpt><trkpt lat="43.90242" lon="8.0481517"><ele>185.0</ele><time>2026-04-11T06:58:52.724Z</time></trkpt><trkpt lat="43.90246" lon="8.0482467"><ele>185.0</ele><time>2026-04-11T06:58:55.724Z</time></trkpt><trkpt lat="43.902485" lon="8.048345"><ele>185.0</ele><time>2026-04-11T06:58:58.724Z</time></trkpt><trkpt lat="43.9025183" lon="8.0484317"><ele>185.0</ele><time>2026-04-11T06:59:01.724Z</time></trkpt><trkpt lat="43.9025367" lon="8.048535"><ele>185.0</ele><time>2026-04-11T06:59:04.724Z</time></trkpt><trkpt lat="43.90256" lon="8.04864"><ele>183.66666666666666</ele><time>2026-04-11T06:59:07.724Z</time></trkpt><trkpt lat="43.902595" lon="8.0487567"><ele>182.33333333333331</ele><time>2026-04-11T06:59:10.724Z</time></trkpt><trkpt lat="43.9026217" lon="8.0488717"><ele>181.0</ele><time>2026-04-11T06:59:13.724Z</time></trkpt><trkpt lat="43.9026567" lon="8.0489817"><ele>179.66666666666666</ele><time>2026-04-11T06:59:16.724Z</time></trkpt><trkpt lat="43.9027083" lon="8.0490767"><ele>178.33333333333334</ele><time>2026-04-11T06:59:19.724Z</time></trkpt><trkpt lat="43.9027667" lon="8.0491467"><ele>177.0</ele><time>2026-04-11T06:59:22.724Z</time></trkpt><trkpt lat="43.9028417" lon="8.0492033"><ele>177.0</ele><time>2026-04-11T06:59:25.724Z</time></trkpt><trkpt lat="43.9029333" lon="8.0492183"><ele>177.0</ele><time>2026-04-11T06:59:28.724Z</time></trkpt><trkpt lat="43.9029983" lon="8.0492033"><ele>177.0</ele><time>2026-04-11T06:59:30.724Z</time></trkpt><trkpt lat="43.90306" lon="8.0491717"><ele>177.0</ele><time>2026-04-11T06:59:32.724Z</time></trkpt><trkpt lat="43.90312" lon="8.049135"><ele>177.0</ele><time>2026-04-11T06:59:34.724Z</time></trkpt><trkpt lat="43.9031933" lon="8.0490767"><ele>177.0</ele><time>2026-04-11T06:59:37.724Z</time></trkpt><trkpt lat="43.903265" lon="8.049025"><ele>180.16666666666666</ele><time>2026-04-11T06:59:40.724Z</time></trkpt><trkpt lat="43.9033433" lon="8.0489817"><ele>183.33333333333331</ele><time>2026-04-11T06:59:43.724Z</time></trkpt><trkpt lat="43.9034267" lon="8.0489467"><ele>186.5</ele><time>2026-04-11T06:59:46.724Z</time></trkpt><trkpt lat="43.9035133" lon="8.0489183"><ele>189.66666666666666</ele><time>2026-04-11T06:59:49.724Z</time></trkpt><trkpt lat="43.9035983" lon="8.0489417"><ele>192.83333333333331</ele><time>2026-04-11T06:59:52.724Z</time></trkpt><trkpt lat="43.90368" lon="8.049005"><ele>196.0</ele><time>2026-04-11T06:59:55.724Z</time></trkpt><trkpt lat="43.9037617" lon="8.049055"><ele>196.99999999999997</ele><time>2026-04-11T06:59:58.725Z</time></trkpt><trkpt lat="43.9038483" lon="8.0491033"><ele>198.0</ele><time>2026-04-11T07:00:01.724Z</time></trkpt><trkpt lat="43.9039317" lon="8.049145"><ele>199.0</ele><time>2026-04-11T07:00:04.724Z</time></trkpt><trkpt lat="43.9040117" lon="8.0491683"><ele>200.0</ele><time>2026-04-11T07:00:07.724Z</time></trkpt><trkpt lat="43.9040867" lon="8.049195"><ele>200.99999999999997</ele><time>2026-04-11T07:00:10.724Z</time></trkpt><trkpt lat="43.90417" lon="8.049195"><ele>202.0</ele><time>2026-04-11T07:00:13.724Z</time></trkpt><trkpt lat="43.9042583" lon="8.049225"><ele>201.99999999999997</ele><time>2026-04-11T07:00:16.724Z</time></trkpt><trkpt lat="43.9043233" lon="8.0492617"><ele>202.0</ele><time>2026-04-11T07:00:18.724Z</time></trkpt><trkpt lat="43.9043867" lon="8.0493133"><ele>202.0</ele><time>2026-04-11T07:00:20.724Z</time></trkpt><trkpt lat="43.9044567" lon="8.0493733"><ele>202.0</ele><time>2026-04-11T07:00:22.724Z</time></trkpt><trkpt lat="43.9045233" lon="8.0494367"><ele>201.99999999999997</ele><time>2026-04-11T07:00:24.724Z</time></trkpt><trkpt lat="43.9045833" lon="8.0494983"><ele>202.0</ele><time>2026-04-11T07:00:26.724Z</time></trkpt><trkpt lat="43.9046317" lon="8.0495733"><ele>202.0</ele><time>2026-04-11T07:00:28.724Z</time></trkpt><trkpt lat="43.9046733" lon="8.0496617"><ele>202.0</ele><time>2026-04-11T07:00:30.724Z</time></trkpt><trkpt lat="43.9047083" lon="8.0497483"><ele>202.0</ele><time>2026-04-11T07:00:32.724Z</time></trkpt><trkpt lat="43.904735" lon="8.0498417"><ele>202.0</ele><time>2026-04-11T07:00:34.725Z</time></trkpt><trkpt lat="43.9047617" lon="8.04993"><ele>202.0</ele><time>2026-04-11T07:00:36.725Z</time></trkpt><trkpt lat="43.9048" lon="8.0500117"><ele>202.0</ele><time>2026-04-11T07:00:38.724Z</time></trkpt><trkpt lat="43.9048533" lon="8.0500833"><ele>202.0</ele><time>2026-04-11T07:00:40.725Z</time></trkpt><trkpt lat="43.9049067" lon="8.05015"><ele>201.66666666666666</ele><time>2026-04-11T07:00:42.724Z</time></trkpt><trkpt lat="43.904965" lon="8.050215"><ele>201.33333333333331</ele><time>2026-04-11T07:00:44.724Z</time></trkpt><trkpt lat="43.9050183" lon="8.0502767"><ele>201.0</ele><time>2026-04-11T07:00:46.724Z</time></trkpt><trkpt lat="43.9050717" lon="8.0503383"><ele>200.66666666666669</ele><time>2026-04-11T07:00:48.724Z</time></trkpt><trkpt lat="43.905125" lon="8.05039"><ele>200.33333333333334</ele><time>2026-04-11T07:00:50.724Z</time></trkpt><trkpt lat="43.9052083" lon="8.0504383"><ele>200.0</ele><time>2026-04-11T07:00:53.724Z</time></trkpt><trkpt lat="43.905295" lon="8.0504667"><ele>200.00000000000003</ele><time>2026-04-11T07:00:56.724Z</time></trkpt><trkpt lat="43.9053533" lon="8.0505333"><ele>200.0</ele><time>2026-04-11T07:00:59.725Z</time></trkpt><trkpt lat="43.9053333" lon="8.050655"><ele>200.0</ele><time>2026-04-11T07:01:02.724Z</time></trkpt><trkpt lat="43.9052767" lon="8.0507483"><ele>200.0</ele><time>2026-04-11T07:01:05.724Z</time></trkpt><trkpt lat="43.90522" lon="8.05083"><ele>200.00000000000003</ele><time>2026-04-11T07:01:08.724Z</time></trkpt><trkpt lat="43.9051633" lon="8.0509167"><ele>200.0</ele><time>2026-04-11T07:01:11.724Z</time></trkpt><trkpt lat="43.9051" lon="8.0510017"><ele>197.66666666666669</ele><time>2026-04-11T07:01:14.724Z</time></trkpt><trkpt lat="43.9050383" lon="8.051085"><ele>195.33333333333334</ele><time>2026-04-11T07:01:17.724Z</time></trkpt><trkpt lat="43.9050033" lon="8.0511867"><ele>193.0</ele><time>2026-04-11T07:01:20.724Z</time></trkpt><trkpt lat="43.9049517" lon="8.0512733"><ele>190.66666666666669</ele><time>2026-04-11T07:01:23.724Z</time></trkpt><trkpt lat="43.9048967" lon="8.0513617"><ele>188.33333333333334</ele><time>2026-04-11T07:01:26.724Z</time></trkpt><trkpt lat="43.90484" lon="8.0514417"><ele>186.0</ele><time>2026-04-11T07:01:29.725Z</time></trkpt><trkpt lat="43.904815" lon="8.0515383"><ele>187.83333333333334</ele><time>2026-04-11T07:01:32.724Z</time></trkpt><trkpt lat="43.9048033" lon="8.0516533"><ele>189.66666666666669</ele><time>2026-04-11T07:01:35.724Z</time></trkpt><trkpt lat="43.9047983" lon="8.05177"><ele>191.5</ele><time>2026-04-11T07:01:38.724Z</time></trkpt><trkpt lat="43.90481" lon="8.0518817"><ele>193.33333333333334</ele><time>2026-04-11T07:01:41.724Z</time></trkpt><trkpt lat="43.9048417" lon="8.0519767"><ele>195.16666666666669</ele><time>2026-04-11T07:01:44.724Z</time></trkpt><trkpt lat="43.9048917" lon="8.05206"><ele>197.0</ele><time>2026-04-11T07:01:47.724Z</time></trkpt><trkpt lat="43.9049383" lon="8.0521467"><ele>197.00000000000003</ele><time>2026-04-11T07:01:50.724Z</time></trkpt><trkpt lat="43.9049667" lon="8.0522533"><ele>197.0</ele><time>2026-04-11T07:01:53.724Z</time></trkpt><trkpt lat="43.9049817" lon="8.0523383"><ele>197.0</ele><time>2026-04-11T07:01:55.724Z</time></trkpt><trkpt lat="43.9049883" lon="8.0524533"><ele>197.0</ele><time>2026-04-11T07:01:58.724Z</time></trkpt><trkpt lat="43.90498" lon="8.0525417"><ele>197.00000000000003</ele><time>2026-04-11T07:02:00.724Z</time></trkpt><trkpt lat="43.9049667" lon="8.0526667"><ele>197.0</ele><time>2026-04-11T07:02:03.724Z</time></trkpt><trkpt lat="43.9049233" lon="8.0527667"><ele>198.33333333333334</ele><time>2026-04-11T07:02:06.724Z</time></trkpt><trkpt lat="43.90485" lon="8.0528317"><ele>199.66666666666669</ele><time>2026-04-11T07:02:09.725Z</time></trkpt><trkpt lat="43.9047733" lon="8.05288"><ele>201.0</ele><time>2026-04-11T07:02:12.725Z</time></trkpt><trkpt lat="43.9046817" lon="8.052895"><ele>202.33333333333331</ele><time>2026-04-11T07:02:15.724Z</time></trkpt><trkpt lat="43.9046167" lon="8.052905"><ele>203.66666666666666</ele><time>2026-04-11T07:02:17.725Z</time></trkpt><trkpt lat="43.90453" lon="8.052915"><ele>205.0</ele><time>2026-04-11T07:02:20.724Z</time></trkpt><trkpt lat="43.904455" lon="8.0529317"><ele>204.99999999999997</ele><time>2026-04-11T07:02:23.724Z</time></trkpt><trkpt lat="43.9043717" lon="8.0529633"><ele>205.0</ele><time>2026-04-11T07:02:26.724Z</time></trkpt><trkpt lat="43.90431" lon="8.053045"><ele>205.0</ele><time>2026-04-11T07:02:29.724Z</time></trkpt><trkpt lat="43.90428" lon="8.0531567"><ele>205.0</ele><time>2026-04-11T07:02:32.724Z</time></trkpt><trkpt lat="43.9042583" lon="8.05328"><ele>204.99999999999997</ele><time>2026-04-11T07:02:35.724Z</time></trkpt><trkpt lat="43.9042283" lon="8.0534017"><ele>205.0</ele><time>2026-04-11T07:02:38.724Z</time></trkpt><trkpt lat="43.904195" lon="8.0535183"><ele>204.83333333333331</ele><time>2026-04-11T07:02:41.724Z</time></trkpt><trkpt lat="43.9041533" lon="8.0536283"><ele>204.66666666666666</ele><time>2026-04-11T07:02:44.724Z</time></trkpt><trkpt lat="43.9040967" lon="8.0537267"><ele>204.5</ele><time>2026-04-11T07:02:47.724Z</time></trkpt><trkpt lat="43.904035" lon="8.0538067"><ele>204.33333333333331</ele><time>2026-04-11T07:02:50.724Z</time></trkpt><trkpt lat="43.903985" lon="8.0538733"><ele>204.16666666666666</ele><time>2026-04-11T07:02:53.724Z</time></trkpt><trkpt lat="43.903935" lon="8.0539367"><ele>204.0</ele><time>2026-04-11T07:02:57.724Z</time></trkpt><trkpt lat="43.9038983" lon="8.0540383"><ele>204.0</ele><time>2026-04-11T07:03:01.724Z</time></trkpt><trkpt lat="43.9039617" lon="8.0540483"><ele>204.0</ele><time>2026-04-11T07:03:11.725Z</time></trkpt><trkpt lat="43.9040283" lon="8.0540367"><ele>204.0</ele><time>2026-04-11T07:03:13.724Z</time></trkpt><trkpt lat="43.904095" lon="8.054005"><ele>204.0</ele><time>2026-04-11T07:03:15.724Z</time></trkpt><trkpt lat="43.9041567" lon="8.0539667"><ele>204.0</ele><time>2026-04-11T07:03:17.724Z</time></trkpt><trkpt lat="43.90424" lon="8.0539117"><ele>204.0</ele><time>2026-04-11T07:03:20.724Z</time></trkpt><trkpt lat="43.9043217" lon="8.0538517"><ele>205.5</ele><time>2026-04-11T07:03:23.724Z</time></trkpt><trkpt lat="43.9044033" lon="8.0537983"><ele>207.0</ele><time>2026-04-11T07:03:26.724Z</time></trkpt><trkpt lat="43.9044733" lon="8.0537467"><ele>208.5</ele><time>2026-04-11T07:03:29.724Z</time></trkpt><trkpt lat="43.904545" lon="8.0537083"><ele>210.0</ele><time>2026-04-11T07:03:32.724Z</time></trkpt><trkpt lat="43.9046117" lon="8.05369"><ele>211.5</ele><time>2026-04-11T07:03:35.724Z</time></trkpt><trkpt lat="43.9046933" lon="8.0536717"><ele>213.0</ele><time>2026-04-11T07:03:38.724Z</time></trkpt><trkpt lat="43.9047733" lon="8.0536483"><ele>213.0</ele><time>2026-04-11T07:03:41.724Z</time></trkpt><trkpt lat="43.9048567" lon="8.0536333"><ele>213.0</ele><time>2026-04-11T07:03:44.724Z</time></trkpt><trkpt lat="43.9049367" lon="8.05363"><ele>213.0</ele><time>2026-04-11T07:03:47.724Z</time></trkpt><trkpt lat="43.9050117" lon="8.0536417"><ele>213.0</ele><time>2026-04-11T07:03:50.724Z</time></trkpt><trkpt lat="43.905085" lon="8.0536683"><ele>213.0</ele><time>2026-04-11T07:03:53.725Z</time></trkpt><trkpt lat="43.9051617" lon="8.05368"><ele>213.0</ele><time>2026-04-11T07:03:56.724Z</time></trkpt><trkpt lat="43.9052317" lon="8.0536983"><ele>214.66666666666666</ele><time>2026-04-11T07:03:59.724Z</time></trkpt><trkpt lat="43.9053033" lon="8.0537133"><ele>216.33333333333331</ele><time>2026-04-11T07:04:02.724Z</time></trkpt><trkpt lat="43.9053767" lon="8.05371"><ele>218.0</ele><time>2026-04-11T07:04:05.724Z</time></trkpt><trkpt lat="43.90545" lon="8.0536817"><ele>219.66666666666666</ele><time>2026-04-11T07:04:08.724Z</time></trkpt><trkpt lat="43.9055233" lon="8.05363"><ele>221.33333333333331</ele><time>2026-04-11T07:04:11.724Z</time></trkpt><trkpt lat="43.9056" lon="8.0535617"><ele>223.0</ele><time>2026-04-11T07:04:14.724Z</time></trkpt><trkpt lat="43.9056633" lon="8.0534817"><ele>222.99999999999997</ele><time>2026-04-11T07:04:17.725Z</time></trkpt><trkpt lat="43.9057317" lon="8.0534133"><ele>223.0</ele><time>2026-04-11T07:04:20.724Z</time></trkpt><trkpt lat="43.9058017" lon="8.0533533"><ele>223.0</ele><time>2026-04-11T07:04:23.724Z</time></trkpt><trkpt lat="43.9058667" lon="8.0533017"><ele>223.0</ele><time>2026-04-11T07:04:26.724Z</time></trkpt><trkpt lat="43.9059183" lon="8.0532467"><ele>222.99999999999997</ele><time>2026-04-11T07:04:29.724Z</time></trkpt><trkpt lat="43.9059783" lon="8.0531833"><ele>223.0</ele><time>2026-04-11T07:04:32.724Z</time></trkpt><trkpt lat="43.9060317" lon="8.05312"><ele>224.42857142857142</ele><time>2026-04-11T07:04:35.724Z</time></trkpt><trkpt lat="43.9060817" lon="8.0530367"><ele>225.85714285714283</ele><time>2026-04-11T07:04:39.724Z</time></trkpt><trkpt lat="43.9061233" lon="8.05297"><ele>227.28571428571428</ele><time>2026-04-11T07:04:42.724Z</time></trkpt><trkpt lat="43.906175" lon="8.0529083"><ele>228.71428571428572</ele><time>2026-04-11T07:04:45.724Z</time></trkpt><trkpt lat="43.9062283" lon="8.0528467"><ele>230.14285714285714</ele><time>2026-04-11T07:04:48.724Z</time></trkpt><trkpt lat="43.9062867" lon="8.0527817"><ele>231.57142857142858</ele><time>2026-04-11T07:04:52.724Z</time></trkpt><trkpt lat="43.9063417" lon="8.0527333"><ele>233.0</ele><time>2026-04-11T07:04:56.724Z</time></trkpt><trkpt lat="43.906395" lon="8.0526833"><ele>233.0</ele><time>2026-04-11T07:05:00.724Z</time></trkpt><trkpt lat="43.906455" lon="8.0526283"><ele>233.0</ele><time>2026-04-11T07:05:04.724Z</time></trkpt><trkpt lat="43.9065117" lon="8.052565"><ele>233.0</ele><time>2026-04-11T07:05:08.724Z</time></trkpt><trkpt lat="43.9065733" lon="8.0525217"><ele>233.0</ele><time>2026-04-11T07:05:11.724Z</time></trkpt><trkpt lat="43.9066333" lon="8.05248"><ele>233.0</ele><time>2026-04-11T07:05:14.724Z</time></trkpt><trkpt lat="43.9067017" lon="8.0524283"><ele>233.0</ele><time>2026-04-11T07:05:17.725Z</time></trkpt><trkpt lat="43.9067633" lon="8.0523733"><ele>233.0</ele><time>2026-04-11T07:05:20.725Z</time></trkpt><trkpt lat="43.906825" lon="8.0523117"><ele>233.66666666666669</ele><time>2026-04-11T07:05:23.725Z</time></trkpt><trkpt lat="43.906885" lon="8.0522433"><ele>234.33333333333334</ele><time>2026-04-11T07:05:26.725Z</time></trkpt><trkpt lat="43.9069367" lon="8.052175"><ele>235.0</ele><time>2026-04-11T07:05:28.725Z</time></trkpt><trkpt lat="43.9069833" lon="8.05211"><ele>235.66666666666669</ele><time>2026-04-11T07:05:30.726Z</time></trkpt><trkpt lat="43.9070283" lon="8.0520417"><ele>236.33333333333334</ele><time>2026-04-11T07:05:32.725Z</time></trkpt><trkpt lat="43.90709" lon="8.051955"><ele>237.0</ele><time>2026-04-11T07:05:35.725Z</time></trkpt><trkpt lat="43.9071467" lon="8.05186"><ele>236.99999999999997</ele><time>2026-04-11T07:05:37.725Z</time></trkpt><trkpt lat="43.9071967" lon="8.0517767"><ele>237.0</ele><time>2026-04-11T07:05:40.725Z</time></trkpt><trkpt lat="43.9072367" lon="8.0517"><ele>236.99999999999997</ele><time>2026-04-11T07:05:43.725Z</time></trkpt><trkpt lat="43.907275" lon="8.05162"><ele>236.99999999999997</ele><time>2026-04-11T07:05:46.725Z</time></trkpt><trkpt lat="43.90732" lon="8.0515383"><ele>237.0</ele><time>2026-04-11T07:05:49.725Z</time></trkpt><trkpt lat="43.9073633" lon="8.0514567"><ele>236.99999999999997</ele><time>2026-04-11T07:05:52.725Z</time></trkpt><trkpt lat="43.9074083" lon="8.0513667"><ele>236.99999999999997</ele><time>2026-04-11T07:05:56.725Z</time></trkpt><trkpt lat="43.90745" lon="8.051285"><ele>237.1428571428571</ele><time>2026-04-11T07:06:00.725Z</time></trkpt><trkpt lat="43.9074933" lon="8.0512083"><ele>237.28571428571428</ele><time>2026-04-11T07:06:04.726Z</time></trkpt><trkpt lat="43.9075367" lon="8.0511283"><ele>237.42857142857142</ele><time>2026-04-11T07:06:08.726Z</time></trkpt><trkpt lat="43.90758" lon="8.0510617"><ele>237.57142857142856</ele><time>2026-04-11T07:06:12.725Z</time></trkpt><trkpt lat="43.9076317" lon="8.0509883"><ele>237.71428571428572</ele><time>2026-04-11T07:06:16.725Z</time></trkpt><trkpt lat="43.90767" lon="8.050915"><ele>237.85714285714286</ele><time>2026-04-11T07:06:19.726Z</time></trkpt><trkpt lat="43.9077083" lon="8.0508183"><ele>238.0</ele><time>2026-04-11T07:06:23.725Z</time></trkpt><trkpt lat="43.9077417" lon="8.050735"><ele>240.71428571428572</ele><time>2026-04-11T07:06:26.725Z</time></trkpt><trkpt lat="43.9077783" lon="8.0506583"><ele>243.42857142857144</ele><time>2026-04-11T07:06:29.725Z</time></trkpt><trkpt lat="43.9078183" lon="8.05059"><ele>246.14285714285714</ele><time>2026-04-11T07:06:32.725Z</time></trkpt><trkpt lat="43.9078617" lon="8.0505133"><ele>248.85714285714286</ele><time>2026-04-11T07:06:35.725Z</time></trkpt><trkpt lat="43.9079133" lon="8.050435"><ele>251.57142857142858</ele><time>2026-04-11T07:06:39.725Z</time></trkpt><trkpt lat="43.9079633" lon="8.0503717"><ele>254.28571428571428</ele><time>2026-04-11T07:06:42.725Z</time></trkpt><trkpt lat="43.9080233" lon="8.0503"><ele>257.0</ele><time>2026-04-11T07:06:45.725Z</time></trkpt><trkpt lat="43.9080933" lon="8.0502183"><ele>257.0</ele><time>2026-04-11T07:06:48.726Z</time></trkpt><trkpt lat="43.90816" lon="8.050145"><ele>257.0</ele><time>2026-04-11T07:06:52.726Z</time></trkpt><trkpt lat="43.9082133" lon="8.05009"><ele>257.0</ele><time>2026-04-11T07:06:55.725Z</time></trkpt><trkpt lat="43.908275" lon="8.0500383"><ele>257.0</ele><time>2026-04-11T07:06:58.725Z</time></trkpt><trkpt lat="43.908335" lon="8.0499783"><ele>257.0</ele><time>2026-04-11T07:07:01.725Z</time></trkpt><trkpt lat="43.9084083" lon="8.0499367"><ele>257.0</ele><time>2026-04-11T07:07:05.725Z</time></trkpt><trkpt lat="43.9084767" lon="8.0499217"><ele>257.0</ele><time>2026-04-11T07:07:08.725Z</time></trkpt><trkpt lat="43.908555" lon="8.0498867"><ele>260.0</ele><time>2026-04-11T07:07:11.726Z</time></trkpt><trkpt lat="43.9086267" lon="8.049845"><ele>263.0</ele><time>2026-04-11T07:07:15.725Z</time></trkpt><trkpt lat="43.90869" lon="8.0497833"><ele>266.0</ele><time>2026-04-11T07:07:19.725Z</time></trkpt><trkpt lat="43.908745" lon="8.0497367"><ele>269.0</ele><time>2026-04-11T07:07:22.725Z</time></trkpt><trkpt lat="43.9087967" lon="8.0496817"><ele>272.0</ele><time>2026-04-11T07:07:25.725Z</time></trkpt><trkpt lat="43.9088467" lon="8.0496267"><ele>275.0</ele><time>2026-04-11T07:07:28.725Z</time></trkpt><trkpt lat="43.9089083" lon="8.0495517"><ele>278.0</ele><time>2026-04-11T07:07:32.725Z</time></trkpt><trkpt lat="43.9089667" lon="8.0495"><ele>278.0</ele><time>2026-04-11T07:07:34.725Z</time></trkpt><trkpt lat="43.9090433" lon="8.049495"><ele>278.0</ele><time>2026-04-11T07:07:38.725Z</time></trkpt><trkpt lat="43.90911" lon="8.0494967"><ele>278.0</ele><time>2026-04-11T07:07:41.725Z</time></trkpt><trkpt lat="43.9092067" lon="8.04946"><ele>278.0</ele><time>2026-04-11T07:07:43.725Z</time></trkpt><trkpt lat="43.9092783" lon="8.0494717"><ele>278.0</ele><time>2026-04-11T07:07:45.726Z</time></trkpt><trkpt lat="43.9093667" lon="8.049485"><ele>278.0</ele><time>2026-04-11T07:07:48.724Z</time></trkpt><trkpt lat="43.9094467" lon="8.049495"><ele>275.42857142857144</ele><time>2026-04-11T07:07:50.724Z</time></trkpt><trkpt lat="43.90951" lon="8.0495467"><ele>272.8571428571429</ele><time>2026-04-11T07:07:52.724Z</time></trkpt><trkpt lat="43.9095667" lon="8.0496"><ele>270.28571428571433</ele><time>2026-04-11T07:07:54.724Z</time></trkpt><trkpt lat="43.9096233" lon="8.0496467"><ele>267.7142857142857</ele><time>2026-04-11T07:07:56.724Z</time></trkpt><trkpt lat="43.909695" lon="8.049635"><ele>265.14285714285717</ele><time>2026-04-11T07:07:59.725Z</time></trkpt><trkpt lat="43.909785" lon="8.04963"><ele>262.5714285714286</ele><time>2026-04-11T07:08:02.724Z</time></trkpt><trkpt lat="43.9098617" lon="8.0496083"><ele>260.0</ele><time>2026-04-11T07:08:04.724Z</time></trkpt><trkpt lat="43.9099517" lon="8.0495983"><ele>260.0</ele><time>2026-04-11T07:08:06.724Z</time></trkpt><trkpt lat="43.9100467" lon="8.0495817"><ele>260.0</ele><time>2026-04-11T07:08:08.724Z</time></trkpt><trkpt lat="43.9102333" lon="8.0496117"><ele>260.0</ele><time>2026-04-11T07:08:10.724Z</time></trkpt><trkpt lat="43.9103867" lon="8.0496583"><ele>260.0</ele><time>2026-04-11T07:08:11.724Z</time></trkpt><trkpt lat="43.9105233" lon="8.0496867"><ele>258.8</ele><time>2026-04-11T07:08:12.724Z</time></trkpt><trkpt lat="43.9106517" lon="8.0496983"><ele>257.6</ele><time>2026-04-11T07:08:13.725Z</time></trkpt><trkpt lat="43.9107533" lon="8.0496833"><ele>256.4</ele><time>2026-04-11T07:08:14.724Z</time></trkpt><trkpt lat="43.9108433" lon="8.04966"><ele>255.2</ele><time>2026-04-11T07:08:15.724Z</time></trkpt><trkpt lat="43.91093" lon="8.0496417"><ele>254.0</ele><time>2026-04-11T07:08:16.725Z</time></trkpt><trkpt lat="43.91101" lon="8.0496217"><ele>254.00000000000003</ele><time>2026-04-11T07:08:17.725Z</time></trkpt><trkpt lat="43.9110867" lon="8.049605"><ele>254.0</ele><time>2026-04-11T07:08:18.724Z</time></trkpt><trkpt lat="43.9111533" lon="8.0496033"><ele>254.0</ele><time>2026-04-11T07:08:19.724Z</time></trkpt><trkpt lat="43.9112383" lon="8.0495867"><ele>254.0</ele><time>2026-04-11T07:08:21.724Z</time></trkpt><trkpt lat="43.9113267" lon="8.0495633"><ele>254.00000000000003</ele><time>2026-04-11T07:08:23.724Z</time></trkpt><trkpt lat="43.911395" lon="8.0495467"><ele>254.0</ele><time>2026-04-11T07:08:25.725Z</time></trkpt><trkpt lat="43.9114583" lon="8.0495483"><ele>254.00000000000003</ele><time>2026-04-11T07:08:27.724Z</time></trkpt><trkpt lat="43.9115317" lon="8.049555"><ele>254.0</ele><time>2026-04-11T07:08:29.724Z</time></trkpt><trkpt lat="43.91162" lon="8.0495467"><ele>254.0</ele><time>2026-04-11T07:08:32.724Z</time></trkpt><trkpt lat="43.9116983" lon="8.0495367"><ele>254.0</ele><time>2026-04-11T07:08:35.724Z</time></trkpt><trkpt lat="43.91178" lon="8.04951"><ele>254.00000000000003</ele><time>2026-04-11T07:08:38.724Z</time></trkpt><trkpt lat="43.9118667" lon="8.049465"><ele>254.0</ele><time>2026-04-11T07:08:41.724Z</time></trkpt><trkpt lat="43.911925" lon="8.0494183"><ele>254.71428571428572</ele><time>2026-04-11T07:08:43.724Z</time></trkpt><trkpt lat="43.9119817" lon="8.04937"><ele>255.42857142857142</ele><time>2026-04-11T07:08:45.724Z</time></trkpt><trkpt lat="43.9120367" lon="8.0493217"><ele>256.1428571428571</ele><time>2026-04-11T07:08:47.724Z</time></trkpt><trkpt lat="43.9121033" lon="8.0492783"><ele>256.8571428571429</ele><time>2026-04-11T07:08:50.724Z</time></trkpt><trkpt lat="43.91219" lon="8.0492083"><ele>257.57142857142856</ele><time>2026-04-11T07:13:50.725Z</time></trkpt><trkpt lat="43.9122583" lon="8.049205"><ele>258.2857142857143</ele><time>2026-04-11T07:13:54.724Z</time></trkpt><trkpt lat="43.912325" lon="8.0491967"><ele>259.0</ele><time>2026-04-11T07:13:58.724Z</time></trkpt><trkpt lat="43.9124133" lon="8.0491967"><ele>259.0</ele><time>2026-04-11T07:14:02.725Z</time></trkpt><trkpt lat="43.9125067" lon="8.0492283"><ele>259.0</ele><time>2026-04-11T07:14:04.724Z</time></trkpt><trkpt lat="43.9126233" lon="8.0492567"><ele>259.0</ele><time>2026-04-11T07:14:06.724Z</time></trkpt><trkpt lat="43.9127467" lon="8.0492533"><ele>259.0</ele><time>2026-04-11T07:14:08.724Z</time></trkpt><trkpt lat="43.9128633" lon="8.0492383"><ele>258.2</ele><time>2026-04-11T07:14:10.724Z</time></trkpt><trkpt lat="43.9129717" lon="8.0492167"><ele>257.4</ele><time>2026-04-11T07:14:12.725Z</time></trkpt><trkpt lat="43.91307" lon="8.0491717"><ele>256.6</ele><time>2026-04-11T07:14:14.724Z</time></trkpt><trkpt lat="43.9131633" lon="8.049115"><ele>255.8</ele><time>2026-04-11T07:14:16.724Z</time></trkpt><trkpt lat="43.9132533" lon="8.04908"><ele>255.0</ele><time>2026-04-11T07:14:18.724Z</time></trkpt><trkpt lat="43.913335" lon="8.0490517"><ele>253.4</ele><time>2026-04-11T07:14:20.724Z</time></trkpt><trkpt lat="43.9134167" lon="8.049025"><ele>251.8</ele><time>2026-04-11T07:14:22.724Z</time></trkpt><trkpt lat="43.9135117" lon="8.0490183"><ele>250.2</ele><time>2026-04-11T07:14:24.725Z</time></trkpt><trkpt lat="43.9136317" lon="8.0490067"><ele>248.6</ele><time>2026-04-11T07:14:26.724Z</time></trkpt><trkpt lat="43.9137067" lon="8.0490033"><ele>247.0</ele><time>2026-04-11T07:14:27.724Z</time></trkpt><trkpt lat="43.9137867" lon="8.049"><ele>246.99999999999997</ele><time>2026-04-11T07:14:28.724Z</time></trkpt><trkpt lat="43.913865" lon="8.0489933"><ele>247.0</ele><time>2026-04-11T07:14:29.724Z</time></trkpt><trkpt lat="43.9139383" lon="8.0489833"><ele>247.0</ele><time>2026-04-11T07:14:30.725Z</time></trkpt><trkpt lat="43.91401" lon="8.048975"><ele>247.0</ele><time>2026-04-11T07:14:31.724Z</time></trkpt><trkpt lat="43.914075" lon="8.04896"><ele>246.99999999999997</ele><time>2026-04-11T07:14:32.724Z</time></trkpt><trkpt lat="43.91419" lon="8.0489217"><ele>247.0</ele><time>2026-04-11T07:14:34.724Z</time></trkpt><trkpt lat="43.9142883" lon="8.0488833"><ele>247.57142857142858</ele><time>2026-04-11T07:14:36.724Z</time></trkpt><trkpt lat="43.9143667" lon="8.0488617"><ele>248.1428571428571</ele><time>2026-04-11T07:14:38.724Z</time></trkpt><trkpt lat="43.9144333" lon="8.0488433"><ele>248.7142857142857</ele><time>2026-04-11T07:14:40.725Z</time></trkpt><trkpt lat="43.9145033" lon="8.048835"><ele>249.28571428571428</ele><time>2026-04-11T07:14:42.724Z</time></trkpt><trkpt lat="43.91457" lon="8.048835"><ele>249.85714285714283</ele><time>2026-04-11T07:14:44.724Z</time></trkpt><trkpt lat="43.9146467" lon="8.04883"><ele>250.4285714285714</ele><time>2026-04-11T07:14:47.724Z</time></trkpt><trkpt lat="43.9147183" lon="8.0488267"><ele>250.99999999999997</ele><time>2026-04-11T07:14:50.724Z</time></trkpt><trkpt lat="43.9147917" lon="8.0488683"><ele>251.00000000000003</ele><time>2026-04-11T07:14:53.724Z</time></trkpt><trkpt lat="43.91487" lon="8.0488733"><ele>251.0</ele><time>2026-04-11T07:14:58.724Z</time></trkpt><trkpt lat="43.9149467" lon="8.0488717"><ele>251.0</ele><time>2026-04-11T07:15:01.725Z</time></trkpt><trkpt lat="43.9150217" lon="8.04886"><ele>251.0</ele><time>2026-04-11T07:15:04.724Z</time></trkpt><trkpt lat="43.9150983" lon="8.048815"><ele>251.00000000000003</ele><time>2026-04-11T07:15:07.724Z</time></trkpt><trkpt lat="43.9151767" lon="8.0487833"><ele>251.0</ele><time>2026-04-11T07:15:10.725Z</time></trkpt><trkpt lat="43.9152583" lon="8.0487333"><ele>253.16666666666669</ele><time>2026-04-11T07:15:13.725Z</time></trkpt><trkpt lat="43.91533" lon="8.0486883"><ele>255.33333333333334</ele><time>2026-04-11T07:15:16.724Z</time></trkpt><trkpt lat="43.9154083" lon="8.04863"><ele>257.5</ele><time>2026-04-11T07:15:19.724Z</time></trkpt><trkpt lat="43.9154733" lon="8.0485583"><ele>259.6666666666667</ele><time>2026-04-11T07:15:22.724Z</time></trkpt><trkpt lat="43.915545" lon="8.0484917"><ele>261.8333333333333</ele><time>2026-04-11T07:15:25.725Z</time></trkpt><trkpt lat="43.915605" lon="8.0484517"><ele>264.0</ele><time>2026-04-11T07:15:27.724Z</time></trkpt><trkpt lat="43.9156733" lon="8.04842"><ele>264.0</ele><time>2026-04-11T07:15:29.724Z</time></trkpt><trkpt lat="43.9157333" lon="8.048385"><ele>264.0</ele><time>2026-04-11T07:15:31.725Z</time></trkpt><trkpt lat="43.91582" lon="8.0483617"><ele>264.0</ele><time>2026-04-11T07:15:34.724Z</time></trkpt><trkpt lat="43.9159017" lon="8.048325"><ele>264.0</ele><time>2026-04-11T07:15:37.724Z</time></trkpt><trkpt lat="43.9159633" lon="8.0483017"><ele>264.0</ele><time>2026-04-11T07:15:39.724Z</time></trkpt><trkpt lat="43.91603" lon="8.0482833"><ele>264.0</ele><time>2026-04-11T07:15:41.724Z</time></trkpt><trkpt lat="43.91611" lon="8.0482617"><ele>262.1428571428571</ele><time>2026-04-11T07:15:44.724Z</time></trkpt><trkpt lat="43.9161767" lon="8.0482317"><ele>260.2857142857143</ele><time>2026-04-11T07:15:47.724Z</time></trkpt><trkpt lat="43.9162633" lon="8.0481917"><ele>258.42857142857144</ele><time>2026-04-11T07:15:50.724Z</time></trkpt><trkpt lat="43.9163383" lon="8.04819"><ele>256.57142857142856</ele><time>2026-04-11T07:15:52.724Z</time></trkpt><trkpt lat="43.9164067" lon="8.04818"><ele>254.71428571428572</ele><time>2026-04-11T07:15:54.724Z</time></trkpt><trkpt lat="43.91647" lon="8.04816"><ele>252.85714285714283</ele><time>2026-04-11T07:15:56.724Z</time></trkpt><trkpt lat="43.9165383" lon="8.0481567"><ele>250.99999999999997</ele><time>2026-04-11T07:15:58.725Z</time></trkpt><trkpt lat="43.916605" lon="8.0481417"><ele>251.00000000000003</ele><time>2026-04-11T07:16:00.725Z</time></trkpt><trkpt lat="43.9166733" lon="8.048135"><ele>251.0</ele><time>2026-04-11T07:16:02.724Z</time></trkpt><trkpt lat="43.91676" lon="8.0481067"><ele>251.0</ele><time>2026-04-11T07:16:05.724Z</time></trkpt><trkpt lat="43.916825" lon="8.048085"><ele>251.0</ele><time>2026-04-11T07:16:07.724Z</time></trkpt><trkpt lat="43.916915" lon="8.04804"><ele>251.00000000000003</ele><time>2026-04-11T07:16:10.724Z</time></trkpt><trkpt lat="43.9169833" lon="8.0480217"><ele>251.0</ele><time>2026-04-11T07:16:12.724Z</time></trkpt><trkpt lat="43.9170467" lon="8.048015"><ele>254.00000000000003</ele><time>2026-04-11T07:16:14.724Z</time></trkpt><trkpt lat="43.9171267" lon="8.048"><ele>257.0</ele><time>2026-04-11T07:16:17.724Z</time></trkpt><trkpt lat="43.91719" lon="8.0479983"><ele>260.0</ele><time>2026-04-11T07:16:20.724Z</time></trkpt><trkpt lat="43.91726" lon="8.0479633"><ele>263.0</ele><time>2026-04-11T07:16:23.724Z</time></trkpt><trkpt lat="43.9173333" lon="8.0479083"><ele>266.0</ele><time>2026-04-11T07:16:26.724Z</time></trkpt><trkpt lat="43.9174033" lon="8.0478667"><ele>269.0</ele><time>2026-04-11T07:16:30.724Z</time></trkpt><trkpt lat="43.9174617" lon="8.0477933"><ele>269.0</ele><time>2026-04-11T07:16:34.724Z</time></trkpt><trkpt lat="43.9175117" lon="8.0477383"><ele>269.0</ele><time>2026-04-11T07:16:37.724Z</time></trkpt><trkpt lat="43.917565" lon="8.0476583"><ele>269.0</ele><time>2026-04-11T07:16:41.724Z</time></trkpt><trkpt lat="43.917615" lon="8.047595"><ele>269.0</ele><time>2026-04-11T07:16:45.724Z</time></trkpt><trkpt lat="43.9176817" lon="8.0475633"><ele>269.0</ele><time>2026-04-11T07:16:49.724Z</time></trkpt><trkpt lat="43.9177567" lon="8.0475267"><ele>269.0</ele><time>2026-04-11T07:16:53.724Z</time></trkpt><trkpt lat="43.9178183" lon="8.0475033"><ele>269.0</ele><time>2026-04-11T07:16:56.724Z</time></trkpt><trkpt lat="43.91788" lon="8.0474767"><ele>269.0</ele><time>2026-04-11T07:16:59.724Z</time></trkpt><trkpt lat="43.917945" lon="8.04743"><ele>269.0</ele><time>2026-04-11T07:17:02.724Z</time></trkpt><trkpt lat="43.918015" lon="8.0473967"><ele>269.0</ele><time>2026-04-11T07:17:05.724Z</time></trkpt><trkpt lat="43.9180933" lon="8.0473767"><ele>269.0</ele><time>2026-04-11T07:17:08.724Z</time></trkpt><trkpt lat="43.9181633" lon="8.0473517"><ele>269.0</ele><time>2026-04-11T07:17:11.724Z</time></trkpt><trkpt lat="43.918235" lon="8.04732"><ele>269.0</ele><time>2026-04-11T07:17:15.724Z</time></trkpt><trkpt lat="43.918295" lon="8.0472833"><ele>269.0</ele><time>2026-04-11T07:17:18.724Z</time></trkpt><trkpt lat="43.91835" lon="8.0472317"><ele>270.14285714285717</ele><time>2026-04-11T07:17:21.724Z</time></trkpt><trkpt lat="43.91841" lon="8.0472033"><ele>271.28571428571433</ele><time>2026-04-11T07:17:24.724Z</time></trkpt><trkpt lat="43.918485" lon="8.0471783"><ele>272.42857142857144</ele><time>2026-04-11T07:17:27.725Z</time></trkpt><trkpt lat="43.9185467" lon="8.0471583"><ele>273.57142857142856</ele><time>2026-04-11T07:17:30.724Z</time></trkpt><trkpt lat="43.9186133" lon="8.0471317"><ele>274.71428571428567</ele><time>2026-04-11T07:17:35.725Z</time></trkpt><trkpt lat="43.9186717" lon="8.0470817"><ele>275.85714285714283</ele><time>2026-04-11T07:17:39.724Z</time></trkpt><trkpt lat="43.9187167" lon="8.0470133"><ele>277.0</ele><time>2026-04-11T07:17:42.724Z</time></trkpt><trkpt lat="43.9187733" lon="8.0469433"><ele>277.0</ele><time>2026-04-11T07:17:45.724Z</time></trkpt><trkpt lat="43.91882" lon="8.0468667"><ele>277.0</ele><time>2026-04-11T07:17:48.724Z</time></trkpt><trkpt lat="43.9188583" lon="8.04679"><ele>277.0</ele><time>2026-04-11T07:17:51.724Z</time></trkpt><trkpt lat="43.91891" lon="8.0467133"><ele>277.0</ele><time>2026-04-11T07:17:54.725Z</time></trkpt><trkpt lat="43.9189683" lon="8.0466467"><ele>277.0</ele><time>2026-04-11T07:17:57.724Z</time></trkpt><trkpt lat="43.9190167" lon="8.04657"><ele>277.0</ele><time>2026-04-11T07:18:00.724Z</time></trkpt><trkpt lat="43.91905" lon="8.046485"><ele>277.0</ele><time>2026-04-11T07:18:03.725Z</time></trkpt><trkpt lat="43.9190833" lon="8.0464067"><ele>277.0</ele><time>2026-04-11T07:18:06.724Z</time></trkpt><trkpt lat="43.9191133" lon="8.0463267"><ele>277.0</ele><time>2026-04-11T07:18:09.724Z</time></trkpt><trkpt lat="43.9191583" lon="8.0462417"><ele>277.0</ele><time>2026-04-11T07:18:13.724Z</time></trkpt><trkpt lat="43.9191867" lon="8.0461567"><ele>277.0</ele><time>2026-04-11T07:18:16.724Z</time></trkpt><trkpt lat="43.9192283" lon="8.046065"><ele>277.0</ele><time>2026-04-11T07:18:19.724Z</time></trkpt><trkpt lat="43.9192767" lon="8.0459683"><ele>277.0</ele><time>2026-04-11T07:18:22.724Z</time></trkpt><trkpt lat="43.9193267" lon="8.04586"><ele>276.8333333333333</ele><time>2026-04-11T07:18:25.724Z</time></trkpt><trkpt lat="43.9193667" lon="8.04578"><ele>276.66666666666663</ele><time>2026-04-11T07:18:27.724Z</time></trkpt><trkpt lat="43.919415" lon="8.0456967"><ele>276.5</ele><time>2026-04-11T07:18:29.724Z</time></trkpt><trkpt lat="43.9194517" lon="8.0456167"><ele>276.3333333333333</ele><time>2026-04-11T07:18:31.724Z</time></trkpt><trkpt lat="43.9194917" lon="8.0455333"><ele>276.1666666666667</ele><time>2026-04-11T07:18:33.724Z</time></trkpt><trkpt lat="43.9195383" lon="8.0454417"><ele>276.0</ele><time>2026-04-11T07:18:35.724Z</time></trkpt><trkpt lat="43.91959" lon="8.0453533"><ele>276.0</ele><time>2026-04-11T07:18:37.724Z</time></trkpt><trkpt lat="43.9196367" lon="8.0452733"><ele>276.0</ele><time>2026-04-11T07:18:39.724Z</time></trkpt><trkpt lat="43.91968" lon="8.0451983"><ele>276.0</ele><time>2026-04-11T07:18:41.724Z</time></trkpt><trkpt lat="43.919725" lon="8.04513"><ele>276.0</ele><time>2026-04-11T07:18:43.724Z</time></trkpt><trkpt lat="43.91978" lon="8.045025"><ele>276.0</ele><time>2026-04-11T07:18:46.724Z</time></trkpt><trkpt lat="43.9198167" lon="8.04495"><ele>276.0</ele><time>2026-04-11T07:18:48.724Z</time></trkpt><trkpt lat="43.9198567" lon="8.0448567"><ele>276.0</ele><time>2026-04-11T07:18:50.724Z</time></trkpt><trkpt lat="43.9199033" lon="8.0447367"><ele>276.2</ele><time>2026-04-11T07:18:52.724Z</time></trkpt><trkpt lat="43.91996" lon="8.0446233"><ele>276.40000000000003</ele><time>2026-04-11T07:18:54.724Z</time></trkpt><trkpt lat="43.920015" lon="8.0444933"><ele>276.6</ele><time>2026-04-11T07:18:56.724Z</time></trkpt><trkpt lat="43.9200667" lon="8.0443767"><ele>276.8</ele><time>2026-04-11T07:18:58.724Z</time></trkpt><trkpt lat="43.9201083" lon="8.0442767"><ele>277.0</ele><time>2026-04-11T07:19:00.724Z</time></trkpt><trkpt lat="43.920145" lon="8.044175"><ele>279.66666666666663</ele><time>2026-04-11T07:19:02.724Z</time></trkpt><trkpt lat="43.9201733" lon="8.0440683"><ele>282.3333333333333</ele><time>2026-04-11T07:19:04.725Z</time></trkpt><trkpt lat="43.9201917" lon="8.0439783"><ele>285.0</ele><time>2026-04-11T07:19:06.724Z</time></trkpt><trkpt lat="43.9202033" lon="8.04389"><ele>287.6666666666667</ele><time>2026-04-11T07:19:08.724Z</time></trkpt><trkpt lat="43.920215" lon="8.0437683"><ele>290.33333333333337</ele><time>2026-04-11T07:19:11.724Z</time></trkpt><trkpt lat="43.920235" lon="8.04366"><ele>293.0</ele><time>2026-04-11T07:19:14.724Z</time></trkpt><trkpt lat="43.92025" lon="8.04354"><ele>293.0</ele><time>2026-04-11T07:19:17.724Z</time></trkpt><trkpt lat="43.9202667" lon="8.04343"><ele>293.0</ele><time>2026-04-11T07:19:20.724Z</time></trkpt><trkpt lat="43.9202917" lon="8.043315"><ele>293.0</ele><time>2026-04-11T07:19:23.724Z</time></trkpt><trkpt lat="43.9203217" lon="8.0432033"><ele>293.0</ele><time>2026-04-11T07:19:26.724Z</time></trkpt><trkpt lat="43.9203517" lon="8.0431217"><ele>293.0</ele><time>2026-04-11T07:19:29.724Z</time></trkpt><trkpt lat="43.9203783" lon="8.0430183"><ele>293.0</ele><time>2026-04-11T07:19:33.724Z</time></trkpt><trkpt lat="43.9204083" lon="8.042925"><ele>294.6666666666667</ele><time>2026-04-11T07:19:36.724Z</time></trkpt><trkpt lat="43.9204433" lon="8.0428217"><ele>296.33333333333337</ele><time>2026-04-11T07:19:39.725Z</time></trkpt><trkpt lat="43.9204883" lon="8.0427283"><ele>298.0</ele><time>2026-04-11T07:19:42.725Z</time></trkpt><trkpt lat="43.92053" lon="8.04263"><ele>299.6666666666667</ele><time>2026-04-11T07:19:45.724Z</time></trkpt><trkpt lat="43.920565" lon="8.0425533"><ele>301.3333333333333</ele><time>2026-04-11T07:19:47.724Z</time></trkpt><trkpt lat="43.9206433" lon="8.0425183"><ele>303.0</ele><time>2026-04-11T07:19:50.724Z</time></trkpt><trkpt lat="43.92073" lon="8.0424767"><ele>301.0</ele><time>2026-04-11T07:19:53.724Z</time></trkpt><trkpt lat="43.9208" lon="8.042445"><ele>299.0</ele><time>2026-04-11T07:19:55.724Z</time></trkpt><trkpt lat="43.9208717" lon="8.042435"><ele>297.0</ele><time>2026-04-11T07:19:57.724Z</time></trkpt><trkpt lat="43.9209533" lon="8.0423967"><ele>295.0</ele><time>2026-04-11T07:19:59.724Z</time></trkpt><trkpt lat="43.9210483" lon="8.0423417"><ele>293.0</ele><time>2026-04-11T07:20:01.724Z</time></trkpt><trkpt lat="43.9211283" lon="8.0422667"><ele>291.0</ele><time>2026-04-11T07:20:03.724Z</time></trkpt><trkpt lat="43.92119" lon="8.0421683"><ele>290.0</ele><time>2026-04-11T07:20:05.724Z</time></trkpt><trkpt lat="43.921285" lon="8.0420317"><ele>289.0</ele><time>2026-04-11T07:20:07.724Z</time></trkpt><trkpt lat="43.9213433" lon="8.0419483"><ele>288.0</ele><time>2026-04-11T07:20:08.724Z</time></trkpt><trkpt lat="43.921405" lon="8.04187"><ele>287.0</ele><time>2026-04-11T07:20:09.724Z</time></trkpt><trkpt lat="43.9214667" lon="8.041805"><ele>286.0</ele><time>2026-04-11T07:20:10.724Z</time></trkpt><trkpt lat="43.9215317" lon="8.0417617"><ele>285.99999999999994</ele><time>2026-04-11T07:20:11.724Z</time></trkpt><trkpt lat="43.921595" lon="8.0417367"><ele>286.0</ele><time>2026-04-11T07:20:12.724Z</time></trkpt><trkpt lat="43.9216617" lon="8.0417283"><ele>286.0</ele><time>2026-04-11T07:20:13.724Z</time></trkpt><trkpt lat="43.9217333" lon="8.0417333"><ele>286.0</ele><time>2026-04-11T07:20:14.724Z</time></trkpt><trkpt lat="43.9218" lon="8.0417533"><ele>286.0</ele><time>2026-04-11T07:20:15.724Z</time></trkpt><trkpt lat="43.9218733" lon="8.0417783"><ele>285.99999999999994</ele><time>2026-04-11T07:20:16.724Z</time></trkpt><trkpt lat="43.92195" lon="8.0418283"><ele>286.0</ele><time>2026-04-11T07:20:17.724Z</time></trkpt><trkpt lat="43.92202" lon="8.0418833"><ele>285.4285714285714</ele><time>2026-04-11T07:20:18.724Z</time></trkpt><trkpt lat="43.9220783" lon="8.0419233"><ele>284.85714285714283</ele><time>2026-04-11T07:20:19.725Z</time></trkpt><trkpt lat="43.9221317" lon="8.04197"><ele>284.2857142857143</ele><time>2026-04-11T07:20:20.724Z</time></trkpt><trkpt lat="43.9222133" lon="8.0420167"><ele>283.71428571428567</ele><time>2026-04-11T07:20:22.724Z</time></trkpt><trkpt lat="43.9222783" lon="8.0420417"><ele>283.1428571428571</ele><time>2026-04-11T07:20:24.724Z</time></trkpt><trkpt lat="43.92232" lon="8.04214"><ele>282.57142857142856</ele><time>2026-04-11T07:21:24.726Z</time></trkpt><trkpt lat="43.9223417" lon="8.042055"><ele>282.0</ele><time>2026-04-11T07:23:15.725Z</time></trkpt><trkpt lat="43.9224167" lon="8.0420667"><ele>282.0</ele><time>2026-04-11T07:23:20.725Z</time></trkpt><trkpt lat="43.92249" lon="8.0420683"><ele>282.0</ele><time>2026-04-11T07:23:24.726Z</time></trkpt><trkpt lat="43.9225667" lon="8.0420617"><ele>282.0</ele><time>2026-04-11T07:23:28.725Z</time></trkpt><trkpt lat="43.92263" lon="8.0420283"><ele>282.0</ele><time>2026-04-11T07:23:31.725Z</time></trkpt><trkpt lat="43.9226933" lon="8.0419983"><ele>282.0</ele><time>2026-04-11T07:23:34.725Z</time></trkpt><trkpt lat="43.922755" lon="8.041975"><ele>282.0</ele><time>2026-04-11T07:23:37.725Z</time></trkpt><trkpt lat="43.92282" lon="8.0419583"><ele>282.0</ele><time>2026-04-11T07:23:40.725Z</time></trkpt><trkpt lat="43.9228983" lon="8.0419317"><ele>281.2857142857143</ele><time>2026-04-11T07:23:44.725Z</time></trkpt><trkpt lat="43.92296" lon="8.0418967"><ele>280.57142857142856</ele><time>2026-04-11T07:23:47.725Z</time></trkpt><trkpt lat="43.92302" lon="8.041855"><ele>279.85714285714283</ele><time>2026-04-11T07:23:50.725Z</time></trkpt><trkpt lat="43.9230867" lon="8.041805"><ele>279.1428571428571</ele><time>2026-04-11T07:23:53.725Z</time></trkpt><trkpt lat="43.9231367" lon="8.0417483"><ele>278.4285714285714</ele><time>2026-04-11T07:23:56.725Z</time></trkpt><trkpt lat="43.923195" lon="8.0417067"><ele>277.7142857142857</ele><time>2026-04-11T07:23:59.725Z</time></trkpt><trkpt lat="43.9232567" lon="8.0416517"><ele>277.0</ele><time>2026-04-11T07:24:02.725Z</time></trkpt><trkpt lat="43.9233183" lon="8.0415767"><ele>277.0</ele><time>2026-04-11T07:24:06.725Z</time></trkpt><trkpt lat="43.9233917" lon="8.0415233"><ele>277.0</ele><time>2026-04-11T07:24:10.725Z</time></trkpt><trkpt lat="43.9234583" lon="8.0414617"><ele>277.0</ele><time>2026-04-11T07:24:14.725Z</time></trkpt><trkpt lat="43.923515" lon="8.041415"><ele>277.0</ele><time>2026-04-11T07:24:17.725Z</time></trkpt><trkpt lat="43.923595" lon="8.0413"><ele>277.0</ele><time>2026-04-11T07:24:28.725Z</time></trkpt><trkpt lat="43.9236333" lon="8.0412267"><ele>277.0</ele><time>2026-04-11T07:24:31.725Z</time></trkpt><trkpt lat="43.9236783" lon="8.041145"><ele>281.2</ele><time>2026-04-11T07:24:35.725Z</time></trkpt><trkpt lat="43.9237367" lon="8.0410767"><ele>285.4</ele><time>2026-04-11T07:24:39.726Z</time></trkpt><trkpt lat="43.9238983" lon="8.041005"><ele>289.6</ele><time>2026-04-11T07:24:49.725Z</time></trkpt><trkpt lat="43.9239717" lon="8.0409767"><ele>293.8</ele><time>2026-04-11T07:24:51.725Z</time></trkpt><trkpt lat="43.9240517" lon="8.0409433"><ele>298.0</ele><time>2026-04-11T07:24:53.725Z</time></trkpt><trkpt lat="43.9241417" lon="8.040935"><ele>298.0</ele><time>2026-04-11T07:24:56.725Z</time></trkpt><trkpt lat="43.92421" lon="8.0409283"><ele>298.0</ele><time>2026-04-11T07:24:59.725Z</time></trkpt><trkpt lat="43.9242733" lon="8.0409117"><ele>298.0</ele><time>2026-04-11T07:25:02.725Z</time></trkpt><trkpt lat="43.9243517" lon="8.04091"><ele>298.0</ele><time>2026-04-11T07:25:06.725Z</time></trkpt><trkpt lat="43.924425" lon="8.0409167"><ele>298.0</ele><time>2026-04-11T07:25:10.725Z</time></trkpt><trkpt lat="43.924495" lon="8.0409283"><ele>298.0</ele><time>2026-04-11T07:25:14.725Z</time></trkpt><trkpt lat="43.9245583" lon="8.040885"><ele>298.0</ele><time>2026-04-11T07:25:19.725Z</time></trkpt><trkpt lat="43.9246283" lon="8.04085"><ele>298.1428571428571</ele><time>2026-04-11T07:25:23.725Z</time></trkpt><trkpt lat="43.9246933" lon="8.040865"><ele>298.2857142857143</ele><time>2026-04-11T07:25:26.724Z</time></trkpt><trkpt lat="43.9247667" lon="8.0409017"><ele>298.42857142857144</ele><time>2026-04-11T07:25:29.724Z</time></trkpt><trkpt lat="43.9248283" lon="8.0409417"><ele>298.57142857142856</ele><time>2026-04-11T07:25:32.724Z</time></trkpt><trkpt lat="43.924915" lon="8.04094"><ele>298.7142857142857</ele><time>2026-04-11T07:25:35.724Z</time></trkpt><trkpt lat="43.9249867" lon="8.0409467"><ele>298.85714285714283</ele><time>2026-04-11T07:25:37.724Z</time></trkpt><trkpt lat="43.9250533" lon="8.0409683"><ele>299.0</ele><time>2026-04-11T07:25:39.724Z</time></trkpt><trkpt lat="43.925115" lon="8.0410017"><ele>299.6666666666667</ele><time>2026-04-11T07:25:41.724Z</time></trkpt><trkpt lat="43.9251767" lon="8.0410383"><ele>300.33333333333337</ele><time>2026-04-11T07:25:43.725Z</time></trkpt><trkpt lat="43.92524" lon="8.0410617"><ele>301.0</ele><time>2026-04-11T07:25:45.724Z</time></trkpt><trkpt lat="43.92533" lon="8.0410917"><ele>301.6666666666667</ele><time>2026-04-11T07:25:48.724Z</time></trkpt><trkpt lat="43.9254183" lon="8.041115"><ele>302.3333333333333</ele><time>2026-04-11T07:25:51.724Z</time></trkpt><trkpt lat="43.9254983" lon="8.04113"><ele>303.0</ele><time>2026-04-11T07:25:54.724Z</time></trkpt><trkpt lat="43.925585" lon="8.0411567"><ele>303.0</ele><time>2026-04-11T07:25:57.724Z</time></trkpt><trkpt lat="43.9256667" lon="8.0411933"><ele>303.0</ele><time>2026-04-11T07:26:00.724Z</time></trkpt><trkpt lat="43.92573" lon="8.041195"><ele>303.0</ele><time>2026-04-11T07:26:03.724Z</time></trkpt><trkpt lat="43.92581" lon="8.041175"><ele>303.0</ele><time>2026-04-11T07:26:07.724Z</time></trkpt><trkpt lat="43.9258667" lon="8.0411167"><ele>303.0</ele><time>2026-04-11T07:26:11.725Z</time></trkpt><trkpt lat="43.9259117" lon="8.0410517"><ele>303.0</ele><time>2026-04-11T07:26:14.724Z</time></trkpt><trkpt lat="43.925985" lon="8.0409767"><ele>303.3333333333333</ele><time>2026-04-11T07:26:17.724Z</time></trkpt><trkpt lat="43.9260633" lon="8.04091"><ele>303.6666666666667</ele><time>2026-04-11T07:26:20.725Z</time></trkpt><trkpt lat="43.9261367" lon="8.0408583"><ele>304.0</ele><time>2026-04-11T07:26:23.724Z</time></trkpt><trkpt lat="43.9262067" lon="8.040795"><ele>304.33333333333337</ele><time>2026-04-11T07:26:26.724Z</time></trkpt><trkpt lat="43.9262683" lon="8.0407433"><ele>304.6666666666667</ele><time>2026-04-11T07:26:29.724Z</time></trkpt><trkpt lat="43.9263283" lon="8.040705"><ele>305.0</ele><time>2026-04-11T07:26:31.724Z</time></trkpt><trkpt lat="43.9263883" lon="8.0406667"><ele>305.0</ele><time>2026-04-11T07:26:33.724Z</time></trkpt><trkpt lat="43.926455" lon="8.04064"><ele>305.0</ele><time>2026-04-11T07:26:35.724Z</time></trkpt><trkpt lat="43.92653" lon="8.0406033"><ele>305.0</ele><time>2026-04-11T07:26:38.724Z</time></trkpt><trkpt lat="43.9266083" lon="8.040545"><ele>305.0</ele><time>2026-04-11T07:26:41.725Z</time></trkpt><trkpt lat="43.9266867" lon="8.0404833"><ele>305.0</ele><time>2026-04-11T07:26:44.725Z</time></trkpt><trkpt lat="43.9267683" lon="8.0404167"><ele>305.0</ele><time>2026-04-11T07:26:47.724Z</time></trkpt><trkpt lat="43.9268267" lon="8.0403717"><ele>306.83333333333337</ele><time>2026-04-11T07:26:49.724Z</time></trkpt><trkpt lat="43.926885" lon="8.0403283"><ele>308.6666666666667</ele><time>2026-04-11T07:26:51.724Z</time></trkpt><trkpt lat="43.9269617" lon="8.0402717"><ele>310.5</ele><time>2026-04-11T07:26:54.724Z</time></trkpt><trkpt lat="43.927025" lon="8.040225"><ele>312.3333333333333</ele><time>2026-04-11T07:26:57.724Z</time></trkpt><trkpt lat="43.9270817" lon="8.0401633"><ele>314.16666666666663</ele><time>2026-04-11T07:27:01.725Z</time></trkpt><trkpt lat="43.9271333" lon="8.0400883"><ele>316.0</ele><time>2026-04-11T07:27:05.725Z</time></trkpt><trkpt lat="43.9271933" lon="8.0400183"><ele>316.00000000000006</ele><time>2026-04-11T07:27:09.724Z</time></trkpt><trkpt lat="43.9272467" lon="8.0399667"><ele>316.0</ele><time>2026-04-11T07:27:12.724Z</time></trkpt><trkpt lat="43.9272883" lon="8.0398933"><ele>316.0</ele><time>2026-04-11T07:27:15.724Z</time></trkpt><trkpt lat="43.927325" lon="8.03981"><ele>316.0</ele><time>2026-04-11T07:27:19.724Z</time></trkpt><trkpt lat="43.9273367" lon="8.0397"><ele>316.0</ele><time>2026-04-11T07:27:23.725Z</time></trkpt><trkpt lat="43.9273317" lon="8.0395883"><ele>316.00000000000006</ele><time>2026-04-11T07:27:26.724Z</time></trkpt><trkpt lat="43.9273617" lon="8.039505"><ele>316.0</ele><time>2026-04-11T07:27:29.725Z</time></trkpt><trkpt lat="43.9274" lon="8.0394267"><ele>316.00000000000006</ele><time>2026-04-11T07:27:32.724Z</time></trkpt><trkpt lat="43.9274167" lon="8.0393417"><ele>316.0</ele><time>2026-04-11T07:27:35.724Z</time></trkpt><trkpt lat="43.9274417" lon="8.0392533"><ele>316.0</ele><time>2026-04-11T07:27:39.724Z</time></trkpt><trkpt lat="43.9274967" lon="8.039185"><ele>316.0</ele><time>2026-04-11T07:27:43.724Z</time></trkpt><trkpt lat="43.9275483" lon="8.0391333"><ele>316.0</ele><time>2026-04-11T07:27:46.724Z</time></trkpt><trkpt lat="43.9276083" lon="8.0390617"><ele>316.00000000000006</ele><time>2026-04-11T07:27:51.724Z</time></trkpt><trkpt lat="43.9276717" lon="8.0390167"><ele>316.0</ele><time>2026-04-11T07:27:55.724Z</time></trkpt><trkpt lat="43.927735" lon="8.0389817"><ele>318.5714285714286</ele><time>2026-04-11T07:27:59.724Z</time></trkpt><trkpt lat="43.9277983" lon="8.03896"><ele>321.14285714285717</ele><time>2026-04-11T07:28:03.724Z</time></trkpt><trkpt lat="43.92786" lon="8.0388967"><ele>323.7142857142857</ele><time>2026-04-11T07:28:07.724Z</time></trkpt><trkpt lat="43.9279233" lon="8.0388433"><ele>326.28571428571433</ele><time>2026-04-11T07:28:11.724Z</time></trkpt><trkpt lat="43.9279767" lon="8.038795"><ele>328.8571428571429</ele><time>2026-04-11T07:28:15.724Z</time></trkpt><trkpt lat="43.928025" lon="8.0387367"><ele>331.42857142857144</ele><time>2026-04-11T07:28:19.724Z</time></trkpt><trkpt lat="43.9280817" lon="8.03867"><ele>334.0</ele><time>2026-04-11T07:28:24.724Z</time></trkpt><trkpt lat="43.9281817" lon="8.0386217"><ele>334.0</ele><time>2026-04-11T07:28:43.724Z</time></trkpt><trkpt lat="43.9282433" lon="8.0385583"><ele>334.0</ele><time>2026-04-11T07:28:46.724Z</time></trkpt><trkpt lat="43.928305" lon="8.038495"><ele>334.0</ele><time>2026-04-11T07:28:49.724Z</time></trkpt><trkpt lat="43.9283683" lon="8.0384217"><ele>334.0</ele><time>2026-04-11T07:28:52.724Z</time></trkpt><trkpt lat="43.9284317" lon="8.0383783"><ele>334.0</ele><time>2026-04-11T07:28:55.724Z</time></trkpt><trkpt lat="43.9285" lon="8.0383433"><ele>334.0</ele><time>2026-04-11T07:28:58.724Z</time></trkpt><trkpt lat="43.9285667" lon="8.0382983"><ele>337.42857142857144</ele><time>2026-04-11T07:29:01.724Z</time></trkpt><trkpt lat="43.92863" lon="8.0382383"><ele>340.8571428571429</ele><time>2026-04-11T07:29:04.724Z</time></trkpt><trkpt lat="43.9286883" lon="8.0381983"><ele>344.28571428571433</ele><time>2026-04-11T07:29:07.724Z</time></trkpt><trkpt lat="43.9287483" lon="8.038145"><ele>347.7142857142857</ele><time>2026-04-11T07:29:11.724Z</time></trkpt><trkpt lat="43.9286933" lon="8.0380967"><ele>351.14285714285717</ele><time>2026-04-11T07:29:17.724Z</time></trkpt><trkpt lat="43.9286433" lon="8.038025"><ele>354.5714285714286</ele><time>2026-04-11T07:29:21.724Z</time></trkpt><trkpt lat="43.9286117" lon="8.03793"><ele>358.0</ele><time>2026-04-11T07:29:25.724Z</time></trkpt><trkpt lat="43.9285983" lon="8.0378317"><ele>358.0</ele><time>2026-04-11T07:29:28.724Z</time></trkpt><trkpt lat="43.92862" lon="8.037725"><ele>358.0</ele><time>2026-04-11T07:29:31.724Z</time></trkpt><trkpt lat="43.9286533" lon="8.03762"><ele>358.0</ele><time>2026-04-11T07:29:34.724Z</time></trkpt><trkpt lat="43.9286783" lon="8.03751"><ele>358.0</ele><time>2026-04-11T07:29:37.724Z</time></trkpt><trkpt lat="43.9287" lon="8.0373983"><ele>358.0</ele><time>2026-04-11T07:29:40.724Z</time></trkpt><trkpt lat="43.9287117" lon="8.0372883"><ele>358.0</ele><time>2026-04-11T07:29:43.724Z</time></trkpt><trkpt lat="43.9287217" lon="8.0371833"><ele>359.66666666666663</ele><time>2026-04-11T07:29:46.724Z</time></trkpt><trkpt lat="43.9287317" lon="8.037075"><ele>361.3333333333333</ele><time>2026-04-11T07:29:49.724Z</time></trkpt><trkpt lat="43.928725" lon="8.0369817"><ele>363.0</ele><time>2026-04-11T07:29:52.724Z</time></trkpt><trkpt lat="43.92869" lon="8.036885"><ele>364.6666666666667</ele><time>2026-04-11T07:29:55.724Z</time></trkpt><trkpt lat="43.9286417" lon="8.0367917"><ele>366.33333333333337</ele><time>2026-04-11T07:29:58.724Z</time></trkpt><trkpt lat="43.9285967" lon="8.03671"><ele>368.0</ele><time>2026-04-11T07:30:01.724Z</time></trkpt><trkpt lat="43.9285433" lon="8.0366417"><ele>366.5</ele><time>2026-04-11T07:30:04.724Z</time></trkpt><trkpt lat="43.9284883" lon="8.0365817"><ele>365.0</ele><time>2026-04-11T07:30:07.724Z</time></trkpt><trkpt lat="43.9284567" lon="8.0364867"><ele>363.5</ele><time>2026-04-11T07:30:10.724Z</time></trkpt><trkpt lat="43.9284767" lon="8.0363767"><ele>362.0</ele><time>2026-04-11T07:30:13.724Z</time></trkpt><trkpt lat="43.92852" lon="8.0362583"><ele>360.5</ele><time>2026-04-11T07:30:16.724Z</time></trkpt><trkpt lat="43.9285617" lon="8.03617"><ele>359.0</ele><time>2026-04-11T07:30:19.724Z</time></trkpt><trkpt lat="43.9285567" lon="8.03608"><ele>359.0</ele><time>2026-04-11T07:30:22.724Z</time></trkpt><trkpt lat="43.9285933" lon="8.036005"><ele>359.0</ele><time>2026-04-11T07:30:26.724Z</time></trkpt><trkpt lat="43.9286517" lon="8.0359483"><ele>359.0</ele><time>2026-04-11T07:30:30.725Z</time></trkpt><trkpt lat="43.9287083" lon="8.0359083"><ele>359.0</ele><time>2026-04-11T07:30:37.725Z</time></trkpt><trkpt lat="43.92878" lon="8.0358483"><ele>359.0</ele><time>2026-04-11T07:30:44.725Z</time></trkpt><trkpt lat="43.92883" lon="8.0357917"><ele>359.0</ele><time>2026-04-11T07:30:48.724Z</time></trkpt><trkpt lat="43.928895" lon="8.0358283"><ele>359.0</ele><time>2026-04-11T07:30:54.724Z</time></trkpt><trkpt lat="43.928965" lon="8.0359583"><ele>359.0</ele><time>2026-04-11T07:31:23.724Z</time></trkpt><trkpt lat="43.9289767" lon="8.0360583"><ele>359.0</ele><time>2026-04-11T07:31:30.725Z</time></trkpt><trkpt lat="43.9290367" lon="8.0360883"><ele>359.0</ele><time>2026-04-11T07:31:42.725Z</time></trkpt><trkpt lat="43.92908" lon="8.0360167"><ele>359.0</ele><time>2026-04-11T07:31:46.724Z</time></trkpt><trkpt lat="43.9291217" lon="8.0359467"><ele>359.0</ele><time>2026-04-11T07:31:49.724Z</time></trkpt><trkpt lat="43.929175" lon="8.03587"><ele>359.0</ele><time>2026-04-11T07:31:52.724Z</time></trkpt><trkpt lat="43.9292417" lon="8.0358017"><ele>359.0</ele><time>2026-04-11T07:31:55.724Z</time></trkpt><trkpt lat="43.9293083" lon="8.0357333"><ele>359.5</ele><time>2026-04-11T07:31:58.724Z</time></trkpt><trkpt lat="43.9293517" lon="8.0356617"><ele>360.0</ele><time>2026-04-11T07:32:01.725Z</time></trkpt><trkpt lat="43.929415" lon="8.0355783"><ele>360.5</ele><time>2026-04-11T07:32:04.725Z</time></trkpt><trkpt lat="43.9294983" lon="8.0355317"><ele>361.0</ele><time>2026-04-11T07:32:07.724Z</time></trkpt><trkpt lat="43.9295583" lon="8.0354867"><ele>361.5</ele><time>2026-04-11T07:32:09.725Z</time></trkpt><trkpt lat="43.9296167" lon="8.0354383"><ele>362.0</ele><time>2026-04-11T07:32:11.724Z</time></trkpt><trkpt lat="43.929685" lon="8.0353967"><ele>362.0</ele><time>2026-04-11T07:32:13.724Z</time></trkpt><trkpt lat="43.9297433" lon="8.03536"><ele>362.0</ele><time>2026-04-11T07:32:15.724Z</time></trkpt><trkpt lat="43.92981" lon="8.0353417"><ele>362.0</ele><time>2026-04-11T07:32:17.724Z</time></trkpt><trkpt lat="43.929895" lon="8.035365"><ele>362.0</ele><time>2026-04-11T07:32:20.724Z</time></trkpt><trkpt lat="43.9299667" lon="8.035355"><ele>362.0</ele><time>2026-04-11T07:32:23.725Z</time></trkpt><trkpt lat="43.930045" lon="8.0353017"><ele>362.0</ele><time>2026-04-11T07:32:26.724Z</time></trkpt><trkpt lat="43.930115" lon="8.035255"><ele>363.2857142857143</ele><time>2026-04-11T07:32:30.725Z</time></trkpt><trkpt lat="43.9301917" lon="8.035225"><ele>364.57142857142856</ele><time>2026-04-11T07:32:35.724Z</time></trkpt><trkpt lat="43.93025" lon="8.03518"><ele>365.8571428571429</ele><time>2026-04-11T07:32:39.724Z</time></trkpt><trkpt lat="43.9303117" lon="8.0351367"><ele>367.1428571428571</ele><time>2026-04-11T07:32:44.724Z</time></trkpt><trkpt lat="43.9303717" lon="8.0350983"><ele>368.42857142857144</ele><time>2026-04-11T07:32:51.724Z</time></trkpt><trkpt lat="43.93042" lon="8.0350167"><ele>369.7142857142857</ele><time>2026-04-11T07:33:00.724Z</time></trkpt><trkpt lat="43.9304883" lon="8.0349583"><ele>371.0</ele><time>2026-04-11T07:33:05.725Z</time></trkpt><trkpt lat="43.9305467" lon="8.03488"><ele>371.0</ele><time>2026-04-11T07:33:09.724Z</time></trkpt><trkpt lat="43.9306067" lon="8.034825"><ele>371.0</ele><time>2026-04-11T07:33:12.724Z</time></trkpt><trkpt lat="43.93069" lon="8.0347867"><ele>371.0</ele><time>2026-04-11T07:33:15.724Z</time></trkpt><trkpt lat="43.930775" lon="8.034765"><ele>371.0</ele><time>2026-04-11T07:33:18.724Z</time></trkpt><trkpt lat="43.9308533" lon="8.0347433"><ele>371.0</ele><time>2026-04-11T07:33:21.724Z</time></trkpt><trkpt lat="43.9309183" lon="8.0346917"><ele>371.0</ele><time>2026-04-11T07:33:24.724Z</time></trkpt><trkpt lat="43.93098" lon="8.0346433"><ele>373.83333333333337</ele><time>2026-04-11T07:33:26.724Z</time></trkpt><trkpt lat="43.9310683" lon="8.034585"><ele>376.6666666666667</ele><time>2026-04-11T07:33:28.724Z</time></trkpt><trkpt lat="43.93115" lon="8.0345517"><ele>379.5</ele><time>2026-04-11T07:33:30.725Z</time></trkpt><trkpt lat="43.9312183" lon="8.0345233"><ele>382.33333333333337</ele><time>2026-04-11T07:33:32.724Z</time></trkpt><trkpt lat="43.9312833" lon="8.0344917"><ele>385.1666666666667</ele><time>2026-04-11T07:33:34.724Z</time></trkpt><trkpt lat="43.93137" lon="8.034465"><ele>388.0</ele><time>2026-04-11T07:33:37.724Z</time></trkpt><trkpt lat="43.9314283" lon="8.03442"><ele>388.0</ele><time>2026-04-11T07:33:39.724Z</time></trkpt><trkpt lat="43.9314883" lon="8.0343817"><ele>388.0</ele><time>2026-04-11T07:33:41.724Z</time></trkpt><trkpt lat="43.931545" lon="8.0344383"><ele>388.0</ele><time>2026-04-11T07:33:46.724Z</time></trkpt><trkpt lat="43.931535" lon="8.0345367"><ele>388.0</ele><time>2026-04-11T07:34:00.725Z</time></trkpt><trkpt lat="43.9315333" lon="8.034635"><ele>388.0</ele><time>2026-04-11T07:34:04.724Z</time></trkpt><trkpt lat="43.9315667" lon="8.0347167"><ele>388.0</ele><time>2026-04-11T07:34:27.724Z</time></trkpt><trkpt lat="43.9315867" lon="8.0348067"><ele>388.0</ele><time>2026-04-11T07:34:44.724Z</time></trkpt><trkpt lat="43.931695" lon="8.03476"><ele>390.6666666666667</ele><time>2026-04-11T07:35:40.724Z</time></trkpt><trkpt lat="43.9317633" lon="8.0346683"><ele>393.33333333333337</ele><time>2026-04-11T07:35:43.724Z</time></trkpt><trkpt lat="43.9318167" lon="8.0346133"><ele>396.0</ele><time>2026-04-11T07:35:45.724Z</time></trkpt><trkpt lat="43.9318733" lon="8.0345633"><ele>398.66666666666663</ele><time>2026-04-11T07:35:47.724Z</time></trkpt><trkpt lat="43.9319583" lon="8.0345133"><ele>401.3333333333333</ele><time>2026-04-11T07:35:50.724Z</time></trkpt><trkpt lat="43.932035" lon="8.0344567"><ele>404.0</ele><time>2026-04-11T07:35:53.724Z</time></trkpt><trkpt lat="43.9320967" lon="8.03438"><ele>403.99999999999994</ele><time>2026-04-11T07:35:56.724Z</time></trkpt><trkpt lat="43.9321517" lon="8.0343183"><ele>404.0</ele><time>2026-04-11T07:35:58.725Z</time></trkpt><trkpt lat="43.9322117" lon="8.0342783"><ele>404.0</ele><time>2026-04-11T07:36:00.724Z</time></trkpt><trkpt lat="43.9322883" lon="8.0342283"><ele>404.0</ele><time>2026-04-11T07:36:03.724Z</time></trkpt><trkpt lat="43.932355" lon="8.0342067"><ele>403.99999999999994</ele><time>2026-04-11T07:36:06.724Z</time></trkpt><trkpt lat="43.932425" lon="8.03412"><ele>404.0</ele><time>2026-04-11T07:36:10.724Z</time></trkpt><trkpt lat="43.93248" lon="8.0340617"><ele>403.16666666666663</ele><time>2026-04-11T07:36:12.724Z</time></trkpt><trkpt lat="43.9325517" lon="8.033995"><ele>402.3333333333333</ele><time>2026-04-11T07:36:15.724Z</time></trkpt><trkpt lat="43.9326167" lon="8.0339817"><ele>401.5</ele><time>2026-04-11T07:36:19.724Z</time></trkpt><trkpt lat="43.9327083" lon="8.0339817"><ele>400.66666666666663</ele><time>2026-04-11T07:37:55.725Z</time></trkpt><trkpt lat="43.9327833" lon="8.034015"><ele>399.8333333333333</ele><time>2026-04-11T07:37:58.724Z</time></trkpt><trkpt lat="43.9328467" lon="8.0340333"><ele>399.0</ele><time>2026-04-11T07:38:00.725Z</time></trkpt><trkpt lat="43.9329267" lon="8.0340733"><ele>399.1666666666667</ele><time>2026-04-11T07:38:03.725Z</time></trkpt><trkpt lat="43.933" lon="8.0341"><ele>399.33333333333337</ele><time>2026-04-11T07:38:05.725Z</time></trkpt><trkpt lat="43.93309" lon="8.0341317"><ele>399.5</ele><time>2026-04-11T07:38:07.724Z</time></trkpt><trkpt lat="43.9331717" lon="8.034185"><ele>399.6666666666667</ele><time>2026-04-11T07:38:09.724Z</time></trkpt><trkpt lat="43.9332283" lon="8.034225"><ele>399.83333333333337</ele><time>2026-04-11T07:38:11.724Z</time></trkpt><trkpt lat="43.9332933" lon="8.0342417"><ele>400.0</ele><time>2026-04-11T07:38:15.724Z</time></trkpt><trkpt lat="43.9333517" lon="8.0342"><ele>399.83333333333337</ele><time>2026-04-11T07:38:18.724Z</time></trkpt><trkpt lat="43.9334383" lon="8.0341833"><ele>399.6666666666667</ele><time>2026-04-11T07:38:21.725Z</time></trkpt><trkpt lat="43.9335117" lon="8.0341783"><ele>399.5</ele><time>2026-04-11T07:38:23.724Z</time></trkpt><trkpt lat="43.9335917" lon="8.034165"><ele>399.33333333333337</ele><time>2026-04-11T07:38:25.725Z</time></trkpt><trkpt lat="43.933675" lon="8.0341467"><ele>399.1666666666667</ele><time>2026-04-11T07:38:27.724Z</time></trkpt><trkpt lat="43.9337483" lon="8.0341483"><ele>399.0</ele><time>2026-04-11T07:38:29.725Z</time></trkpt><trkpt lat="43.9338117" lon="8.0341517"><ele>399.0</ele><time>2026-04-11T07:38:31.724Z</time></trkpt><trkpt lat="43.9338833" lon="8.0341517"><ele>399.0</ele><time>2026-04-11T07:38:33.724Z</time></trkpt><trkpt lat="43.93396" lon="8.0341583"><ele>399.0</ele><time>2026-04-11T07:38:35.724Z</time></trkpt><trkpt lat="43.934035" lon="8.03417"><ele>399.0</ele><time>2026-04-11T07:38:37.724Z</time></trkpt><trkpt lat="43.9341133" lon="8.0341733"><ele>399.0</ele><time>2026-04-11T07:38:39.724Z</time></trkpt><trkpt lat="43.934185" lon="8.0341467"><ele>399.0</ele><time>2026-04-11T07:38:41.724Z</time></trkpt><trkpt lat="43.9342567" lon="8.0341283"><ele>399.0</ele><time>2026-04-11T07:38:43.724Z</time></trkpt><trkpt lat="43.934325" lon="8.0341083"><ele>394.8333333333333</ele><time>2026-04-11T07:38:45.724Z</time></trkpt><trkpt lat="43.934395" lon="8.034095"><ele>390.6666666666667</ele><time>2026-04-11T07:38:47.724Z</time></trkpt><trkpt lat="43.93448" lon="8.03411"><ele>386.5</ele><time>2026-04-11T07:38:50.724Z</time></trkpt><trkpt lat="43.9345817" lon="8.034125"><ele>382.33333333333337</ele><time>2026-04-11T07:38:53.724Z</time></trkpt><trkpt lat="43.9346717" lon="8.03411"><ele>378.1666666666667</ele><time>2026-04-11T07:38:55.724Z</time></trkpt><trkpt lat="43.9347533" lon="8.0340817"><ele>374.0</ele><time>2026-04-11T07:38:57.724Z</time></trkpt><trkpt lat="43.934845" lon="8.03406"><ele>374.0</ele><time>2026-04-11T07:38:59.725Z</time></trkpt><trkpt lat="43.9349417" lon="8.0340533"><ele>374.0</ele><time>2026-04-11T07:39:01.724Z</time></trkpt><trkpt lat="43.935035" lon="8.0340367"><ele>374.0</ele><time>2026-04-11T07:39:03.724Z</time></trkpt><trkpt lat="43.9351067" lon="8.03403"><ele>374.0</ele><time>2026-04-11T07:39:05.724Z</time></trkpt><trkpt lat="43.935185" lon="8.0340083"><ele>374.0</ele><time>2026-04-11T07:39:22.725Z</time></trkpt><trkpt lat="43.9352667" lon="8.0339683"><ele>374.0</ele><time>2026-04-11T07:39:25.724Z</time></trkpt><trkpt lat="43.9353483" lon="8.03392"><ele>377.33333333333337</ele><time>2026-04-11T07:39:27.724Z</time></trkpt><trkpt lat="43.9354283" lon="8.0338483"><ele>380.6666666666667</ele><time>2026-04-11T07:39:29.724Z</time></trkpt><trkpt lat="43.9355017" lon="8.0337717"><ele>384.0</ele><time>2026-04-11T07:39:31.725Z</time></trkpt><trkpt lat="43.9355483" lon="8.0336833"><ele>387.33333333333337</ele><time>2026-04-11T07:39:33.724Z</time></trkpt><trkpt lat="43.93557" lon="8.033585"><ele>390.6666666666667</ele><time>2026-04-11T07:39:35.724Z</time></trkpt><trkpt lat="43.93562" lon="8.0335267"><ele>394.0</ele><time>2026-04-11T07:39:37.724Z</time></trkpt><trkpt lat="43.9356867" lon="8.0334583"><ele>394.00000000000006</ele><time>2026-04-11T07:39:39.724Z</time></trkpt><trkpt lat="43.9357417" lon="8.03339"><ele>394.0</ele><time>2026-04-11T07:39:41.724Z</time></trkpt><trkpt lat="43.935795" lon="8.0333133"><ele>394.0</ele><time>2026-04-11T07:39:43.724Z</time></trkpt><trkpt lat="43.9358483" lon="8.0332483"><ele>394.0</ele><time>2026-04-11T07:39:45.724Z</time></trkpt><trkpt lat="43.935905" lon="8.0331583"><ele>394.00000000000006</ele><time>2026-04-11T07:39:47.725Z</time></trkpt><trkpt lat="43.9359667" lon="8.0330967"><ele>394.0</ele><time>2026-04-11T07:39:49.724Z</time></trkpt><trkpt lat="43.9360167" lon="8.0330317"><ele>391.33333333333337</ele><time>2026-04-11T07:39:51.724Z</time></trkpt><trkpt lat="43.93606" lon="8.0329633"><ele>388.6666666666667</ele><time>2026-04-11T07:39:53.724Z</time></trkpt><trkpt lat="43.936115" lon="8.03289"><ele>386.0</ele><time>2026-04-11T07:39:56.724Z</time></trkpt><trkpt lat="43.936195" lon="8.0328417"><ele>383.33333333333337</ele><time>2026-04-11T07:39:59.724Z</time></trkpt><trkpt lat="43.936265" lon="8.0328317"><ele>380.6666666666667</ele><time>2026-04-11T07:40:01.724Z</time></trkpt><trkpt lat="43.9363317" lon="8.0328233"><ele>378.0</ele><time>2026-04-11T07:40:03.724Z</time></trkpt><trkpt lat="43.9364183" lon="8.0328383"><ele>378.0</ele><time>2026-04-11T07:40:06.725Z</time></trkpt><trkpt lat="43.936485" lon="8.0328617"><ele>378.0</ele><time>2026-04-11T07:40:09.724Z</time></trkpt><trkpt lat="43.9365617" lon="8.032895"><ele>378.0</ele><time>2026-04-11T07:40:12.724Z</time></trkpt><trkpt lat="43.9366267" lon="8.0329083"><ele>378.0</ele><time>2026-04-11T07:40:18.724Z</time></trkpt><trkpt lat="43.9366967" lon="8.032895"><ele>378.0</ele><time>2026-04-11T07:40:20.724Z</time></trkpt><trkpt lat="43.9367933" lon="8.0328817"><ele>378.0</ele><time>2026-04-11T07:40:22.724Z</time></trkpt><trkpt lat="43.9368783" lon="8.03286"><ele>379.0</ele><time>2026-04-11T07:40:24.725Z</time></trkpt><trkpt lat="43.9369667" lon="8.0328483"><ele>380.0</ele><time>2026-04-11T07:40:26.724Z</time></trkpt><trkpt lat="43.937055" lon="8.0328317"><ele>381.0</ele><time>2026-04-11T07:40:28.725Z</time></trkpt><trkpt lat="43.9371417" lon="8.0328383"><ele>382.0</ele><time>2026-04-11T07:40:30.724Z</time></trkpt><trkpt lat="43.9372317" lon="8.032855"><ele>383.0</ele><time>2026-04-11T07:40:32.724Z</time></trkpt><trkpt lat="43.9373367" lon="8.0328533"><ele>383.0</ele><time>2026-04-11T07:40:34.724Z</time></trkpt><trkpt lat="43.9374267" lon="8.032855"><ele>383.0</ele><time>2026-04-11T07:40:36.724Z</time></trkpt><trkpt lat="43.9374917" lon="8.0328383"><ele>383.0</ele><time>2026-04-11T07:40:38.724Z</time></trkpt><trkpt lat="43.93757" lon="8.0328067"><ele>383.0</ele><time>2026-04-11T07:40:40.724Z</time></trkpt><trkpt lat="43.9376433" lon="8.0327683"><ele>383.0</ele><time>2026-04-11T07:40:42.724Z</time></trkpt><trkpt lat="43.9377117" lon="8.0327467"><ele>383.0</ele><time>2026-04-11T07:40:44.724Z</time></trkpt><trkpt lat="43.9377767" lon="8.0327583"><ele>385.4</ele><time>2026-04-11T07:40:46.724Z</time></trkpt><trkpt lat="43.9378583" lon="8.0328033"><ele>387.79999999999995</ele><time>2026-04-11T07:40:49.724Z</time></trkpt><trkpt lat="43.9379467" lon="8.0328317"><ele>390.2</ele><time>2026-04-11T07:40:52.724Z</time></trkpt><trkpt lat="43.93803" lon="8.0328717"><ele>392.6</ele><time>2026-04-11T07:40:56.724Z</time></trkpt><trkpt lat="43.9381167" lon="8.03285"><ele>395.0</ele><time>2026-04-11T07:40:59.724Z</time></trkpt><trkpt lat="43.9382033" lon="8.0327933"><ele>394.99999999999994</ele><time>2026-04-11T07:41:02.724Z</time></trkpt><trkpt lat="43.93827" lon="8.0327483"><ele>395.0</ele><time>2026-04-11T07:41:04.724Z</time></trkpt><trkpt lat="43.9383333" lon="8.032685"><ele>395.0</ele><time>2026-04-11T07:41:06.725Z</time></trkpt><trkpt lat="43.9384067" lon="8.032615"><ele>395.0</ele><time>2026-04-11T07:41:08.725Z</time></trkpt><trkpt lat="43.9384767" lon="8.0325333"><ele>394.99999999999994</ele><time>2026-04-11T07:41:10.725Z</time></trkpt><trkpt lat="43.9385433" lon="8.0324483"><ele>395.0</ele><time>2026-04-11T07:41:12.726Z</time></trkpt><trkpt lat="43.9386167" lon="8.0323933"><ele>396.2857142857143</ele><time>2026-04-11T07:41:14.725Z</time></trkpt><trkpt lat="43.938685" lon="8.032355"><ele>397.5714285714286</ele><time>2026-04-11T07:41:16.725Z</time></trkpt><trkpt lat="43.938745" lon="8.032385"><ele>398.8571428571429</ele><time>2026-04-11T07:41:20.725Z</time></trkpt><trkpt lat="43.9387" lon="8.0324633"><ele>400.1428571428571</ele><time>2026-04-11T07:41:24.725Z</time></trkpt><trkpt lat="43.938645" lon="8.0325333"><ele>401.42857142857144</ele><time>2026-04-11T07:41:27.725Z</time></trkpt><trkpt lat="43.9385883" lon="8.0326167"><ele>402.7142857142857</ele><time>2026-04-11T07:41:30.725Z</time></trkpt><trkpt lat="43.9386483" lon="8.0325883"><ele>404.0</ele><time>2026-04-11T07:41:37.725Z</time></trkpt><trkpt lat="43.9387083" lon="8.0325583"><ele>403.99999999999994</ele><time>2026-04-11T07:41:39.725Z</time></trkpt><trkpt lat="43.9387967" lon="8.032565"><ele>404.0</ele><time>2026-04-11T07:41:42.725Z</time></trkpt><trkpt lat="43.9388817" lon="8.0325983"><ele>404.0</ele><time>2026-04-11T07:41:45.725Z</time></trkpt><trkpt lat="43.938945" lon="8.0326183"><ele>404.0</ele><time>2026-04-11T07:41:47.725Z</time></trkpt><trkpt lat="43.939025" lon="8.0326017"><ele>403.99999999999994</ele><time>2026-04-11T07:41:50.725Z</time></trkpt><trkpt lat="43.9391083" lon="8.032605"><ele>404.0</ele><time>2026-04-11T07:41:53.725Z</time></trkpt><trkpt lat="43.9391883" lon="8.03261"><ele>402.66666666666663</ele><time>2026-04-11T07:41:56.725Z</time></trkpt><trkpt lat="43.9392733" lon="8.032635"><ele>401.3333333333333</ele><time>2026-04-11T07:41:59.725Z</time></trkpt><trkpt lat="43.93935" lon="8.0326917"><ele>400.0</ele><time>2026-04-11T07:42:02.725Z</time></trkpt><trkpt lat="43.93941" lon="8.03278"><ele>398.66666666666663</ele><time>2026-04-11T07:42:05.725Z</time></trkpt><trkpt lat="43.939465" lon="8.03285"><ele>397.3333333333333</ele><time>2026-04-11T07:42:08.725Z</time></trkpt><trkpt lat="43.939525" lon="8.0329233"><ele>396.0</ele><time>2026-04-11T07:42:11.725Z</time></trkpt><trkpt lat="43.939585" lon="8.0330183"><ele>396.0</ele><time>2026-04-11T07:42:14.725Z</time></trkpt><trkpt lat="43.9396417" lon="8.0331033"><ele>396.0</ele><time>2026-04-11T07:42:17.725Z</time></trkpt><trkpt lat="43.93968" lon="8.0331733"><ele>396.0</ele><time>2026-04-11T07:42:19.725Z</time></trkpt><trkpt lat="43.9397283" lon="8.033245"><ele>396.0</ele><time>2026-04-11T07:42:21.725Z</time></trkpt><trkpt lat="43.9397983" lon="8.033325"><ele>396.0</ele><time>2026-04-11T07:42:24.726Z</time></trkpt><trkpt lat="43.93987" lon="8.03341"><ele>396.0</ele><time>2026-04-11T07:42:27.725Z</time></trkpt><trkpt lat="43.9399233" lon="8.0334633"><ele>399.5</ele><time>2026-04-11T07:42:29.725Z</time></trkpt><trkpt lat="43.940005" lon="8.03353"><ele>403.0</ele><time>2026-04-11T07:42:32.725Z</time></trkpt><trkpt lat="43.9400883" lon="8.033585"><ele>406.5</ele><time>2026-04-11T07:42:35.725Z</time></trkpt><trkpt lat="43.9401483" lon="8.0336217"><ele>410.0</ele><time>2026-04-11T07:42:37.725Z</time></trkpt><trkpt lat="43.940235" lon="8.0336617"><ele>413.5</ele><time>2026-04-11T07:42:40.725Z</time></trkpt><trkpt lat="43.94032" lon="8.0336767"><ele>417.0</ele><time>2026-04-11T07:42:43.725Z</time></trkpt><trkpt lat="43.940395" lon="8.0337133"><ele>417.1666666666667</ele><time>2026-04-11T07:42:46.726Z</time></trkpt><trkpt lat="43.94047" lon="8.03376"><ele>417.33333333333337</ele><time>2026-04-11T07:42:49.725Z</time></trkpt><trkpt lat="43.9405483" lon="8.0337967"><ele>417.5</ele><time>2026-04-11T07:42:52.726Z</time></trkpt><trkpt lat="43.9405917" lon="8.033895"><ele>417.6666666666667</ele><time>2026-04-11T07:42:56.725Z</time></trkpt><trkpt lat="43.94056" lon="8.0339717"><ele>417.83333333333337</ele><time>2026-04-11T07:42:59.725Z</time></trkpt><trkpt lat="43.9404833" lon="8.03404"><ele>418.0</ele><time>2026-04-11T07:43:03.726Z</time></trkpt><trkpt lat="43.9404183" lon="8.0340617"><ele>418.0</ele><time>2026-04-11T07:43:06.725Z</time></trkpt><trkpt lat="43.940345" lon="8.034075"><ele>418.0</ele><time>2026-04-11T07:43:09.726Z</time></trkpt><trkpt lat="43.9402833" lon="8.0340933"><ele>418.0</ele><time>2026-04-11T07:43:11.725Z</time></trkpt><trkpt lat="43.94022" lon="8.0341067"><ele>418.0</ele><time>2026-04-11T07:43:13.725Z</time></trkpt><trkpt lat="43.94015" lon="8.0340983"><ele>418.0</ele><time>2026-04-11T07:43:15.725Z</time></trkpt><trkpt lat="43.9400867" lon="8.0341133"><ele>418.0</ele><time>2026-04-11T07:43:17.725Z</time></trkpt><trkpt lat="43.94014" lon="8.0341783"><ele>418.0</ele><time>2026-04-11T07:43:24.725Z</time></trkpt><trkpt lat="43.9401883" lon="8.0342467"><ele>420.2857142857143</ele><time>2026-04-11T07:43:28.725Z</time></trkpt><trkpt lat="43.94022" lon="8.0343367"><ele>422.57142857142856</ele><time>2026-04-11T07:43:32.724Z</time></trkpt><trkpt lat="43.9402667" lon="8.0344033"><ele>424.8571428571429</ele><time>2026-04-11T07:43:39.724Z</time></trkpt><trkpt lat="43.9403317" lon="8.0343333"><ele>427.1428571428571</ele><time>2026-04-11T07:44:04.724Z</time></trkpt><trkpt lat="43.9403883" lon="8.0342783"><ele>429.42857142857144</ele><time>2026-04-11T07:44:08.725Z</time></trkpt><trkpt lat="43.9404483" lon="8.0342333"><ele>431.7142857142857</ele><time>2026-04-11T07:44:11.724Z</time></trkpt><trkpt lat="43.94052" lon="8.0341883"><ele>434.0</ele><time>2026-04-11T07:44:14.724Z</time></trkpt><trkpt lat="43.9405967" lon="8.03415"><ele>433.99999999999994</ele><time>2026-04-11T07:44:17.724Z</time></trkpt><trkpt lat="43.9406767" lon="8.0341417"><ele>434.0</ele><time>2026-04-11T07:44:20.724Z</time></trkpt><trkpt lat="43.9407567" lon="8.03413"><ele>434.0</ele><time>2026-04-11T07:44:23.724Z</time></trkpt><trkpt lat="43.940835" lon="8.0341067"><ele>434.0</ele><time>2026-04-11T07:44:26.724Z</time></trkpt><trkpt lat="43.9409233" lon="8.03408"><ele>433.99999999999994</ele><time>2026-04-11T07:44:29.724Z</time></trkpt><trkpt lat="43.941005" lon="8.0340533"><ele>434.0</ele><time>2026-04-11T07:44:32.724Z</time></trkpt><trkpt lat="43.9410767" lon="8.034015"><ele>434.66666666666663</ele><time>2026-04-11T07:44:35.724Z</time></trkpt><trkpt lat="43.94115" lon="8.03395"><ele>435.3333333333333</ele><time>2026-04-11T07:44:38.724Z</time></trkpt><trkpt lat="43.9412233" lon="8.03388"><ele>436.0</ele><time>2026-04-11T07:44:41.724Z</time></trkpt><trkpt lat="43.9412733" lon="8.0338233"><ele>436.66666666666663</ele><time>2026-04-11T07:44:43.724Z</time></trkpt><trkpt lat="43.941325" lon="8.0337683"><ele>437.3333333333333</ele><time>2026-04-11T07:44:45.725Z</time></trkpt><trkpt lat="43.9413917" lon="8.0336867"><ele>438.0</ele><time>2026-04-11T07:44:48.724Z</time></trkpt><trkpt lat="43.941455" lon="8.03359"><ele>438.0</ele><time>2026-04-11T07:44:51.724Z</time></trkpt><trkpt lat="43.9414983" lon="8.033485"><ele>438.0</ele><time>2026-04-11T07:44:54.724Z</time></trkpt><trkpt lat="43.9415233" lon="8.033395"><ele>438.0</ele><time>2026-04-11T07:44:57.724Z</time></trkpt><trkpt lat="43.9415517" lon="8.0332883"><ele>438.0</ele><time>2026-04-11T07:45:00.724Z</time></trkpt><trkpt lat="43.9415817" lon="8.0332083"><ele>438.0</ele><time>2026-04-11T07:45:02.725Z</time></trkpt><trkpt lat="43.941635" lon="8.0331133"><ele>438.0</ele><time>2026-04-11T07:45:05.725Z</time></trkpt><trkpt lat="43.941705" lon="8.0330267"><ele>436.0</ele><time>2026-04-11T07:45:08.724Z</time></trkpt><trkpt lat="43.9417617" lon="8.0329767"><ele>434.0</ele><time>2026-04-11T07:45:10.724Z</time></trkpt><trkpt lat="43.9418233" lon="8.0329367"><ele>432.0</ele><time>2026-04-11T07:45:12.724Z</time></trkpt><trkpt lat="43.9418867" lon="8.0329233"><ele>430.0</ele><time>2026-04-11T07:45:14.724Z</time></trkpt><trkpt lat="43.941975" lon="8.0329383"><ele>428.0</ele><time>2026-04-11T07:45:17.725Z</time></trkpt><trkpt lat="43.9420617" lon="8.0329833"><ele>426.0</ele><time>2026-04-11T07:45:20.725Z</time></trkpt><trkpt lat="43.94212" lon="8.0330183"><ele>424.0</ele><time>2026-04-11T07:45:22.724Z</time></trkpt><trkpt lat="43.94218" lon="8.0330533"><ele>424.00000000000006</ele><time>2026-04-11T07:45:24.724Z</time></trkpt><trkpt lat="43.9422417" lon="8.0330783"><ele>424.0</ele><time>2026-04-11T07:45:26.724Z</time></trkpt><trkpt lat="43.9423117" lon="8.0330917"><ele>424.0</ele><time>2026-04-11T07:45:28.724Z</time></trkpt><trkpt lat="43.94239" lon="8.0330917"><ele>424.0</ele><time>2026-04-11T07:45:30.725Z</time></trkpt><trkpt lat="43.942475" lon="8.0330933"><ele>424.00000000000006</ele><time>2026-04-11T07:45:32.724Z</time></trkpt><trkpt lat="43.9425667" lon="8.033075"><ele>424.0</ele><time>2026-04-11T07:45:34.724Z</time></trkpt><trkpt lat="43.9426683" lon="8.033055"><ele>426.5</ele><time>2026-04-11T07:45:36.724Z</time></trkpt><trkpt lat="43.9427767" lon="8.03303"><ele>429.0</ele><time>2026-04-11T07:45:38.724Z</time></trkpt><trkpt lat="43.9428883" lon="8.0329867"><ele>431.5</ele><time>2026-04-11T07:45:40.725Z</time></trkpt><trkpt lat="43.9430033" lon="8.03293"><ele>434.0</ele><time>2026-04-11T07:45:42.724Z</time></trkpt><trkpt lat="43.9431183" lon="8.0328667"><ele>434.0</ele><time>2026-04-11T07:45:44.724Z</time></trkpt><trkpt lat="43.9431717" lon="8.03282"><ele>434.0</ele><time>2026-04-11T07:45:45.724Z</time></trkpt><trkpt lat="43.9432717" lon="8.0327183"><ele>434.0</ele><time>2026-04-11T07:45:47.724Z</time></trkpt><trkpt lat="43.9433517" lon="8.032605"><ele>434.0</ele><time>2026-04-11T07:45:49.724Z</time></trkpt><trkpt lat="43.9434117" lon="8.0324983"><ele>434.0</ele><time>2026-04-11T07:45:51.724Z</time></trkpt><trkpt lat="43.9434617" lon="8.032435"><ele>436.3333333333333</ele><time>2026-04-11T07:45:53.724Z</time></trkpt><trkpt lat="43.943505" lon="8.03236"><ele>438.66666666666663</ele><time>2026-04-11T07:45:55.724Z</time></trkpt><trkpt lat="43.9435533" lon="8.032285"><ele>441.0</ele><time>2026-04-11T07:45:57.724Z</time></trkpt><trkpt lat="43.9436067" lon="8.0322117"><ele>443.33333333333337</ele><time>2026-04-11T07:45:59.724Z</time></trkpt><trkpt lat="43.9436683" lon="8.03214"><ele>445.6666666666667</ele><time>2026-04-11T07:46:01.724Z</time></trkpt><trkpt lat="43.9437267" lon="8.0320567"><ele>448.0</ele><time>2026-04-11T07:46:03.724Z</time></trkpt><trkpt lat="43.94378" lon="8.03196"><ele>448.00000000000006</ele><time>2026-04-11T07:46:05.724Z</time></trkpt><trkpt lat="43.943825" lon="8.0318617"><ele>448.0</ele><time>2026-04-11T07:46:07.724Z</time></trkpt><trkpt lat="43.9438483" lon="8.0317567"><ele>448.0</ele><time>2026-04-11T07:46:09.724Z</time></trkpt><trkpt lat="43.9438733" lon="8.03165"><ele>448.0</ele><time>2026-04-11T07:46:11.724Z</time></trkpt><trkpt lat="43.9439" lon="8.03154"><ele>448.00000000000006</ele><time>2026-04-11T07:46:13.724Z</time></trkpt><trkpt lat="43.94393" lon="8.0314317"><ele>448.0</ele><time>2026-04-11T07:46:15.725Z</time></trkpt><trkpt lat="43.943955" lon="8.03133"><ele>445.83333333333337</ele><time>2026-04-11T07:46:17.724Z</time></trkpt><trkpt lat="43.9439883" lon="8.0312333"><ele>443.6666666666667</ele><time>2026-04-11T07:46:19.724Z</time></trkpt><trkpt lat="43.944045" lon="8.0311483"><ele>441.5</ele><time>2026-04-11T07:46:21.724Z</time></trkpt><trkpt lat="43.9441183" lon="8.03109"><ele>439.33333333333337</ele><time>2026-04-11T07:46:23.725Z</time></trkpt><trkpt lat="43.9441917" lon="8.0310683"><ele>437.1666666666667</ele><time>2026-04-11T07:46:25.724Z</time></trkpt><trkpt lat="43.94427" lon="8.0310533"><ele>435.0</ele><time>2026-04-11T07:46:27.724Z</time></trkpt><trkpt lat="43.9443383" lon="8.0310133"><ele>435.0</ele><time>2026-04-11T07:46:29.724Z</time></trkpt><trkpt lat="43.9444117" lon="8.030975"><ele>435.0</ele><time>2026-04-11T07:46:31.724Z</time></trkpt><trkpt lat="43.9444867" lon="8.030945"><ele>435.0</ele><time>2026-04-11T07:46:33.724Z</time></trkpt><trkpt lat="43.9445617" lon="8.0309467"><ele>435.0</ele><time>2026-04-11T07:46:35.724Z</time></trkpt><trkpt lat="43.9446267" lon="8.0309917"><ele>435.0</ele><time>2026-04-11T07:46:37.724Z</time></trkpt><trkpt lat="43.9446717" lon="8.0310833"><ele>435.0</ele><time>2026-04-11T07:46:40.724Z</time></trkpt><trkpt lat="43.944735" lon="8.0311983"><ele>435.0</ele><time>2026-04-11T07:46:43.724Z</time></trkpt><trkpt lat="43.9447933" lon="8.031255"><ele>435.0</ele><time>2026-04-11T07:46:45.725Z</time></trkpt><trkpt lat="43.9448683" lon="8.0312767"><ele>435.0</ele><time>2026-04-11T07:46:47.724Z</time></trkpt><trkpt lat="43.9449483" lon="8.0312833"><ele>435.0</ele><time>2026-04-11T07:46:49.724Z</time></trkpt><trkpt lat="43.9450167" lon="8.031255"><ele>435.0</ele><time>2026-04-11T07:46:51.724Z</time></trkpt><trkpt lat="43.9450967" lon="8.0312333"><ele>435.0</ele><time>2026-04-11T07:46:53.724Z</time></trkpt><trkpt lat="43.9451733" lon="8.0311717"><ele>435.6</ele><time>2026-04-11T07:46:55.724Z</time></trkpt><trkpt lat="43.94523" lon="8.0310767"><ele>436.2</ele><time>2026-04-11T07:46:57.724Z</time></trkpt><trkpt lat="43.9452933" lon="8.0310017"><ele>436.79999999999995</ele><time>2026-04-11T07:46:59.724Z</time></trkpt><trkpt lat="43.9453767" lon="8.0309267"><ele>437.4</ele><time>2026-04-11T07:47:01.724Z</time></trkpt><trkpt lat="43.9454483" lon="8.030855"><ele>438.0</ele><time>2026-04-11T07:47:03.724Z</time></trkpt><trkpt lat="43.9455267" lon="8.0307817"><ele>438.0</ele><time>2026-04-11T07:47:05.724Z</time></trkpt><trkpt lat="43.9455883" lon="8.0306983"><ele>438.0</ele><time>2026-04-11T07:47:07.724Z</time></trkpt><trkpt lat="43.9456383" lon="8.0305967"><ele>438.0</ele><time>2026-04-11T07:47:09.724Z</time></trkpt><trkpt lat="43.945695" lon="8.0305133"><ele>438.0</ele><time>2026-04-11T07:47:11.724Z</time></trkpt><trkpt lat="43.9457383" lon="8.03044"><ele>438.0</ele><time>2026-04-11T07:47:13.724Z</time></trkpt><trkpt lat="43.9457633" lon="8.0303333"><ele>438.0</ele><time>2026-04-11T07:47:15.724Z</time></trkpt><trkpt lat="43.9457783" lon="8.0302133"><ele>438.0</ele><time>2026-04-11T07:47:17.724Z</time></trkpt><trkpt lat="43.9457967" lon="8.0301017"><ele>437.99999999999994</ele><time>2026-04-11T07:47:19.724Z</time></trkpt><trkpt lat="43.9458467" lon="8.0300067"><ele>437.99999999999994</ele><time>2026-04-11T07:47:21.724Z</time></trkpt><trkpt lat="43.9459633" lon="8.0300283"><ele>438.0</ele><time>2026-04-11T07:47:23.725Z</time></trkpt><trkpt lat="43.946065" lon="8.0300917"><ele>438.0</ele><time>2026-04-11T07:47:25.724Z</time></trkpt><trkpt lat="43.9461617" lon="8.03016"><ele>438.79999999999995</ele><time>2026-04-11T07:47:27.724Z</time></trkpt><trkpt lat="43.946245" lon="8.030225"><ele>439.59999999999997</ele><time>2026-04-11T07:47:29.724Z</time></trkpt><trkpt lat="43.9463267" lon="8.0302867"><ele>440.40000000000003</ele><time>2026-04-11T07:47:31.724Z</time></trkpt><trkpt lat="43.946405" lon="8.030345"><ele>441.20000000000005</ele><time>2026-04-11T07:47:33.724Z</time></trkpt><trkpt lat="43.94649" lon="8.0303917"><ele>442.0</ele><time>2026-04-11T07:47:35.724Z</time></trkpt><trkpt lat="43.9465767" lon="8.0304217"><ele>442.00000000000006</ele><time>2026-04-11T07:47:37.724Z</time></trkpt><trkpt lat="43.94666" lon="8.0304667"><ele>442.0</ele><time>2026-04-11T07:47:39.725Z</time></trkpt><trkpt lat="43.9467433" lon="8.0304933"><ele>442.0</ele><time>2026-04-11T07:47:41.725Z</time></trkpt><trkpt lat="43.9468267" lon="8.0304917"><ele>442.0</ele><time>2026-04-11T07:47:43.724Z</time></trkpt><trkpt lat="43.9468867" lon="8.03043"><ele>442.00000000000006</ele><time>2026-04-11T07:47:45.724Z</time></trkpt><trkpt lat="43.946935" lon="8.03036"><ele>442.0</ele><time>2026-04-11T07:47:47.724Z</time></trkpt><trkpt lat="43.9469817" lon="8.0302717"><ele>442.20000000000005</ele><time>2026-04-11T07:47:49.724Z</time></trkpt><trkpt lat="43.9470133" lon="8.0301583"><ele>442.40000000000003</ele><time>2026-04-11T07:47:51.725Z</time></trkpt><trkpt lat="43.94705" lon="8.03004"><ele>442.59999999999997</ele><time>2026-04-11T07:47:53.724Z</time></trkpt><trkpt lat="43.9470917" lon="8.0299383"><ele>442.79999999999995</ele><time>2026-04-11T07:47:55.724Z</time></trkpt><trkpt lat="43.947175" lon="8.02985"><ele>443.0</ele><time>2026-04-11T07:47:57.724Z</time></trkpt><trkpt lat="43.94726" lon="8.0297967"><ele>443.0</ele><time>2026-04-11T07:47:59.724Z</time></trkpt><trkpt lat="43.9473517" lon="8.0297683"><ele>442.99999999999994</ele><time>2026-04-11T07:48:01.724Z</time></trkpt><trkpt lat="43.94744" lon="8.0297367"><ele>442.99999999999994</ele><time>2026-04-11T07:48:03.724Z</time></trkpt><trkpt lat="43.94753" lon="8.0296783"><ele>443.0</ele><time>2026-04-11T07:48:05.724Z</time></trkpt><trkpt lat="43.9476067" lon="8.0295983"><ele>443.0</ele><time>2026-04-11T07:48:07.724Z</time></trkpt><trkpt lat="43.947665" lon="8.029515"><ele>445.49999999999994</ele><time>2026-04-11T07:48:09.725Z</time></trkpt><trkpt lat="43.9477017" lon="8.0294133"><ele>448.0</ele><time>2026-04-11T07:48:12.725Z</time></trkpt><trkpt lat="43.947735" lon="8.0293383"><ele>450.5</ele><time>2026-04-11T07:48:14.724Z</time></trkpt><trkpt lat="43.9477933" lon="8.02923"><ele>453.0</ele><time>2026-04-11T07:48:17.724Z</time></trkpt><trkpt lat="43.9478467" lon="8.0291683"><ele>455.49999999999994</ele><time>2026-04-11T07:48:19.724Z</time></trkpt><trkpt lat="43.9479133" lon="8.0291017"><ele>458.0</ele><time>2026-04-11T07:48:22.724Z</time></trkpt><trkpt lat="43.9479667" lon="8.0290283"><ele>457.99999999999994</ele><time>2026-04-11T07:48:26.724Z</time></trkpt><trkpt lat="43.94799" lon="8.0289183"><ele>458.0</ele><time>2026-04-11T07:48:59.724Z</time></trkpt><trkpt lat="43.9480233" lon="8.0287917"><ele>458.0</ele><time>2026-04-11T07:49:02.724Z</time></trkpt><trkpt lat="43.9480617" lon="8.0286967"><ele>458.0</ele><time>2026-04-11T07:49:04.724Z</time></trkpt><trkpt lat="43.9481067" lon="8.028615"><ele>457.99999999999994</ele><time>2026-04-11T07:49:06.724Z</time></trkpt><trkpt lat="43.9481617" lon="8.0285283"><ele>458.0</ele><time>2026-04-11T07:49:08.724Z</time></trkpt><trkpt lat="43.9482233" lon="8.02846"><ele>457.99999999999994</ele><time>2026-04-11T07:49:10.724Z</time></trkpt><trkpt lat="43.9483" lon="8.028415"><ele>458.0</ele><time>2026-04-11T07:49:12.724Z</time></trkpt><trkpt lat="43.9483767" lon="8.0283583"><ele>458.0</ele><time>2026-04-11T07:49:14.724Z</time></trkpt><trkpt lat="43.9484383" lon="8.0282967"><ele>458.0</ele><time>2026-04-11T07:49:16.724Z</time></trkpt><trkpt lat="43.9485" lon="8.0282567"><ele>457.99999999999994</ele><time>2026-04-11T07:49:18.724Z</time></trkpt><trkpt lat="43.9485567" lon="8.028205"><ele>458.0</ele><time>2026-04-11T07:49:20.724Z</time></trkpt><trkpt lat="43.9486167" lon="8.028155"><ele>459.1428571428571</ele><time>2026-04-11T07:49:22.725Z</time></trkpt><trkpt lat="43.9486783" lon="8.02811"><ele>460.28571428571433</ele><time>2026-04-11T07:49:24.725Z</time></trkpt><trkpt lat="43.9487367" lon="8.0280667"><ele>461.42857142857144</ele><time>2026-04-11T07:49:26.724Z</time></trkpt><trkpt lat="43.9487917" lon="8.028005"><ele>462.57142857142856</ele><time>2026-04-11T07:49:28.724Z</time></trkpt><trkpt lat="43.9488417" lon="8.02794"><ele>463.71428571428567</ele><time>2026-04-11T07:49:30.724Z</time></trkpt><trkpt lat="43.948885" lon="8.0278733"><ele>464.8571428571429</ele><time>2026-04-11T07:49:32.724Z</time></trkpt><trkpt lat="43.948955" lon="8.0277867"><ele>466.0</ele><time>2026-04-11T07:49:35.724Z</time></trkpt><trkpt lat="43.9490133" lon="8.0277083"><ele>466.00000000000006</ele><time>2026-04-11T07:49:38.724Z</time></trkpt><trkpt lat="43.9490683" lon="8.0276283"><ele>466.0</ele><time>2026-04-11T07:49:41.725Z</time></trkpt><trkpt lat="43.949125" lon="8.027555"><ele>466.0</ele><time>2026-04-11T07:49:45.724Z</time></trkpt><trkpt lat="43.94918" lon="8.0274867"><ele>466.0</ele><time>2026-04-11T07:49:48.724Z</time></trkpt><trkpt lat="43.949245" lon="8.0274"><ele>466.00000000000006</ele><time>2026-04-11T07:49:51.724Z</time></trkpt><trkpt lat="43.9492867" lon="8.0273183"><ele>466.0</ele><time>2026-04-11T07:49:53.724Z</time></trkpt><trkpt lat="43.9493433" lon="8.0272083"><ele>466.6666666666667</ele><time>2026-04-11T07:49:55.724Z</time></trkpt><trkpt lat="43.9493783" lon="8.0271333"><ele>467.33333333333337</ele><time>2026-04-11T07:49:56.725Z</time></trkpt><trkpt lat="43.949415" lon="8.02705"><ele>468.0</ele><time>2026-04-11T07:49:57.724Z</time></trkpt><trkpt lat="43.9494483" lon="8.0269617"><ele>468.66666666666663</ele><time>2026-04-11T07:49:58.724Z</time></trkpt><trkpt lat="43.94948" lon="8.02688"><ele>469.3333333333333</ele><time>2026-04-11T07:49:59.724Z</time></trkpt><trkpt lat="43.9495317" lon="8.0267567"><ele>470.0</ele><time>2026-04-11T07:50:01.724Z</time></trkpt><trkpt lat="43.949565" lon="8.02666"><ele>470.0</ele><time>2026-04-11T07:50:04.724Z</time></trkpt><trkpt lat="43.9496133" lon="8.02659"><ele>469.99999999999994</ele><time>2026-04-11T07:50:10.724Z</time></trkpt><trkpt lat="43.949675" lon="8.0265433"><ele>470.0</ele><time>2026-04-11T07:50:15.725Z</time></trkpt><trkpt lat="43.9497317" lon="8.0265917"><ele>470.0</ele><time>2026-04-11T07:50:19.724Z</time></trkpt><trkpt lat="43.949805" lon="8.0265783"><ele>469.99999999999994</ele><time>2026-04-11T07:50:24.724Z</time></trkpt><trkpt lat="43.9498633" lon="8.0265283"><ele>470.0</ele><time>2026-04-11T07:50:28.725Z</time></trkpt><trkpt lat="43.9499367" lon="8.0265467"><ele>470.0</ele><time>2026-04-11T07:50:33.724Z</time></trkpt><trkpt lat="43.95002" lon="8.0265533"><ele>472.0</ele><time>2026-04-11T07:50:37.724Z</time></trkpt><trkpt lat="43.9501017" lon="8.0265767"><ele>473.99999999999994</ele><time>2026-04-11T07:50:41.724Z</time></trkpt><trkpt lat="43.9501667" lon="8.026635"><ele>476.0</ele><time>2026-04-11T07:50:45.724Z</time></trkpt><trkpt lat="43.9502233" lon="8.026675"><ele>478.0</ele><time>2026-04-11T07:50:48.725Z</time></trkpt><trkpt lat="43.950275" lon="8.0267483"><ele>479.99999999999994</ele><time>2026-04-11T07:50:52.725Z</time></trkpt><trkpt lat="43.9503233" lon="8.0268217"><ele>482.0</ele><time>2026-04-11T07:50:57.724Z</time></trkpt><trkpt lat="43.9503883" lon="8.02683"><ele>484.0</ele><time>2026-04-11T07:51:03.724Z</time></trkpt><trkpt lat="43.9504417" lon="8.0267533"><ele>484.0</ele><time>2026-04-11T07:51:08.724Z</time></trkpt><trkpt lat="43.9505033" lon="8.026775"><ele>483.99999999999994</ele><time>2026-04-11T07:51:13.724Z</time></trkpt><trkpt lat="43.950555" lon="8.0268433"><ele>484.0</ele><time>2026-04-11T07:51:18.724Z</time></trkpt><trkpt lat="43.9506033" lon="8.0269233"><ele>484.0</ele><time>2026-04-11T07:51:22.724Z</time></trkpt><trkpt lat="43.950645" lon="8.0270067"><ele>483.99999999999994</ele><time>2026-04-11T07:51:26.724Z</time></trkpt><trkpt lat="43.950685" lon="8.027075"><ele>484.0</ele><time>2026-04-11T07:51:30.724Z</time></trkpt><trkpt lat="43.950675" lon="8.02718"><ele>484.0</ele><time>2026-04-11T07:51:34.724Z</time></trkpt><trkpt lat="43.95064" lon="8.0272717"><ele>484.00000000000006</ele><time>2026-04-11T07:51:39.724Z</time></trkpt><trkpt lat="43.95061" lon="8.0273767"><ele>484.0</ele><time>2026-04-11T07:51:43.724Z</time></trkpt><trkpt lat="43.9506833" lon="8.027325"><ele>484.0</ele><time>2026-04-11T07:51:55.724Z</time></trkpt><trkpt lat="43.9507233" lon="8.0272433"><ele>484.0</ele><time>2026-04-11T07:51:58.724Z</time></trkpt><trkpt lat="43.9507733" lon="8.0271633"><ele>484.00000000000006</ele><time>2026-04-11T07:52:01.724Z</time></trkpt><trkpt lat="43.95084" lon="8.0271867"><ele>484.0</ele><time>2026-04-11T07:52:07.724Z</time></trkpt><trkpt lat="43.9508517" lon="8.0272917"><ele>484.0</ele><time>2026-04-11T07:52:11.724Z</time></trkpt><trkpt lat="43.95082" lon="8.027375"><ele>483.99999999999994</ele><time>2026-04-11T07:52:15.724Z</time></trkpt><trkpt lat="43.9507717" lon="8.0274433"><ele>484.0</ele><time>2026-04-11T07:52:21.724Z</time></trkpt><trkpt lat="43.95072" lon="8.0273817"><ele>484.0</ele><time>2026-04-11T07:52:30.725Z</time></trkpt><trkpt lat="43.9506533" lon="8.0273983"><ele>483.99999999999994</ele><time>2026-04-11T07:52:35.724Z</time></trkpt><trkpt lat="43.9506033" lon="8.0274667"><ele>484.0</ele><time>2026-04-11T07:52:41.724Z</time></trkpt><trkpt lat="43.9505883" lon="8.0273733"><ele>484.0</ele><time>2026-04-11T07:52:47.724Z</time></trkpt><trkpt lat="43.9506467" lon="8.0272367"><ele>484.0</ele><time>2026-04-11T07:53:10.724Z</time></trkpt><trkpt lat="43.95068" lon="8.0271533"><ele>483.99999999999994</ele><time>2026-04-11T07:53:12.724Z</time></trkpt><trkpt lat="43.9507083" lon="8.0270583"><ele>484.0</ele><time>2026-04-11T07:53:14.724Z</time></trkpt><trkpt lat="43.950725" lon="8.02697"><ele>484.0</ele><time>2026-04-11T07:53:16.724Z</time></trkpt><trkpt lat="43.9507367" lon="8.026875"><ele>483.99999999999994</ele><time>2026-04-11T07:53:18.724Z</time></trkpt><trkpt lat="43.950725" lon="8.0267467"><ele>484.0</ele><time>2026-04-11T07:53:21.724Z</time></trkpt><trkpt lat="43.9507483" lon="8.026645"><ele>484.0</ele><time>2026-04-11T07:53:24.724Z</time></trkpt><trkpt lat="43.9507617" lon="8.02655"><ele>484.00000000000006</ele><time>2026-04-11T07:53:28.724Z</time></trkpt><trkpt lat="43.9507217" lon="8.0264517"><ele>484.0</ele><time>2026-04-11T07:53:32.724Z</time></trkpt><trkpt lat="43.95067" lon="8.026375"><ele>484.0</ele><time>2026-04-11T07:53:35.724Z</time></trkpt><trkpt lat="43.950615" lon="8.0262867"><ele>484.0</ele><time>2026-04-11T07:53:38.725Z</time></trkpt><trkpt lat="43.95057" lon="8.0261933"><ele>484.00000000000006</ele><time>2026-04-11T07:53:41.724Z</time></trkpt><trkpt lat="43.9505617" lon="8.0260967"><ele>484.0</ele><time>2026-04-11T07:53:44.724Z</time></trkpt><trkpt lat="43.9505867" lon="8.0260133"><ele>484.00000000000006</ele><time>2026-04-11T07:53:47.724Z</time></trkpt><trkpt lat="43.9506333" lon="8.025925"><ele>484.0</ele><time>2026-04-11T07:53:51.724Z</time></trkpt><trkpt lat="43.950695" lon="8.02589"><ele>484.0</ele><time>2026-04-11T07:53:58.724Z</time></trkpt><trkpt lat="43.95076" lon="8.025915"><ele>484.0</ele><time>2026-04-11T07:54:09.724Z</time></trkpt><trkpt lat="43.9507633" lon="8.02602"><ele>484.00000000000006</ele><time>2026-04-11T07:54:14.724Z</time></trkpt><trkpt lat="43.9507533" lon="8.0261233"><ele>484.0</ele><time>2026-04-11T07:54:17.724Z</time></trkpt><trkpt lat="43.95079" lon="8.0262417"><ele>484.00000000000006</ele><time>2026-04-11T07:54:20.724Z</time></trkpt><trkpt lat="43.95082" lon="8.0263583"><ele>484.0</ele><time>2026-04-11T07:54:23.724Z</time></trkpt><trkpt lat="43.9508483" lon="8.0264767"><ele>484.0</ele><time>2026-04-11T07:54:26.724Z</time></trkpt><trkpt lat="43.9508633" lon="8.02657"><ele>484.0</ele><time>2026-04-11T07:54:29.724Z</time></trkpt><trkpt lat="43.9508617" lon="8.0266717"><ele>484.00000000000006</ele><time>2026-04-11T07:54:33.724Z</time></trkpt><trkpt lat="43.9508783" lon="8.0267767"><ele>484.0</ele><time>2026-04-11T07:54:38.724Z</time></trkpt><trkpt lat="43.950905" lon="8.0268633"><ele>484.0</ele><time>2026-04-11T07:54:42.724Z</time></trkpt><trkpt lat="43.950875" lon="8.02696"><ele>483.99999999999994</ele><time>2026-04-11T07:54:46.725Z</time></trkpt><trkpt lat="43.95085" lon="8.0270583"><ele>484.0</ele><time>2026-04-11T07:54:51.724Z</time></trkpt><trkpt lat="43.9508567" lon="8.0271517"><ele>484.0</ele><time>2026-04-11T07:54:55.724Z</time></trkpt><trkpt lat="43.950865" lon="8.0272517"><ele>483.99999999999994</ele><time>2026-04-11T07:54:59.724Z</time></trkpt><trkpt lat="43.9508567" lon="8.027365"><ele>484.0</ele><time>2026-04-11T07:55:02.725Z</time></trkpt><trkpt lat="43.9508417" lon="8.0274633"><ele>484.0</ele><time>2026-04-11T07:55:05.726Z</time></trkpt><trkpt lat="43.9508033" lon="8.0275333"><ele>484.1428571428571</ele><time>2026-04-11T07:55:08.725Z</time></trkpt><trkpt lat="43.9507567" lon="8.0276233"><ele>484.2857142857142</ele><time>2026-04-11T07:55:11.725Z</time></trkpt><trkpt lat="43.9507133" lon="8.0277017"><ele>484.42857142857144</ele><time>2026-04-11T07:55:14.725Z</time></trkpt><trkpt lat="43.950675" lon="8.0277817"><ele>484.57142857142856</ele><time>2026-04-11T07:55:17.725Z</time></trkpt><trkpt lat="43.9506433" lon="8.0278833"><ele>484.7142857142857</ele><time>2026-04-11T07:55:21.725Z</time></trkpt><trkpt lat="43.9506267" lon="8.027975"><ele>484.8571428571429</ele><time>2026-04-11T07:55:26.726Z</time></trkpt><trkpt lat="43.9505967" lon="8.028055"><ele>485.00000000000006</ele><time>2026-04-11T07:55:30.725Z</time></trkpt><trkpt lat="43.95054" lon="8.0281017"><ele>484.99999999999994</ele><time>2026-04-11T07:55:36.725Z</time></trkpt><trkpt lat="43.950465" lon="8.0281567"><ele>485.0</ele><time>2026-04-11T07:55:48.725Z</time></trkpt><trkpt lat="43.9504" lon="8.0282017"><ele>485.0</ele><time>2026-04-11T07:55:51.726Z</time></trkpt><trkpt lat="43.9503367" lon="8.02826"><ele>485.0</ele><time>2026-04-11T07:55:54.725Z</time></trkpt><trkpt lat="43.9502617" lon="8.02828"><ele>484.99999999999994</ele><time>2026-04-11T07:55:57.726Z</time></trkpt><trkpt lat="43.9501933" lon="8.0283117"><ele>485.0</ele><time>2026-04-11T07:56:00.725Z</time></trkpt><trkpt lat="43.9501183" lon="8.0283217"><ele>485.00000000000006</ele><time>2026-04-11T07:56:04.725Z</time></trkpt><trkpt lat="43.950055" lon="8.028295"><ele>485.0</ele><time>2026-04-11T07:56:07.725Z</time></trkpt><trkpt lat="43.94999" lon="8.0282933"><ele>485.00000000000006</ele><time>2026-04-11T07:56:10.725Z</time></trkpt><trkpt lat="43.9499167" lon="8.02829"><ele>485.00000000000006</ele><time>2026-04-11T07:56:40.725Z</time></trkpt><trkpt lat="43.949835" lon="8.0282467"><ele>485.0</ele><time>2026-04-11T07:56:43.725Z</time></trkpt><trkpt lat="43.9497717" lon="8.0282233"><ele>485.00000000000006</ele><time>2026-04-11T07:56:45.725Z</time></trkpt><trkpt lat="43.9496883" lon="8.0282117"><ele>485.00000000000006</ele><time>2026-04-11T07:56:48.725Z</time></trkpt><trkpt lat="43.94962" lon="8.0282017"><ele>483.8333333333333</ele><time>2026-04-11T07:56:51.725Z</time></trkpt><trkpt lat="43.9495483" lon="8.0282217"><ele>482.66666666666663</ele><time>2026-04-11T07:56:54.725Z</time></trkpt><trkpt lat="43.949475" lon="8.0282683"><ele>481.5</ele><time>2026-04-11T07:56:57.725Z</time></trkpt><trkpt lat="43.9494017" lon="8.0283233"><ele>480.33333333333337</ele><time>2026-04-11T07:57:00.725Z</time></trkpt><trkpt lat="43.9493417" lon="8.0283817"><ele>479.1666666666667</ele><time>2026-04-11T07:57:03.725Z</time></trkpt><trkpt lat="43.9492867" lon="8.0284317"><ele>478.0</ele><time>2026-04-11T07:57:06.725Z</time></trkpt><trkpt lat="43.9492267" lon="8.028495"><ele>479.00000000000006</ele><time>2026-04-11T07:57:09.725Z</time></trkpt><trkpt lat="43.9491783" lon="8.02856"><ele>480.0</ele><time>2026-04-11T07:57:12.725Z</time></trkpt><trkpt lat="43.9491217" lon="8.0286283"><ele>481.00000000000006</ele><time>2026-04-11T07:57:15.726Z</time></trkpt><trkpt lat="43.949075" lon="8.0287033"><ele>482.00000000000006</ele><time>2026-04-11T07:57:18.724Z</time></trkpt><trkpt lat="43.948995" lon="8.0287717"><ele>483.0</ele><time>2026-04-11T07:57:34.724Z</time></trkpt><trkpt lat="43.948945" lon="8.0288317"><ele>484.00000000000006</ele><time>2026-04-11T07:57:43.724Z</time></trkpt><trkpt lat="43.948915" lon="8.028915"><ele>485.00000000000006</ele><time>2026-04-11T07:59:05.725Z</time></trkpt><trkpt lat="43.9488867" lon="8.029005"><ele>485.00000000000006</ele><time>2026-04-11T07:59:09.725Z</time></trkpt><trkpt lat="43.9488667" lon="8.0290883"><ele>485.0</ele><time>2026-04-11T07:59:14.724Z</time></trkpt><trkpt lat="43.94882" lon="8.0291717"><ele>485.00000000000006</ele><time>2026-04-11T07:59:23.725Z</time></trkpt><trkpt lat="43.94881" lon="8.0292717"><ele>485.00000000000006</ele><time>2026-04-11T07:59:26.724Z</time></trkpt><trkpt lat="43.9488117" lon="8.0293667"><ele>485.0</ele><time>2026-04-11T07:59:29.725Z</time></trkpt><trkpt lat="43.9487983" lon="8.0294683"><ele>485.00000000000006</ele><time>2026-04-11T07:59:33.724Z</time></trkpt><trkpt lat="43.9487717" lon="8.029565"><ele>485.00000000000006</ele><time>2026-04-11T08:00:01.725Z</time></trkpt><trkpt lat="43.9487767" lon="8.02966"><ele>487.66666666666663</ele><time>2026-04-11T08:00:11.724Z</time></trkpt><trkpt lat="43.94873" lon="8.0297567"><ele>490.3333333333333</ele><time>2026-04-11T08:00:19.724Z</time></trkpt><trkpt lat="43.9486717" lon="8.0298383"><ele>493.0</ele><time>2026-04-11T08:00:23.724Z</time></trkpt><trkpt lat="43.948635" lon="8.0299317"><ele>495.66666666666663</ele><time>2026-04-11T08:00:26.724Z</time></trkpt><trkpt lat="43.9486183" lon="8.03003"><ele>498.3333333333333</ele><time>2026-04-11T08:00:29.725Z</time></trkpt><trkpt lat="43.948585" lon="8.0301183"><ele>501.0</ele><time>2026-04-11T08:00:32.724Z</time></trkpt><trkpt lat="43.9485417" lon="8.0302"><ele>503.0</ele><time>2026-04-11T08:00:35.724Z</time></trkpt><trkpt lat="43.94851" lon="8.0302933"><ele>505.0</ele><time>2026-04-11T08:00:41.725Z</time></trkpt><trkpt lat="43.9484967" lon="8.030405"><ele>507.0</ele><time>2026-04-11T08:00:45.724Z</time></trkpt><trkpt lat="43.9484967" lon="8.0305117"><ele>509.0</ele><time>2026-04-11T08:00:49.724Z</time></trkpt><trkpt lat="43.9484767" lon="8.0306017"><ele>511.0</ele><time>2026-04-11T08:00:52.724Z</time></trkpt><trkpt lat="43.9484617" lon="8.0307067"><ele>513.0</ele><time>2026-04-11T08:00:56.724Z</time></trkpt><trkpt lat="43.9484833" lon="8.030795"><ele>515.0</ele><time>2026-04-11T08:01:03.725Z</time></trkpt><trkpt lat="43.9484417" lon="8.0308817"><ele>516.5</ele><time>2026-04-11T08:01:09.724Z</time></trkpt><trkpt lat="43.94838" lon="8.030925"><ele>518.0</ele><time>2026-04-11T08:01:13.724Z</time></trkpt><trkpt lat="43.94831" lon="8.030955"><ele>519.5</ele><time>2026-04-11T08:01:17.724Z</time></trkpt><trkpt lat="43.948245" lon="8.031005"><ele>521.0</ele><time>2026-04-11T08:01:21.724Z</time></trkpt><trkpt lat="43.948185" lon="8.0310783"><ele>522.5</ele><time>2026-04-11T08:01:25.724Z</time></trkpt><trkpt lat="43.94813" lon="8.0311633"><ele>524.0</ele><time>2026-04-11T08:01:29.724Z</time></trkpt><trkpt lat="43.9480783" lon="8.0312567"><ele>520.1428571428571</ele><time>2026-04-11T08:01:32.724Z</time></trkpt><trkpt lat="43.948035" lon="8.031325"><ele>516.2857142857143</ele><time>2026-04-11T08:01:34.724Z</time></trkpt><trkpt lat="43.9479667" lon="8.0313967"><ele>512.4285714285714</ele><time>2026-04-11T08:01:36.724Z</time></trkpt><trkpt lat="43.9479033" lon="8.031475"><ele>508.57142857142856</ele><time>2026-04-11T08:01:38.724Z</time></trkpt><trkpt lat="43.9478517" lon="8.0315283"><ele>504.7142857142857</ele><time>2026-04-11T08:01:40.724Z</time></trkpt><trkpt lat="43.9477883" lon="8.0315583"><ele>500.8571428571429</ele><time>2026-04-11T08:01:43.724Z</time></trkpt><trkpt lat="43.9477233" lon="8.0315867"><ele>497.0</ele><time>2026-04-11T08:01:46.724Z</time></trkpt><trkpt lat="43.9476633" lon="8.0316183"><ele>496.42857142857144</ele><time>2026-04-11T08:01:50.724Z</time></trkpt><trkpt lat="43.9476117" lon="8.0316733"><ele>495.8571428571429</ele><time>2026-04-11T08:01:53.724Z</time></trkpt><trkpt lat="43.9475483" lon="8.0317367"><ele>495.2857142857143</ele><time>2026-04-11T08:01:56.724Z</time></trkpt><trkpt lat="43.9474917" lon="8.031795"><ele>494.7142857142857</ele><time>2026-04-11T08:01:59.724Z</time></trkpt><trkpt lat="43.9474283" lon="8.0318533"><ele>494.14285714285717</ele><time>2026-04-11T08:02:03.724Z</time></trkpt><trkpt lat="43.947365" lon="8.03191"><ele>493.57142857142856</ele><time>2026-04-11T08:02:07.725Z</time></trkpt><trkpt lat="43.9473117" lon="8.0319583"><ele>493.0</ele><time>2026-04-11T08:02:11.724Z</time></trkpt><trkpt lat="43.9472617" lon="8.032025"><ele>493.0</ele><time>2026-04-11T08:02:38.724Z</time></trkpt><trkpt lat="43.9471917" lon="8.0320667"><ele>493.0</ele><time>2026-04-11T08:02:41.724Z</time></trkpt><trkpt lat="43.9471267" lon="8.0320833"><ele>493.0</ele><time>2026-04-11T08:02:45.724Z</time></trkpt><trkpt lat="43.9470433" lon="8.0320783"><ele>493.0</ele><time>2026-04-11T08:02:49.724Z</time></trkpt><trkpt lat="43.94698" lon="8.0320867"><ele>493.0</ele><time>2026-04-11T08:02:52.724Z</time></trkpt><trkpt lat="43.9469133" lon="8.03208"><ele>493.0</ele><time>2026-04-11T08:02:59.724Z</time></trkpt><trkpt lat="43.9468517" lon="8.0320983"><ele>493.0</ele><time>2026-04-11T08:03:13.724Z</time></trkpt><trkpt lat="43.9467833" lon="8.0321067"><ele>493.0</ele><time>2026-04-11T08:06:25.724Z</time></trkpt><trkpt lat="43.94672" lon="8.0321083"><ele>493.0</ele><time>2026-04-11T08:06:29.724Z</time></trkpt><trkpt lat="43.94666" lon="8.0321517"><ele>493.0</ele><time>2026-04-11T08:06:34.724Z</time></trkpt><trkpt lat="43.9465933" lon="8.0321817"><ele>493.0</ele><time>2026-04-11T08:06:40.724Z</time></trkpt><trkpt lat="43.9465367" lon="8.0322217"><ele>493.0</ele><time>2026-04-11T08:06:45.724Z</time></trkpt><trkpt lat="43.9464633" lon="8.0322483"><ele>493.0</ele><time>2026-04-11T08:06:52.724Z</time></trkpt><trkpt lat="43.9464017" lon="8.0322683"><ele>493.0</ele><time>2026-04-11T08:06:56.724Z</time></trkpt><trkpt lat="43.94634" lon="8.0323017"><ele>491.85714285714283</ele><time>2026-04-11T08:07:01.724Z</time></trkpt><trkpt lat="43.9462817" lon="8.032355"><ele>490.7142857142858</ele><time>2026-04-11T08:07:08.724Z</time></trkpt><trkpt lat="43.9462467" lon="8.032435"><ele>489.5714285714286</ele><time>2026-04-11T08:07:11.724Z</time></trkpt><trkpt lat="43.9462217" lon="8.0325217"><ele>488.42857142857144</ele><time>2026-04-11T08:07:14.724Z</time></trkpt><trkpt lat="43.9461967" lon="8.0326033"><ele>487.28571428571433</ele><time>2026-04-11T08:07:17.724Z</time></trkpt><trkpt lat="43.946155" lon="8.03267"><ele>486.1428571428572</ele><time>2026-04-11T08:07:20.724Z</time></trkpt><trkpt lat="43.9461167" lon="8.0327417"><ele>485.00000000000006</ele><time>2026-04-11T08:07:23.724Z</time></trkpt><trkpt lat="43.9460783" lon="8.0328317"><ele>486.28571428571433</ele><time>2026-04-11T08:07:27.724Z</time></trkpt><trkpt lat="43.94603" lon="8.0328917"><ele>487.57142857142856</ele><time>2026-04-11T08:07:31.724Z</time></trkpt><trkpt lat="43.9459833" lon="8.03296"><ele>488.8571428571429</ele><time>2026-04-11T08:07:34.724Z</time></trkpt><trkpt lat="43.945935" lon="8.0330317"><ele>490.14285714285717</ele><time>2026-04-11T08:07:38.724Z</time></trkpt><trkpt lat="43.945885" lon="8.0331017"><ele>491.42857142857144</ele><time>2026-04-11T08:07:42.724Z</time></trkpt><trkpt lat="43.9458167" lon="8.033165"><ele>492.7142857142857</ele><time>2026-04-11T08:07:46.725Z</time></trkpt><trkpt lat="43.945765" lon="8.03322"><ele>494.0</ele><time>2026-04-11T08:07:50.724Z</time></trkpt><trkpt lat="43.9457067" lon="8.0332883"><ele>496.14285714285717</ele><time>2026-04-11T08:07:54.724Z</time></trkpt><trkpt lat="43.945665" lon="8.033355"><ele>498.2857142857142</ele><time>2026-04-11T08:07:59.724Z</time></trkpt><trkpt lat="43.9456233" lon="8.03343"><ele>500.4285714285714</ele><time>2026-04-11T08:08:04.724Z</time></trkpt><trkpt lat="43.9455967" lon="8.0335133"><ele>502.57142857142856</ele><time>2026-04-11T08:08:11.724Z</time></trkpt><trkpt lat="43.9455633" lon="8.0336033"><ele>504.71428571428567</ele><time>2026-04-11T08:08:15.724Z</time></trkpt><trkpt lat="43.945635" lon="8.0335533"><ele>506.8571428571428</ele><time>2026-04-11T08:09:01.724Z</time></trkpt><trkpt lat="43.9456933" lon="8.033495"><ele>508.99999999999994</ele><time>2026-04-11T08:09:04.724Z</time></trkpt><trkpt lat="43.945755" lon="8.0334483"><ele>508.99999999999994</ele><time>2026-04-11T08:09:07.724Z</time></trkpt><trkpt lat="43.9458283" lon="8.03339"><ele>509.0</ele><time>2026-04-11T08:09:10.724Z</time></trkpt><trkpt lat="43.9458883" lon="8.03334"><ele>508.99999999999994</ele><time>2026-04-11T08:09:12.724Z</time></trkpt><trkpt lat="43.9459483" lon="8.0333067"><ele>508.99999999999994</ele><time>2026-04-11T08:09:14.724Z</time></trkpt><trkpt lat="43.94601" lon="8.0332783"><ele>509.0</ele><time>2026-04-11T08:09:16.724Z</time></trkpt><trkpt lat="43.9460683" lon="8.0332383"><ele>508.99999999999994</ele><time>2026-04-11T08:09:18.724Z</time></trkpt><trkpt lat="43.94613" lon="8.0331983"><ele>508.99999999999994</ele><time>2026-04-11T08:09:20.724Z</time></trkpt><trkpt lat="43.9461967" lon="8.0331667"><ele>509.1428571428571</ele><time>2026-04-11T08:09:22.724Z</time></trkpt><trkpt lat="43.94626" lon="8.0331433"><ele>509.2857142857143</ele><time>2026-04-11T08:09:24.724Z</time></trkpt><trkpt lat="43.946335" lon="8.033095"><ele>509.42857142857144</ele><time>2026-04-11T08:09:27.725Z</time></trkpt><trkpt lat="43.9464033" lon="8.0330333"><ele>509.57142857142856</ele><time>2026-04-11T08:09:31.724Z</time></trkpt><trkpt lat="43.9464433" lon="8.03296"><ele>509.7142857142858</ele><time>2026-04-11T08:09:36.725Z</time></trkpt><trkpt lat="43.94648" lon="8.0328817"><ele>509.8571428571429</ele><time>2026-04-11T08:09:41.725Z</time></trkpt><trkpt lat="43.9464933" lon="8.0327817"><ele>510.0</ele><time>2026-04-11T08:09:45.726Z</time></trkpt><trkpt lat="43.9465183" lon="8.03268"><ele>510.0</ele><time>2026-04-11T08:09:49.725Z</time></trkpt><trkpt lat="43.946585" lon="8.0326683"><ele>510.00000000000006</ele><time>2026-04-11T08:09:53.725Z</time></trkpt><trkpt lat="43.946635" lon="8.0327483"><ele>510.0</ele><time>2026-04-11T08:09:58.725Z</time></trkpt><trkpt lat="43.9467" lon="8.0327633"><ele>510.0</ele><time>2026-04-11T08:10:02.725Z</time></trkpt><trkpt lat="43.9467683" lon="8.03279"><ele>510.00000000000006</ele><time>2026-04-11T08:10:05.725Z</time></trkpt><trkpt lat="43.9468317" lon="8.03281"><ele>510.0</ele><time>2026-04-11T08:10:09.725Z</time></trkpt><trkpt lat="43.946895" lon="8.03283"><ele>510.0</ele><time>2026-04-11T08:10:14.725Z</time></trkpt><trkpt lat="43.9469583" lon="8.03284"><ele>511.0</ele><time>2026-04-11T08:10:18.725Z</time></trkpt><trkpt lat="43.947035" lon="8.032855"><ele>512.0</ele><time>2026-04-11T08:10:23.725Z</time></trkpt><trkpt lat="43.9471083" lon="8.03284"><ele>513.0</ele><time>2026-04-11T08:10:27.725Z</time></trkpt><trkpt lat="43.9471833" lon="8.0328167"><ele>514.0</ele><time>2026-04-11T08:10:31.725Z</time></trkpt><trkpt lat="43.9472583" lon="8.032805"><ele>515.0</ele><time>2026-04-11T08:10:35.725Z</time></trkpt><trkpt lat="43.9473267" lon="8.0328217"><ele>516.0</ele><time>2026-04-11T08:10:39.725Z</time></trkpt><trkpt lat="43.947395" lon="8.0328333"><ele>517.0</ele><time>2026-04-11T08:10:44.725Z</time></trkpt><trkpt lat="43.9474533" lon="8.03289"><ele>517.0</ele><time>2026-04-11T08:11:06.725Z</time></trkpt><trkpt lat="43.9475067" lon="8.0329517"><ele>517.0</ele><time>2026-04-11T08:11:09.725Z</time></trkpt><trkpt lat="43.9475867" lon="8.0329683"><ele>517.0</ele><time>2026-04-11T08:11:13.725Z</time></trkpt><trkpt lat="43.94764" lon="8.0329217"><ele>517.0</ele><time>2026-04-11T08:11:16.725Z</time></trkpt><trkpt lat="43.94768" lon="8.0328517"><ele>517.0</ele><time>2026-04-11T08:11:19.725Z</time></trkpt><trkpt lat="43.94773" lon="8.0327933"><ele>517.0</ele><time>2026-04-11T08:11:22.725Z</time></trkpt><trkpt lat="43.94779" lon="8.0327283"><ele>517.0</ele><time>2026-04-11T08:11:25.725Z</time></trkpt><trkpt lat="43.94785" lon="8.03268"><ele>517.4285714285714</ele><time>2026-04-11T08:11:28.725Z</time></trkpt><trkpt lat="43.9479183" lon="8.0326467"><ele>517.8571428571429</ele><time>2026-04-11T08:11:31.725Z</time></trkpt><trkpt lat="43.9479967" lon="8.0326333"><ele>518.2857142857143</ele><time>2026-04-11T08:11:35.725Z</time></trkpt><trkpt lat="43.9480617" lon="8.0326067"><ele>518.7142857142858</ele><time>2026-04-11T08:11:39.725Z</time></trkpt><trkpt lat="43.9481317" lon="8.0325683"><ele>519.1428571428571</ele><time>2026-04-11T08:11:43.725Z</time></trkpt><trkpt lat="43.94819" lon="8.0325217"><ele>519.5714285714287</ele><time>2026-04-11T08:11:47.725Z</time></trkpt><trkpt lat="43.9482267" lon="8.032445"><ele>520.0</ele><time>2026-04-11T08:11:51.725Z</time></trkpt><trkpt lat="43.9482683" lon="8.0323733"><ele>520.0</ele><time>2026-04-11T08:11:56.725Z</time></trkpt><trkpt lat="43.9483183" lon="8.0323033"><ele>520.0</ele><time>2026-04-11T08:12:02.724Z</time></trkpt><trkpt lat="43.94837" lon="8.0322483"><ele>520.0</ele><time>2026-04-11T08:12:10.724Z</time></trkpt><trkpt lat="43.9484183" lon="8.0321767"><ele>520.0</ele><time>2026-04-11T08:12:39.724Z</time></trkpt><trkpt lat="43.948485" lon="8.0321117"><ele>520.0</ele><time>2026-04-11T08:12:42.724Z</time></trkpt><trkpt lat="43.948565" lon="8.03203"><ele>520.0</ele><time>2026-04-11T08:12:45.724Z</time></trkpt><trkpt lat="43.9486533" lon="8.0319783"><ele>522.2</ele><time>2026-04-11T08:12:47.724Z</time></trkpt><trkpt lat="43.94876" lon="8.03194"><ele>524.4</ele><time>2026-04-11T08:12:49.724Z</time></trkpt><trkpt lat="43.94887" lon="8.0319167"><ele>526.6</ele><time>2026-04-11T08:12:51.725Z</time></trkpt><trkpt lat="43.9489683" lon="8.0318583"><ele>528.8</ele><time>2026-04-11T08:12:53.724Z</time></trkpt><trkpt lat="43.94904" lon="8.03178"><ele>531.0</ele><time>2026-04-11T08:12:55.725Z</time></trkpt><trkpt lat="43.9490933" lon="8.0317233"><ele>531.0</ele><time>2026-04-11T08:12:57.724Z</time></trkpt><trkpt lat="43.9491617" lon="8.0316617"><ele>531.0</ele><time>2026-04-11T08:13:00.724Z</time></trkpt><trkpt lat="43.9492233" lon="8.0316"><ele>531.0</ele><time>2026-04-11T08:13:03.724Z</time></trkpt><trkpt lat="43.9492883" lon="8.0315367"><ele>531.0</ele><time>2026-04-11T08:13:06.724Z</time></trkpt><trkpt lat="43.9493583" lon="8.03148"><ele>531.0</ele><time>2026-04-11T08:13:09.724Z</time></trkpt><trkpt lat="43.9494133" lon="8.03142"><ele>531.0</ele><time>2026-04-11T08:13:12.725Z</time></trkpt><trkpt lat="43.9494483" lon="8.0313467"><ele>533.4285714285714</ele><time>2026-04-11T08:13:15.724Z</time></trkpt><trkpt lat="43.9494917" lon="8.0312717"><ele>535.8571428571429</ele><time>2026-04-11T08:13:19.724Z</time></trkpt><trkpt lat="43.949545" lon="8.0312183"><ele>538.2857142857143</ele><time>2026-04-11T08:13:23.724Z</time></trkpt><trkpt lat="43.949595" lon="8.0311367"><ele>540.7142857142858</ele><time>2026-04-11T08:13:27.725Z</time></trkpt><trkpt lat="43.9496383" lon="8.0310617"><ele>543.1428571428571</ele><time>2026-04-11T08:13:31.724Z</time></trkpt><trkpt lat="43.9496817" lon="8.0309967"><ele>545.5714285714287</ele><time>2026-04-11T08:13:34.724Z</time></trkpt><trkpt lat="43.9497317" lon="8.0309067"><ele>548.0</ele><time>2026-04-11T08:13:38.724Z</time></trkpt><trkpt lat="43.94977" lon="8.030825"><ele>546.7142857142858</ele><time>2026-04-11T08:13:41.724Z</time></trkpt><trkpt lat="43.9498283" lon="8.030745"><ele>545.4285714285714</ele><time>2026-04-11T08:13:45.725Z</time></trkpt><trkpt lat="43.9498833" lon="8.030685"><ele>544.1428571428571</ele><time>2026-04-11T08:13:49.724Z</time></trkpt><trkpt lat="43.9499333" lon="8.0306233"><ele>542.8571428571429</ele><time>2026-04-11T08:13:53.724Z</time></trkpt><trkpt lat="43.9499733" lon="8.030555"><ele>541.5714285714286</ele><time>2026-04-11T08:14:01.724Z</time></trkpt><trkpt lat="43.9500317" lon="8.03049"><ele>540.2857142857143</ele><time>2026-04-11T08:16:39.724Z</time></trkpt><trkpt lat="43.9500917" lon="8.03041"><ele>539.0</ele><time>2026-04-11T08:16:42.724Z</time></trkpt><trkpt lat="43.95014" lon="8.030335"><ele>537.8333333333333</ele><time>2026-04-11T08:16:44.724Z</time></trkpt><trkpt lat="43.9502183" lon="8.0302517"><ele>536.6666666666666</ele><time>2026-04-11T08:16:46.724Z</time></trkpt><trkpt lat="43.9502883" lon="8.0302"><ele>535.5</ele><time>2026-04-11T08:16:48.724Z</time></trkpt><trkpt lat="43.9503483" lon="8.0301617"><ele>534.3333333333334</ele><time>2026-04-11T08:16:50.725Z</time></trkpt><trkpt lat="43.95042" lon="8.0301417"><ele>533.1666666666667</ele><time>2026-04-11T08:16:53.724Z</time></trkpt><trkpt lat="43.9504817" lon="8.0301133"><ele>532.0</ele><time>2026-04-11T08:16:56.725Z</time></trkpt><trkpt lat="43.95057" lon="8.03007"><ele>532.0</ele><time>2026-04-11T08:16:59.724Z</time></trkpt><trkpt lat="43.95063" lon="8.0300333"><ele>532.0</ele><time>2026-04-11T08:17:01.724Z</time></trkpt><trkpt lat="43.9507017" lon="8.030005"><ele>532.0</ele><time>2026-04-11T08:17:03.725Z</time></trkpt><trkpt lat="43.9507717" lon="8.0299717"><ele>532.0</ele><time>2026-04-11T08:17:05.724Z</time></trkpt><trkpt lat="43.9508367" lon="8.0299417"><ele>532.0</ele><time>2026-04-11T08:17:07.724Z</time></trkpt><trkpt lat="43.9509033" lon="8.0298967"><ele>532.0</ele><time>2026-04-11T08:17:10.724Z</time></trkpt><trkpt lat="43.950965" lon="8.0298467"><ele>532.0</ele><time>2026-04-11T08:17:13.724Z</time></trkpt><trkpt lat="43.9510283" lon="8.0298133"><ele>532.0</ele><time>2026-04-11T08:17:16.724Z</time></trkpt><trkpt lat="43.9510917" lon="8.029785"><ele>532.0</ele><time>2026-04-11T08:17:22.724Z</time></trkpt><trkpt lat="43.95105" lon="8.0298633"><ele>532.0</ele><time>2026-04-11T08:19:01.724Z</time></trkpt><trkpt lat="43.9509933" lon="8.029905"><ele>532.0</ele><time>2026-04-11T08:19:10.724Z</time></trkpt><trkpt lat="43.95093" lon="8.02994"><ele>532.0</ele><time>2026-04-11T08:19:20.724Z</time></trkpt><trkpt lat="43.9508717" lon="8.0299917"><ele>532.0</ele><time>2026-04-11T08:19:28.724Z</time></trkpt><trkpt lat="43.950795" lon="8.0300067"><ele>532.0</ele><time>2026-04-11T08:19:33.724Z</time></trkpt><trkpt lat="43.9507183" lon="8.0300383"><ele>532.0</ele><time>2026-04-11T08:19:37.724Z</time></trkpt><trkpt lat="43.9506433" lon="8.0300583"><ele>532.0</ele><time>2026-04-11T08:19:41.725Z</time></trkpt><trkpt lat="43.950585" lon="8.0300933"><ele>532.0</ele><time>2026-04-11T08:19:47.724Z</time></trkpt><trkpt lat="43.9505183" lon="8.0301433"><ele>532.0</ele><time>2026-04-11T08:20:10.724Z</time></trkpt><trkpt lat="43.950455" lon="8.0301667"><ele>532.0</ele><time>2026-04-11T08:20:20.724Z</time></trkpt><trkpt lat="43.95038" lon="8.0301817"><ele>532.0</ele><time>2026-04-11T08:20:30.724Z</time></trkpt><trkpt lat="43.95031" lon="8.030215"><ele>532.0</ele><time>2026-04-11T08:20:34.724Z</time></trkpt><trkpt lat="43.9502483" lon="8.0302617"><ele>532.0</ele><time>2026-04-11T08:20:37.724Z</time></trkpt><trkpt lat="43.95018" lon="8.030325"><ele>532.0</ele><time>2026-04-11T08:20:40.724Z</time></trkpt><trkpt lat="43.95013" lon="8.0303883"><ele>532.0</ele><time>2026-04-11T08:20:43.724Z</time></trkpt><trkpt lat="43.9500767" lon="8.030485"><ele>532.0</ele><time>2026-04-11T08:20:47.724Z</time></trkpt><trkpt lat="43.9500183" lon="8.0305667"><ele>532.0</ele><time>2026-04-11T08:20:50.724Z</time></trkpt><trkpt lat="43.9499717" lon="8.03063"><ele>532.0</ele><time>2026-04-11T08:22:10.724Z</time></trkpt><trkpt lat="43.9499167" lon="8.0307083"><ele>533.1666666666667</ele><time>2026-04-11T08:22:13.724Z</time></trkpt><trkpt lat="43.9498633" lon="8.03079"><ele>534.3333333333334</ele><time>2026-04-11T08:22:15.725Z</time></trkpt><trkpt lat="43.9498067" lon="8.0308883"><ele>535.5</ele><time>2026-04-11T08:22:17.725Z</time></trkpt><trkpt lat="43.949755" lon="8.0309767"><ele>536.6666666666666</ele><time>2026-04-11T08:22:19.724Z</time></trkpt><trkpt lat="43.9497033" lon="8.0310583"><ele>537.8333333333333</ele><time>2026-04-11T08:22:21.724Z</time></trkpt><trkpt lat="43.9496533" lon="8.03113"><ele>539.0</ele><time>2026-04-11T08:22:23.724Z</time></trkpt><trkpt lat="43.9495983" lon="8.0312133"><ele>540.5</ele><time>2026-04-11T08:22:25.725Z</time></trkpt><trkpt lat="43.949545" lon="8.031285"><ele>542.0</ele><time>2026-04-11T08:22:27.724Z</time></trkpt><trkpt lat="43.9494917" lon="8.031365"><ele>543.5</ele><time>2026-04-11T08:22:29.724Z</time></trkpt><trkpt lat="43.9494433" lon="8.0314433"><ele>545.0</ele><time>2026-04-11T08:22:31.725Z</time></trkpt><trkpt lat="43.94936" lon="8.0315317"><ele>546.5</ele><time>2026-04-11T08:22:33.724Z</time></trkpt><trkpt lat="43.9493067" lon="8.03158"><ele>548.0</ele><time>2026-04-11T08:22:34.724Z</time></trkpt><trkpt lat="43.9492517" lon="8.0316283"><ele>545.5714285714287</ele><time>2026-04-11T08:22:35.724Z</time></trkpt><trkpt lat="43.9491933" lon="8.03168"><ele>543.1428571428571</ele><time>2026-04-11T08:22:36.724Z</time></trkpt><trkpt lat="43.94913" lon="8.03174"><ele>540.7142857142858</ele><time>2026-04-11T08:22:37.724Z</time></trkpt><trkpt lat="43.9490717" lon="8.0318017"><ele>538.2857142857143</ele><time>2026-04-11T08:22:38.724Z</time></trkpt><trkpt lat="43.9490083" lon="8.0318667"><ele>535.8571428571429</ele><time>2026-04-11T08:22:39.724Z</time></trkpt><trkpt lat="43.9489467" lon="8.0319083"><ele>533.4285714285714</ele><time>2026-04-11T08:22:40.724Z</time></trkpt><trkpt lat="43.9488833" lon="8.0319317"><ele>531.0</ele><time>2026-04-11T08:22:41.724Z</time></trkpt><trkpt lat="43.9487717" lon="8.0319467"><ele>531.0</ele><time>2026-04-11T08:22:43.724Z</time></trkpt><trkpt lat="43.9486933" lon="8.0319883"><ele>531.0</ele><time>2026-04-11T08:22:45.724Z</time></trkpt><trkpt lat="43.9486333" lon="8.0320317"><ele>531.0</ele><time>2026-04-11T08:22:47.724Z</time></trkpt><trkpt lat="43.9485783" lon="8.0320833"><ele>531.0</ele><time>2026-04-11T08:22:49.724Z</time></trkpt><trkpt lat="43.9485083" lon="8.0321567"><ele>531.0</ele><time>2026-04-11T08:22:52.724Z</time></trkpt><trkpt lat="43.9484383" lon="8.0322417"><ele>531.0</ele><time>2026-04-11T08:22:55.724Z</time></trkpt><trkpt lat="43.948395" lon="8.0323117"><ele>530.8</ele><time>2026-04-11T08:22:57.724Z</time></trkpt><trkpt lat="43.9483283" lon="8.0324117"><ele>530.6</ele><time>2026-04-11T08:23:00.724Z</time></trkpt><trkpt lat="43.9482567" lon="8.032495"><ele>530.4</ele><time>2026-04-11T08:23:02.724Z</time></trkpt><trkpt lat="43.9481867" lon="8.03256"><ele>530.2</ele><time>2026-04-11T08:23:04.724Z</time></trkpt><trkpt lat="43.9480967" lon="8.03262"><ele>530.0</ele><time>2026-04-11T08:23:06.724Z</time></trkpt><trkpt lat="43.9479933" lon="8.0326717"><ele>530.0</ele><time>2026-04-11T08:23:08.724Z</time></trkpt><trkpt lat="43.94787" lon="8.0327333"><ele>530.0</ele><time>2026-04-11T08:23:10.724Z</time></trkpt><trkpt lat="43.9478117" lon="8.0327817"><ele>530.0</ele><time>2026-04-11T08:23:11.724Z</time></trkpt><trkpt lat="43.9477233" lon="8.0328733"><ele>530.0</ele><time>2026-04-11T08:23:13.724Z</time></trkpt><trkpt lat="43.9476667" lon="8.032955"><ele>530.0</ele><time>2026-04-11T08:23:15.724Z</time></trkpt><trkpt lat="43.9476" lon="8.0329933"><ele>528.1428571428571</ele><time>2026-04-11T08:23:17.724Z</time></trkpt><trkpt lat="43.9475333" lon="8.0329783"><ele>526.2857142857142</ele><time>2026-04-11T08:23:19.724Z</time></trkpt><trkpt lat="43.9474783" lon="8.0329217"><ele>524.4285714285714</ele><time>2026-04-11T08:23:22.724Z</time></trkpt><trkpt lat="43.947425" lon="8.0328733"><ele>522.5714285714286</ele><time>2026-04-11T08:23:25.725Z</time></trkpt><trkpt lat="43.9473567" lon="8.032875"><ele>520.7142857142858</ele><time>2026-04-11T08:23:28.724Z</time></trkpt><trkpt lat="43.9472917" lon="8.0328633"><ele>518.8571428571429</ele><time>2026-04-11T08:23:31.724Z</time></trkpt><trkpt lat="43.947215" lon="8.03288"><ele>517.0</ele><time>2026-04-11T08:23:33.724Z</time></trkpt><trkpt lat="43.94712" lon="8.0329033"><ele>517.0</ele><time>2026-04-11T08:23:35.724Z</time></trkpt><trkpt lat="43.94703" lon="8.0328983"><ele>517.0</ele><time>2026-04-11T08:23:37.724Z</time></trkpt><trkpt lat="43.9469483" lon="8.03289"><ele>517.0</ele><time>2026-04-11T08:23:39.724Z</time></trkpt><trkpt lat="43.9468767" lon="8.0328717"><ele>517.0</ele><time>2026-04-11T08:23:41.724Z</time></trkpt><trkpt lat="43.9467967" lon="8.03286"><ele>517.0</ele><time>2026-04-11T08:23:44.724Z</time></trkpt><trkpt lat="43.9467283" lon="8.03285"><ele>517.0</ele><time>2026-04-11T08:23:46.724Z</time></trkpt><trkpt lat="43.946665" lon="8.0328783"><ele>515.8333333333334</ele><time>2026-04-11T08:23:48.724Z</time></trkpt><trkpt lat="43.9465817" lon="8.0329067"><ele>514.6666666666667</ele><time>2026-04-11T08:23:51.724Z</time></trkpt><trkpt lat="43.9464933" lon="8.0329583"><ele>513.5</ele><time>2026-04-11T08:23:54.724Z</time></trkpt><trkpt lat="43.9464467" lon="8.03306"><ele>512.3333333333334</ele><time>2026-04-11T08:23:56.724Z</time></trkpt><trkpt lat="43.9463783" lon="8.03313"><ele>511.1666666666667</ele><time>2026-04-11T08:23:58.724Z</time></trkpt><trkpt lat="43.9462967" lon="8.0331833"><ele>510.0</ele><time>2026-04-11T08:24:00.724Z</time></trkpt><trkpt lat="43.9462117" lon="8.0332067"><ele>510.0</ele><time>2026-04-11T08:24:02.724Z</time></trkpt><trkpt lat="43.9461467" lon="8.0332617"><ele>510.0</ele><time>2026-04-11T08:24:04.724Z</time></trkpt><trkpt lat="43.9460767" lon="8.0333117"><ele>510.0</ele><time>2026-04-11T08:24:06.725Z</time></trkpt><trkpt lat="43.9459833" lon="8.0333617"><ele>510.0</ele><time>2026-04-11T08:24:08.724Z</time></trkpt><trkpt lat="43.9458883" lon="8.03343"><ele>510.0</ele><time>2026-04-11T08:24:10.724Z</time></trkpt><trkpt lat="43.9458017" lon="8.03349"><ele>509.8333333333333</ele><time>2026-04-11T08:24:12.724Z</time></trkpt><trkpt lat="43.9457333" lon="8.0335333"><ele>509.66666666666663</ele><time>2026-04-11T08:24:14.724Z</time></trkpt><trkpt lat="43.9456533" lon="8.0336083"><ele>509.5</ele><time>2026-04-11T08:24:16.725Z</time></trkpt><trkpt lat="43.9455717" lon="8.0337017"><ele>509.3333333333333</ele><time>2026-04-11T08:24:18.724Z</time></trkpt><trkpt lat="43.9455067" lon="8.0337683"><ele>509.16666666666663</ele><time>2026-04-11T08:24:21.724Z</time></trkpt><trkpt lat="43.9454433" lon="8.0337883"><ele>509.0</ele><time>2026-04-11T08:24:24.724Z</time></trkpt><trkpt lat="43.9453717" lon="8.0337767"><ele>508.99999999999994</ele><time>2026-04-11T08:24:28.724Z</time></trkpt><trkpt lat="43.9453" lon="8.0337933"><ele>509.0</ele><time>2026-04-11T08:24:32.724Z</time></trkpt><trkpt lat="43.94523" lon="8.0338"><ele>508.99999999999994</ele><time>2026-04-11T08:24:36.724Z</time></trkpt><trkpt lat="43.9451583" lon="8.0338117"><ele>508.99999999999994</ele><time>2026-04-11T08:24:39.724Z</time></trkpt><trkpt lat="43.945085" lon="8.0338183"><ele>509.0</ele><time>2026-04-11T08:24:43.724Z</time></trkpt><trkpt lat="43.94501" lon="8.033835"><ele>508.99999999999994</ele><time>2026-04-11T08:24:47.724Z</time></trkpt><trkpt lat="43.9449583" lon="8.0338917"><ele>508.99999999999994</ele><time>2026-04-11T08:24:50.724Z</time></trkpt><trkpt lat="43.9449" lon="8.0339667"><ele>508.8333333333333</ele><time>2026-04-11T08:24:52.725Z</time></trkpt><trkpt lat="43.9448283" lon="8.03401"><ele>508.66666666666663</ele><time>2026-04-11T08:24:54.725Z</time></trkpt><trkpt lat="43.944755" lon="8.0340483"><ele>508.5</ele><time>2026-04-11T08:24:56.724Z</time></trkpt><trkpt lat="43.9446733" lon="8.034075"><ele>508.33333333333337</ele><time>2026-04-11T08:24:58.724Z</time></trkpt><trkpt lat="43.9446" lon="8.034095"><ele>508.1666666666667</ele><time>2026-04-11T08:25:00.724Z</time></trkpt><trkpt lat="43.9445017" lon="8.03412"><ele>508.0</ele><time>2026-04-11T08:25:03.724Z</time></trkpt><trkpt lat="43.94443" lon="8.03417"><ele>508.00000000000006</ele><time>2026-04-11T08:25:05.724Z</time></trkpt><trkpt lat="43.9443583" lon="8.0341883"><ele>508.0</ele><time>2026-04-11T08:25:07.724Z</time></trkpt><trkpt lat="43.9442767" lon="8.0341933"><ele>508.0</ele><time>2026-04-11T08:25:10.724Z</time></trkpt><trkpt lat="43.9442067" lon="8.0342217"><ele>508.0</ele><time>2026-04-11T08:25:12.724Z</time></trkpt><trkpt lat="43.9441283" lon="8.03422"><ele>508.00000000000006</ele><time>2026-04-11T08:25:14.724Z</time></trkpt><trkpt lat="43.9440383" lon="8.0342733"><ele>508.0</ele><time>2026-04-11T08:25:16.724Z</time></trkpt><trkpt lat="43.9439367" lon="8.0343283"><ele>504.5</ele><time>2026-04-11T08:25:18.724Z</time></trkpt><trkpt lat="43.9438233" lon="8.0343717"><ele>501.0</ele><time>2026-04-11T08:25:20.724Z</time></trkpt><trkpt lat="43.9437" lon="8.0344033"><ele>497.5</ele><time>2026-04-11T08:25:22.724Z</time></trkpt><trkpt lat="43.9435767" lon="8.03442"><ele>494.0</ele><time>2026-04-11T08:25:24.724Z</time></trkpt><trkpt lat="43.943455" lon="8.0344367"><ele>491.16666666666663</ele><time>2026-04-11T08:25:26.724Z</time></trkpt><trkpt lat="43.9433417" lon="8.0344767"><ele>488.3333333333333</ele><time>2026-04-11T08:25:28.724Z</time></trkpt><trkpt lat="43.9432567" lon="8.034545"><ele>485.5</ele><time>2026-04-11T08:25:30.724Z</time></trkpt><trkpt lat="43.9432033" lon="8.03462"><ele>482.66666666666663</ele><time>2026-04-11T08:25:32.724Z</time></trkpt><trkpt lat="43.9431467" lon="8.034695"><ele>479.8333333333333</ele><time>2026-04-11T08:25:35.724Z</time></trkpt><trkpt lat="43.9430817" lon="8.0347417"><ele>477.0</ele><time>2026-04-11T08:25:37.724Z</time></trkpt><trkpt lat="43.9430017" lon="8.034745"><ele>477.0</ele><time>2026-04-11T08:25:39.725Z</time></trkpt><trkpt lat="43.942905" lon="8.0347067"><ele>477.0</ele><time>2026-04-11T08:25:42.724Z</time></trkpt><trkpt lat="43.9428083" lon="8.0347233"><ele>477.0</ele><time>2026-04-11T08:25:44.724Z</time></trkpt><trkpt lat="43.9427217" lon="8.0347317"><ele>477.0</ele><time>2026-04-11T08:25:46.725Z</time></trkpt><trkpt lat="43.9426567" lon="8.0347267"><ele>477.0</ele><time>2026-04-11T08:25:48.724Z</time></trkpt><trkpt lat="43.94257" lon="8.034725"><ele>477.0</ele><time>2026-04-11T08:25:51.724Z</time></trkpt><trkpt lat="43.942505" lon="8.03473"><ele>476.85714285714283</ele><time>2026-04-11T08:25:55.724Z</time></trkpt><trkpt lat="43.94246" lon="8.0348"><ele>476.71428571428567</ele><time>2026-04-11T08:26:03.726Z</time></trkpt><trkpt lat="43.9424367" lon="8.0348917"><ele>476.57142857142856</ele><time>2026-04-11T08:26:07.725Z</time></trkpt><trkpt lat="43.9424683" lon="8.0349867"><ele>476.42857142857144</ele><time>2026-04-11T08:26:11.725Z</time></trkpt><trkpt lat="43.9425133" lon="8.035065"><ele>476.2857142857143</ele><time>2026-04-11T08:26:13.725Z</time></trkpt><trkpt lat="43.9425533" lon="8.0351517"><ele>476.1428571428571</ele><time>2026-04-11T08:26:16.725Z</time></trkpt><trkpt lat="43.9425267" lon="8.0352517"><ele>476.0</ele><time>2026-04-11T08:26:19.725Z</time></trkpt><trkpt lat="43.9424667" lon="8.0353117"><ele>476.0</ele><time>2026-04-11T08:26:21.725Z</time></trkpt><trkpt lat="43.9424083" lon="8.0353633"><ele>476.0</ele><time>2026-04-11T08:26:23.725Z</time></trkpt><trkpt lat="43.9423583" lon="8.03545"><ele>476.0</ele><time>2026-04-11T08:26:26.725Z</time></trkpt><trkpt lat="43.942295" lon="8.035465"><ele>476.0</ele><time>2026-04-11T08:26:29.725Z</time></trkpt><trkpt lat="43.942295" lon="8.0355617"><ele>476.0</ele><time>2026-04-11T08:26:32.725Z</time></trkpt><trkpt lat="43.942245" lon="8.035625"><ele>476.0</ele><time>2026-04-11T08:26:35.725Z</time></trkpt><trkpt lat="43.9421833" lon="8.035555"><ele>476.0</ele><time>2026-04-11T08:26:38.725Z</time></trkpt><trkpt lat="43.9421733" lon="8.0354567"><ele>476.0</ele><time>2026-04-11T08:26:41.726Z</time></trkpt><trkpt lat="43.9421817" lon="8.0353683"><ele>476.0</ele><time>2026-04-11T08:26:44.725Z</time></trkpt><trkpt lat="43.9421533" lon="8.035275"><ele>476.0</ele><time>2026-04-11T08:26:47.725Z</time></trkpt><trkpt lat="43.9421233" lon="8.0351883"><ele>476.0</ele><time>2026-04-11T08:26:50.725Z</time></trkpt><trkpt lat="43.9421" lon="8.0351067"><ele>476.0</ele><time>2026-04-11T08:26:53.725Z</time></trkpt><trkpt lat="43.9420433" lon="8.034995"><ele>476.0</ele><time>2026-04-11T08:26:56.725Z</time></trkpt><trkpt lat="43.942" lon="8.0349167"><ele>476.0</ele><time>2026-04-11T08:26:58.725Z</time></trkpt><trkpt lat="43.941975" lon="8.034835"><ele>474.3333333333333</ele><time>2026-04-11T08:27:00.726Z</time></trkpt><trkpt lat="43.9419533" lon="8.0347233"><ele>472.66666666666663</ele><time>2026-04-11T08:27:03.725Z</time></trkpt><trkpt lat="43.94189" lon="8.0346517"><ele>471.0</ele><time>2026-04-11T08:27:06.725Z</time></trkpt><trkpt lat="43.9418117" lon="8.034655"><ele>469.33333333333337</ele><time>2026-04-11T08:27:09.725Z</time></trkpt><trkpt lat="43.941725" lon="8.0346667"><ele>467.6666666666667</ele><time>2026-04-11T08:27:12.725Z</time></trkpt><trkpt lat="43.94165" lon="8.0346633"><ele>466.0</ele><time>2026-04-11T08:27:14.725Z</time></trkpt><trkpt lat="43.94158" lon="8.0346333"><ele>463.33333333333337</ele><time>2026-04-11T08:27:17.725Z</time></trkpt><trkpt lat="43.941505" lon="8.0346117"><ele>460.6666666666667</ele><time>2026-04-11T08:27:25.725Z</time></trkpt><trkpt lat="43.941425" lon="8.0345833"><ele>458.0</ele><time>2026-04-11T08:27:28.726Z</time></trkpt><trkpt lat="43.9413517" lon="8.0345683"><ele>455.33333333333337</ele><time>2026-04-11T08:27:31.725Z</time></trkpt><trkpt lat="43.941265" lon="8.03455"><ele>452.6666666666667</ele><time>2026-04-11T08:27:34.725Z</time></trkpt><trkpt lat="43.9411933" lon="8.0345467"><ele>450.0</ele><time>2026-04-11T08:27:36.725Z</time></trkpt><trkpt lat="43.9411017" lon="8.0345617"><ele>450.0</ele><time>2026-04-11T08:27:39.726Z</time></trkpt><trkpt lat="43.941015" lon="8.0345917"><ele>450.0</ele><time>2026-04-11T08:27:41.726Z</time></trkpt><trkpt lat="43.9408867" lon="8.0345917"><ele>450.0</ele><time>2026-04-11T08:27:43.725Z</time></trkpt><trkpt lat="43.9408183" lon="8.0345833"><ele>450.0</ele><time>2026-04-11T08:27:44.725Z</time></trkpt><trkpt lat="43.9407433" lon="8.03458"><ele>450.0</ele><time>2026-04-11T08:27:45.725Z</time></trkpt><trkpt lat="43.9406667" lon="8.0345783"><ele>450.0</ele><time>2026-04-11T08:27:46.725Z</time></trkpt><trkpt lat="43.9405933" lon="8.034575"><ele>447.3333333333333</ele><time>2026-04-11T08:27:47.725Z</time></trkpt><trkpt lat="43.9405233" lon="8.0345617"><ele>444.66666666666663</ele><time>2026-04-11T08:27:48.725Z</time></trkpt><trkpt lat="43.940415" lon="8.034515"><ele>442.0</ele><time>2026-04-11T08:27:50.726Z</time></trkpt><trkpt lat="43.940345" lon="8.0344783"><ele>439.3333333333333</ele><time>2026-04-11T08:27:52.725Z</time></trkpt><trkpt lat="43.9402833" lon="8.0344583"><ele>436.66666666666663</ele><time>2026-04-11T08:27:54.725Z</time></trkpt><trkpt lat="43.9402033" lon="8.0344567"><ele>434.0</ele><time>2026-04-11T08:27:56.725Z</time></trkpt><trkpt lat="43.9401133" lon="8.0344517"><ele>433.16666666666663</ele><time>2026-04-11T08:27:58.725Z</time></trkpt><trkpt lat="43.9400267" lon="8.0344117"><ele>432.3333333333333</ele><time>2026-04-11T08:28:01.725Z</time></trkpt><trkpt lat="43.9399433" lon="8.034365"><ele>431.5</ele><time>2026-04-11T08:28:04.725Z</time></trkpt><trkpt lat="43.9398667" lon="8.034325"><ele>430.66666666666663</ele><time>2026-04-11T08:28:07.725Z</time></trkpt><trkpt lat="43.9397933" lon="8.03428"><ele>429.8333333333333</ele><time>2026-04-11T08:28:10.725Z</time></trkpt><trkpt lat="43.9397167" lon="8.034235"><ele>429.0</ele><time>2026-04-11T08:28:13.725Z</time></trkpt><trkpt lat="43.9396433" lon="8.0341433"><ele>427.0</ele><time>2026-04-11T08:28:17.726Z</time></trkpt><trkpt lat="43.939605" lon="8.0340483"><ele>425.0</ele><time>2026-04-11T08:28:21.724Z</time></trkpt><trkpt lat="43.9395533" lon="8.0339567"><ele>423.0</ele><time>2026-04-11T08:28:25.724Z</time></trkpt><trkpt lat="43.9394967" lon="8.0338733"><ele>421.0</ele><time>2026-04-11T08:28:29.724Z</time></trkpt><trkpt lat="43.9394433" lon="8.0338"><ele>419.0</ele><time>2026-04-11T08:28:33.724Z</time></trkpt><trkpt lat="43.9393717" lon="8.0337433"><ele>417.0</ele><time>2026-04-11T08:28:36.725Z</time></trkpt><trkpt lat="43.9393067" lon="8.03368"><ele>417.0</ele><time>2026-04-11T08:28:39.725Z</time></trkpt><trkpt lat="43.9392333" lon="8.0336417"><ele>417.0</ele><time>2026-04-11T08:28:42.724Z</time></trkpt><trkpt lat="43.9391467" lon="8.0336167"><ele>417.0</ele><time>2026-04-11T08:28:45.724Z</time></trkpt><trkpt lat="43.9390467" lon="8.0336183"><ele>417.0</ele><time>2026-04-11T08:28:48.724Z</time></trkpt><trkpt lat="43.93898" lon="8.03362"><ele>417.0</ele><time>2026-04-11T08:28:50.724Z</time></trkpt><trkpt lat="43.9389117" lon="8.0336233"><ele>417.0</ele><time>2026-04-11T08:28:52.724Z</time></trkpt><trkpt lat="43.9388483" lon="8.0336267"><ele>417.5</ele><time>2026-04-11T08:28:54.724Z</time></trkpt><trkpt lat="43.93878" lon="8.0336317"><ele>418.0</ele><time>2026-04-11T08:28:56.725Z</time></trkpt><trkpt lat="43.9387083" lon="8.03365"><ele>418.5</ele><time>2026-04-11T08:28:58.725Z</time></trkpt><trkpt lat="43.93863" lon="8.0336767"><ele>419.0</ele><time>2026-04-11T08:29:00.725Z</time></trkpt><trkpt lat="43.9385417" lon="8.0337183"><ele>419.5</ele><time>2026-04-11T08:29:02.724Z</time></trkpt><trkpt lat="43.938425" lon="8.0337567"><ele>420.0</ele><time>2026-04-11T08:29:04.724Z</time></trkpt><trkpt lat="43.9383633" lon="8.0337833"><ele>420.0</ele><time>2026-04-11T08:29:05.724Z</time></trkpt><trkpt lat="43.9383017" lon="8.0338033"><ele>420.0</ele><time>2026-04-11T08:29:06.724Z</time></trkpt><trkpt lat="43.9382367" lon="8.0338183"><ele>420.0</ele><time>2026-04-11T08:29:07.724Z</time></trkpt><trkpt lat="43.9381667" lon="8.0338217"><ele>420.0</ele><time>2026-04-11T08:29:08.724Z</time></trkpt><trkpt lat="43.9380967" lon="8.0338167"><ele>420.0</ele><time>2026-04-11T08:29:09.724Z</time></trkpt><trkpt lat="43.9380283" lon="8.0338133"><ele>420.0</ele><time>2026-04-11T08:29:10.724Z</time></trkpt><trkpt lat="43.9379617" lon="8.0338183"><ele>420.0</ele><time>2026-04-11T08:29:11.724Z</time></trkpt><trkpt lat="43.9378917" lon="8.03383"><ele>420.0</ele><time>2026-04-11T08:29:12.724Z</time></trkpt><trkpt lat="43.937825" lon="8.0338467"><ele>420.0</ele><time>2026-04-11T08:29:13.724Z</time></trkpt><trkpt lat="43.9377233" lon="8.0339217"><ele>420.0</ele><time>2026-04-11T08:29:15.724Z</time></trkpt><trkpt lat="43.9376683" lon="8.033965"><ele>420.0</ele><time>2026-04-11T08:29:16.724Z</time></trkpt><trkpt lat="43.9375817" lon="8.0340033"><ele>420.0</ele><time>2026-04-11T08:29:18.724Z</time></trkpt><trkpt lat="43.9375117" lon="8.0340167"><ele>420.0</ele><time>2026-04-11T08:29:20.724Z</time></trkpt><trkpt lat="43.9374433" lon="8.0340267"><ele>419.2857142857143</ele><time>2026-04-11T08:29:22.724Z</time></trkpt><trkpt lat="43.93738" lon="8.03403"><ele>418.57142857142856</ele><time>2026-04-11T08:29:24.724Z</time></trkpt><trkpt lat="43.937315" lon="8.0340333"><ele>417.8571428571429</ele><time>2026-04-11T08:29:26.724Z</time></trkpt><trkpt lat="43.9372467" lon="8.034025"><ele>417.1428571428571</ele><time>2026-04-11T08:29:28.724Z</time></trkpt><trkpt lat="43.9371783" lon="8.0340117"><ele>416.42857142857144</ele><time>2026-04-11T08:29:30.724Z</time></trkpt><trkpt lat="43.9370967" lon="8.0339983"><ele>415.7142857142857</ele><time>2026-04-11T08:29:33.724Z</time></trkpt><trkpt lat="43.9370217" lon="8.0340467"><ele>415.0</ele><time>2026-04-11T08:29:36.724Z</time></trkpt><trkpt lat="43.9369633" lon="8.03408"><ele>415.00000000000006</ele><time>2026-04-11T08:29:38.724Z</time></trkpt><trkpt lat="43.936875" lon="8.0341117"><ele>415.0</ele><time>2026-04-11T08:29:41.724Z</time></trkpt><trkpt lat="43.93679" lon="8.0341317"><ele>415.0</ele><time>2026-04-11T08:29:44.725Z</time></trkpt><trkpt lat="43.936725" lon="8.03414"><ele>415.0</ele><time>2026-04-11T08:29:47.724Z</time></trkpt><trkpt lat="43.9366667" lon="8.0341783"><ele>415.00000000000006</ele><time>2026-04-11T08:29:50.724Z</time></trkpt><trkpt lat="43.9365917" lon="8.0341933"><ele>415.0</ele><time>2026-04-11T08:29:55.724Z</time></trkpt><trkpt lat="43.9364667" lon="8.0342067"><ele>417.6666666666667</ele><time>2026-04-11T08:30:49.724Z</time></trkpt><trkpt lat="43.9364317" lon="8.034285"><ele>420.33333333333337</ele><time>2026-04-11T08:31:19.725Z</time></trkpt><trkpt lat="43.9363733" lon="8.0343433"><ele>423.0</ele><time>2026-04-11T08:31:21.724Z</time></trkpt><trkpt lat="43.9363017" lon="8.0344117"><ele>425.66666666666663</ele><time>2026-04-11T08:31:23.724Z</time></trkpt><trkpt lat="43.9362267" lon="8.0345083"><ele>428.3333333333333</ele><time>2026-04-11T08:31:25.724Z</time></trkpt><trkpt lat="43.936175" lon="8.03464"><ele>431.0</ele><time>2026-04-11T08:31:27.725Z</time></trkpt><trkpt lat="43.9361333" lon="8.0347417"><ele>431.0</ele><time>2026-04-11T08:31:29.724Z</time></trkpt><trkpt lat="43.9360617" lon="8.0348233"><ele>431.0</ele><time>2026-04-11T08:31:31.724Z</time></trkpt><trkpt lat="43.93597" lon="8.0348983"><ele>431.0</ele><time>2026-04-11T08:31:33.725Z</time></trkpt><trkpt lat="43.935855" lon="8.0349533"><ele>431.0</ele><time>2026-04-11T08:31:35.724Z</time></trkpt><trkpt lat="43.9357917" lon="8.0349717"><ele>431.0</ele><time>2026-04-11T08:31:36.724Z</time></trkpt><trkpt lat="43.9357283" lon="8.0349867"><ele>430.8333333333333</ele><time>2026-04-11T08:31:37.724Z</time></trkpt><trkpt lat="43.9356133" lon="8.0350267"><ele>430.66666666666663</ele><time>2026-04-11T08:31:39.724Z</time></trkpt><trkpt lat="43.9355183" lon="8.03506"><ele>430.5</ele><time>2026-04-11T08:31:41.724Z</time></trkpt><trkpt lat="43.935455" lon="8.0350867"><ele>430.33333333333337</ele><time>2026-04-11T08:31:43.724Z</time></trkpt><trkpt lat="43.9353867" lon="8.0351"><ele>430.1666666666667</ele><time>2026-04-11T08:31:45.724Z</time></trkpt><trkpt lat="43.93532" lon="8.03514"><ele>430.0</ele><time>2026-04-11T08:31:47.724Z</time></trkpt><trkpt lat="43.935235" lon="8.03516"><ele>430.00000000000006</ele><time>2026-04-11T08:31:49.724Z</time></trkpt><trkpt lat="43.9351467" lon="8.0351767"><ele>430.0</ele><time>2026-04-11T08:31:51.724Z</time></trkpt><trkpt lat="43.93507" lon="8.0351917"><ele>430.0</ele><time>2026-04-11T08:31:53.724Z</time></trkpt><trkpt lat="43.9349833" lon="8.0351883"><ele>430.0</ele><time>2026-04-11T08:31:55.725Z</time></trkpt><trkpt lat="43.9349033" lon="8.035175"><ele>430.00000000000006</ele><time>2026-04-11T08:31:57.725Z</time></trkpt><trkpt lat="43.9347917" lon="8.0351733"><ele>430.0</ele><time>2026-04-11T08:31:59.724Z</time></trkpt><trkpt lat="43.934685" lon="8.0351733"><ele>430.1666666666667</ele><time>2026-04-11T08:32:01.724Z</time></trkpt><trkpt lat="43.93458" lon="8.0351867"><ele>430.33333333333337</ele><time>2026-04-11T08:32:03.724Z</time></trkpt><trkpt lat="43.93449" lon="8.03518"><ele>430.5</ele><time>2026-04-11T08:32:05.724Z</time></trkpt><trkpt lat="43.9344133" lon="8.0351467"><ele>430.66666666666663</ele><time>2026-04-11T08:32:08.724Z</time></trkpt><trkpt lat="43.9343683" lon="8.0352367"><ele>430.8333333333333</ele><time>2026-04-11T08:32:12.724Z</time></trkpt><trkpt lat="43.934355" lon="8.0353267"><ele>431.0</ele><time>2026-04-11T08:32:14.724Z</time></trkpt><trkpt lat="43.9342967" lon="8.03537"><ele>428.49999999999994</ele><time>2026-04-11T08:32:17.724Z</time></trkpt><trkpt lat="43.9342167" lon="8.0353083"><ele>426.0</ele><time>2026-04-11T08:32:19.724Z</time></trkpt><trkpt lat="43.9341383" lon="8.03523"><ele>423.5</ele><time>2026-04-11T08:32:21.725Z</time></trkpt><trkpt lat="43.93408" lon="8.035145"><ele>421.0</ele><time>2026-04-11T08:32:23.724Z</time></trkpt><trkpt lat="43.934025" lon="8.0350583"><ele>418.49999999999994</ele><time>2026-04-11T08:32:25.724Z</time></trkpt><trkpt lat="43.93399" lon="8.034955"><ele>416.0</ele><time>2026-04-11T08:32:27.724Z</time></trkpt><trkpt lat="43.9339617" lon="8.034835"><ele>413.16666666666663</ele><time>2026-04-11T08:32:29.724Z</time></trkpt><trkpt lat="43.9339417" lon="8.0347183"><ele>410.3333333333333</ele><time>2026-04-11T08:32:31.725Z</time></trkpt><trkpt lat="43.9339433" lon="8.034615"><ele>407.5</ele><time>2026-04-11T08:32:33.724Z</time></trkpt><trkpt lat="43.9339383" lon="8.0345033"><ele>404.66666666666663</ele><time>2026-04-11T08:32:35.725Z</time></trkpt><trkpt lat="43.933895" lon="8.0344083"><ele>401.8333333333333</ele><time>2026-04-11T08:32:37.724Z</time></trkpt><trkpt lat="43.93383" lon="8.034385"><ele>399.0</ele><time>2026-04-11T08:32:39.724Z</time></trkpt><trkpt lat="43.93375" lon="8.0343883"><ele>399.0</ele><time>2026-04-11T08:32:41.724Z</time></trkpt><trkpt lat="43.93369" lon="8.03435"><ele>399.0</ele><time>2026-04-11T08:32:43.725Z</time></trkpt><trkpt lat="43.9336233" lon="8.034315"><ele>399.0</ele><time>2026-04-11T08:32:45.724Z</time></trkpt><trkpt lat="43.933555" lon="8.0342867"><ele>399.0</ele><time>2026-04-11T08:32:47.724Z</time></trkpt><trkpt lat="43.93349" lon="8.0342817"><ele>399.0</ele><time>2026-04-11T08:32:49.724Z</time></trkpt><trkpt lat="43.933415" lon="8.03428"><ele>399.0</ele><time>2026-04-11T08:32:51.724Z</time></trkpt><trkpt lat="43.93334" lon="8.0342683"><ele>399.0</ele><time>2026-04-11T08:32:53.724Z</time></trkpt><trkpt lat="43.933265" lon="8.034245"><ele>399.14285714285717</ele><time>2026-04-11T08:32:55.724Z</time></trkpt><trkpt lat="43.9331983" lon="8.0342117"><ele>399.2857142857143</ele><time>2026-04-11T08:32:57.724Z</time></trkpt><trkpt lat="43.9331333" lon="8.0341833"><ele>399.42857142857144</ele><time>2026-04-11T08:32:59.724Z</time></trkpt><trkpt lat="43.9330717" lon="8.0341283"><ele>399.57142857142856</ele><time>2026-04-11T08:33:01.724Z</time></trkpt><trkpt lat="43.93303" lon="8.0340617"><ele>399.7142857142857</ele><time>2026-04-11T08:33:03.724Z</time></trkpt><trkpt lat="43.932975" lon="8.0339733"><ele>399.8571428571429</ele><time>2026-04-11T08:33:06.724Z</time></trkpt><trkpt lat="43.932925" lon="8.0339183"><ele>400.0</ele><time>2026-04-11T08:33:08.724Z</time></trkpt><trkpt lat="43.9328633" lon="8.0338483"><ele>399.8571428571429</ele><time>2026-04-11T08:33:11.724Z</time></trkpt><trkpt lat="43.9328217" lon="8.0337767"><ele>399.7142857142857</ele><time>2026-04-11T08:33:14.724Z</time></trkpt><trkpt lat="43.93277" lon="8.0337083"><ele>399.57142857142856</ele><time>2026-04-11T08:33:18.724Z</time></trkpt><trkpt lat="43.9327383" lon="8.03379"><ele>399.42857142857144</ele><time>2026-04-11T08:33:23.724Z</time></trkpt><trkpt lat="43.93272" lon="8.0338917"><ele>399.2857142857143</ele><time>2026-04-11T08:33:27.724Z</time></trkpt><trkpt lat="43.93266" lon="8.0339983"><ele>399.14285714285717</ele><time>2026-04-11T08:35:16.724Z</time></trkpt><trkpt lat="43.9325883" lon="8.0339917"><ele>399.0</ele><time>2026-04-11T08:35:19.724Z</time></trkpt><trkpt lat="43.9325" lon="8.034065"><ele>400.0</ele><time>2026-04-11T08:35:22.725Z</time></trkpt><trkpt lat="43.9324217" lon="8.0341567"><ele>401.0</ele><time>2026-04-11T08:35:24.724Z</time></trkpt><trkpt lat="43.932345" lon="8.0342367"><ele>402.0</ele><time>2026-04-11T08:35:26.725Z</time></trkpt><trkpt lat="43.9322467" lon="8.0342833"><ele>403.0</ele><time>2026-04-11T08:35:28.724Z</time></trkpt><trkpt lat="43.93214" lon="8.0343617"><ele>404.0</ele><time>2026-04-11T08:35:30.724Z</time></trkpt><trkpt lat="43.93204" lon="8.03446"><ele>403.99999999999994</ele><time>2026-04-11T08:35:32.724Z</time></trkpt><trkpt lat="43.9319283" lon="8.0345367"><ele>404.0</ele><time>2026-04-11T08:35:34.724Z</time></trkpt><trkpt lat="43.9318733" lon="8.034585"><ele>404.0</ele><time>2026-04-11T08:35:35.724Z</time></trkpt><trkpt lat="43.93182" lon="8.0346433"><ele>404.0</ele><time>2026-04-11T08:35:36.724Z</time></trkpt><trkpt lat="43.9317667" lon="8.034705"><ele>403.99999999999994</ele><time>2026-04-11T08:35:37.724Z</time></trkpt><trkpt lat="43.931685" lon="8.0348133"><ele>404.0</ele><time>2026-04-11T08:35:39.724Z</time></trkpt><trkpt lat="43.9316183" lon="8.03487"><ele>401.3333333333333</ele><time>2026-04-11T08:35:41.724Z</time></trkpt><trkpt lat="43.9315783" lon="8.0347733"><ele>398.66666666666663</ele><time>2026-04-11T08:35:44.724Z</time></trkpt><trkpt lat="43.93154" lon="8.0346883"><ele>396.0</ele><time>2026-04-11T08:35:46.724Z</time></trkpt><trkpt lat="43.9315383" lon="8.0345817"><ele>393.33333333333337</ele><time>2026-04-11T08:35:48.724Z</time></trkpt><trkpt lat="43.93154" lon="8.03448"><ele>390.6666666666667</ele><time>2026-04-11T08:35:50.724Z</time></trkpt><trkpt lat="43.9315083" lon="8.0344033"><ele>388.0</ele><time>2026-04-11T08:35:52.725Z</time></trkpt><trkpt lat="43.93142" lon="8.0344633"><ele>388.0</ele><time>2026-04-11T08:35:55.724Z</time></trkpt><trkpt lat="43.931345" lon="8.03451"><ele>388.0</ele><time>2026-04-11T08:35:57.724Z</time></trkpt><trkpt lat="43.93125" lon="8.0345583"><ele>388.0</ele><time>2026-04-11T08:35:59.724Z</time></trkpt><trkpt lat="43.9311383" lon="8.0346117"><ele>388.0</ele><time>2026-04-11T08:36:01.724Z</time></trkpt><trkpt lat="43.931045" lon="8.034685"><ele>388.0</ele><time>2026-04-11T08:36:03.724Z</time></trkpt><trkpt lat="43.9309567" lon="8.0347583"><ele>387.4</ele><time>2026-04-11T08:36:05.724Z</time></trkpt><trkpt lat="43.93086" lon="8.034795"><ele>386.79999999999995</ele><time>2026-04-11T08:36:07.724Z</time></trkpt><trkpt lat="43.9307467" lon="8.0348133"><ele>386.2</ele><time>2026-04-11T08:36:09.724Z</time></trkpt><trkpt lat="43.9306383" lon="8.0348533"><ele>385.6</ele><time>2026-04-11T08:36:11.724Z</time></trkpt><trkpt lat="43.93057" lon="8.0349533"><ele>385.0</ele><time>2026-04-11T08:36:13.724Z</time></trkpt><trkpt lat="43.9304983" lon="8.03502"><ele>385.00000000000006</ele><time>2026-04-11T08:36:15.724Z</time></trkpt><trkpt lat="43.930415" lon="8.0350817"><ele>385.0</ele><time>2026-04-11T08:36:18.724Z</time></trkpt><trkpt lat="43.9303483" lon="8.0351517"><ele>385.0</ele><time>2026-04-11T08:36:20.724Z</time></trkpt><trkpt lat="43.93028" lon="8.0352183"><ele>385.0</ele><time>2026-04-11T08:36:22.724Z</time></trkpt><trkpt lat="43.9302133" lon="8.0352733"><ele>385.00000000000006</ele><time>2026-04-11T08:36:24.724Z</time></trkpt><trkpt lat="43.930145" lon="8.03532"><ele>385.0</ele><time>2026-04-11T08:36:26.724Z</time></trkpt><trkpt lat="43.9300683" lon="8.0353633"><ele>381.1666666666667</ele><time>2026-04-11T08:36:28.724Z</time></trkpt><trkpt lat="43.9300067" lon="8.0354467"><ele>377.33333333333337</ele><time>2026-04-11T08:36:31.724Z</time></trkpt><trkpt lat="43.9299283" lon="8.0354267"><ele>373.5</ele><time>2026-04-11T08:36:33.724Z</time></trkpt><trkpt lat="43.9298517" lon="8.0354383"><ele>369.6666666666667</ele><time>2026-04-11T08:36:35.725Z</time></trkpt><trkpt lat="43.9297617" lon="8.0354683"><ele>365.83333333333337</ele><time>2026-04-11T08:36:37.724Z</time></trkpt><trkpt lat="43.9296733" lon="8.0355183"><ele>362.0</ele><time>2026-04-11T08:36:39.724Z</time></trkpt><trkpt lat="43.929575" lon="8.03553"><ele>362.0</ele><time>2026-04-11T08:36:41.724Z</time></trkpt><trkpt lat="43.9295017" lon="8.0355917"><ele>362.0</ele><time>2026-04-11T08:36:43.724Z</time></trkpt><trkpt lat="43.92943" lon="8.0356967"><ele>362.0</ele><time>2026-04-11T08:36:45.724Z</time></trkpt><trkpt lat="43.9293517" lon="8.0357783"><ele>362.0</ele><time>2026-04-11T08:36:47.724Z</time></trkpt><trkpt lat="43.9292783" lon="8.0358617"><ele>362.0</ele><time>2026-04-11T08:36:49.724Z</time></trkpt><trkpt lat="43.9292033" lon="8.0359517"><ele>361.40000000000003</ele><time>2026-04-11T08:36:51.725Z</time></trkpt><trkpt lat="43.9291267" lon="8.0360567"><ele>360.8</ele><time>2026-04-11T08:36:53.724Z</time></trkpt><trkpt lat="43.92904" lon="8.0361167"><ele>360.2</ele><time>2026-04-11T08:36:55.724Z</time></trkpt><trkpt lat="43.9289717" lon="8.03607"><ele>359.6</ele><time>2026-04-11T08:36:57.724Z</time></trkpt><trkpt lat="43.9289283" lon="8.03596"><ele>359.0</ele><time>2026-04-11T08:36:59.724Z</time></trkpt><trkpt lat="43.9288717" lon="8.0358667"><ele>359.0</ele><time>2026-04-11T08:37:01.724Z</time></trkpt><trkpt lat="43.928795" lon="8.03588"><ele>359.0</ele><time>2026-04-11T08:37:05.724Z</time></trkpt><trkpt lat="43.9287317" lon="8.035925"><ele>359.0</ele><time>2026-04-11T08:37:07.724Z</time></trkpt><trkpt lat="43.928665" lon="8.035975"><ele>359.0</ele><time>2026-04-11T08:37:09.724Z</time></trkpt><trkpt lat="43.928595" lon="8.0360283"><ele>359.0</ele><time>2026-04-11T08:37:11.724Z</time></trkpt><trkpt lat="43.928575" lon="8.0361133"><ele>359.0</ele><time>2026-04-11T08:37:13.724Z</time></trkpt><trkpt lat="43.928555" lon="8.036205"><ele>359.0</ele><time>2026-04-11T08:37:15.725Z</time></trkpt><trkpt lat="43.9285217" lon="8.0363217"><ele>359.0</ele><time>2026-04-11T08:37:17.724Z</time></trkpt><trkpt lat="43.928515" lon="8.0364583"><ele>359.0</ele><time>2026-04-11T08:37:19.724Z</time></trkpt><trkpt lat="43.9285267" lon="8.0365483"><ele>359.0</ele><time>2026-04-11T08:37:21.724Z</time></trkpt><trkpt lat="43.9286033" lon="8.0366433"><ele>359.0</ele><time>2026-04-11T08:37:24.724Z</time></trkpt><trkpt lat="43.9286583" lon="8.0367333"><ele>359.0</ele><time>2026-04-11T08:37:26.724Z</time></trkpt><trkpt lat="43.9287133" lon="8.03683"><ele>359.0</ele><time>2026-04-11T08:37:28.724Z</time></trkpt><trkpt lat="43.9287433" lon="8.0369283"><ele>358.83333333333337</ele><time>2026-04-11T08:37:30.724Z</time></trkpt><trkpt lat="43.92876" lon="8.0370233"><ele>358.6666666666667</ele><time>2026-04-11T08:37:32.725Z</time></trkpt><trkpt lat="43.9287633" lon="8.0371233"><ele>358.5</ele><time>2026-04-11T08:37:34.724Z</time></trkpt><trkpt lat="43.9287583" lon="8.0372483"><ele>358.3333333333333</ele><time>2026-04-11T08:37:36.724Z</time></trkpt><trkpt lat="43.9287433" lon="8.0373767"><ele>358.16666666666663</ele><time>2026-04-11T08:37:38.724Z</time></trkpt><trkpt lat="43.9287183" lon="8.0374933"><ele>358.0</ele><time>2026-04-11T08:37:40.724Z</time></trkpt><trkpt lat="43.9286917" lon="8.0375833"><ele>358.0</ele><time>2026-04-11T08:37:42.724Z</time></trkpt><trkpt lat="43.9286583" lon="8.0376917"><ele>358.0</ele><time>2026-04-11T08:37:44.724Z</time></trkpt><trkpt lat="43.9286467" lon="8.0378133"><ele>358.0</ele><time>2026-04-11T08:37:46.724Z</time></trkpt><trkpt lat="43.9287" lon="8.037895"><ele>358.0</ele><time>2026-04-11T08:37:48.724Z</time></trkpt><trkpt lat="43.9287117" lon="8.0380033"><ele>358.0</ele><time>2026-04-11T08:37:51.724Z</time></trkpt><trkpt lat="43.928655" lon="8.03807"><ele>358.0</ele><time>2026-04-11T08:37:53.724Z</time></trkpt><trkpt lat="43.9285867" lon="8.03816"><ele>358.0</ele><time>2026-04-11T08:37:55.724Z</time></trkpt><trkpt lat="43.928515" lon="8.0382467"><ele>358.0</ele><time>2026-04-11T08:37:57.724Z</time></trkpt><trkpt lat="43.9284417" lon="8.0383283"><ele>358.0</ele><time>2026-04-11T08:37:59.724Z</time></trkpt><trkpt lat="43.9283717" lon="8.03842"><ele>358.0</ele><time>2026-04-11T08:38:01.724Z</time></trkpt><trkpt lat="43.9283417" lon="8.0385267"><ele>358.0</ele><time>2026-04-11T08:38:03.724Z</time></trkpt><trkpt lat="43.9283233" lon="8.038635"><ele>358.0</ele><time>2026-04-11T08:38:05.724Z</time></trkpt><trkpt lat="43.9282917" lon="8.0387417"><ele>353.2</ele><time>2026-04-11T08:38:07.724Z</time></trkpt><trkpt lat="43.92824" lon="8.0388333"><ele>348.4</ele><time>2026-04-11T08:38:09.724Z</time></trkpt><trkpt lat="43.9281517" lon="8.0389083"><ele>343.59999999999997</ele><time>2026-04-11T08:38:11.724Z</time></trkpt><trkpt lat="43.9280617" lon="8.03898"><ele>338.79999999999995</ele><time>2026-04-11T08:38:13.724Z</time></trkpt><trkpt lat="43.9279733" lon="8.0390733"><ele>334.0</ele><time>2026-04-11T08:38:15.724Z</time></trkpt><trkpt lat="43.9279167" lon="8.0391783"><ele>332.57142857142856</ele><time>2026-04-11T08:38:18.725Z</time></trkpt><trkpt lat="43.9278633" lon="8.0392317"><ele>331.14285714285717</ele><time>2026-04-11T08:38:20.725Z</time></trkpt><trkpt lat="43.9277983" lon="8.03922"><ele>329.7142857142857</ele><time>2026-04-11T08:38:22.724Z</time></trkpt><trkpt lat="43.9277267" lon="8.0392767"><ele>328.2857142857143</ele><time>2026-04-11T08:38:25.724Z</time></trkpt><trkpt lat="43.9276583" lon="8.0393633"><ele>326.85714285714283</ele><time>2026-04-11T08:38:28.724Z</time></trkpt><trkpt lat="43.9276217" lon="8.0394367"><ele>325.42857142857144</ele><time>2026-04-11T08:38:30.724Z</time></trkpt><trkpt lat="43.92758" lon="8.0395133"><ele>324.0</ele><time>2026-04-11T08:38:32.724Z</time></trkpt><trkpt lat="43.9275167" lon="8.0395967"><ele>323.8333333333333</ele><time>2026-04-11T08:38:34.724Z</time></trkpt><trkpt lat="43.9274567" lon="8.03969"><ele>323.6666666666667</ele><time>2026-04-11T08:38:36.724Z</time></trkpt><trkpt lat="43.9274317" lon="8.03978"><ele>323.5</ele><time>2026-04-11T08:38:38.724Z</time></trkpt><trkpt lat="43.9273783" lon="8.039875"><ele>323.33333333333337</ele><time>2026-04-11T08:38:40.724Z</time></trkpt><trkpt lat="43.9273067" lon="8.0399667"><ele>323.1666666666667</ele><time>2026-04-11T08:38:42.724Z</time></trkpt><trkpt lat="43.92723" lon="8.04005"><ele>323.0</ele><time>2026-04-11T08:38:44.725Z</time></trkpt><trkpt lat="43.9271767" lon="8.04019"><ele>321.83333333333337</ele><time>2026-04-11T08:38:46.724Z</time></trkpt><trkpt lat="43.9271283" lon="8.0403017"><ele>320.6666666666667</ele><time>2026-04-11T08:38:48.725Z</time></trkpt><trkpt lat="43.9270667" lon="8.0403833"><ele>319.5</ele><time>2026-04-11T08:38:50.724Z</time></trkpt><trkpt lat="43.9270183" lon="8.0404767"><ele>318.3333333333333</ele><time>2026-04-11T08:38:52.725Z</time></trkpt><trkpt lat="43.9269717" lon="8.0405867"><ele>317.16666666666663</ele><time>2026-04-11T08:38:55.724Z</time></trkpt><trkpt lat="43.9269317" lon="8.0406567"><ele>316.0</ele><time>2026-04-11T08:38:57.724Z</time></trkpt><trkpt lat="43.9268833" lon="8.04072"><ele>316.0</ele><time>2026-04-11T08:38:59.724Z</time></trkpt><trkpt lat="43.9268283" lon="8.040785"><ele>316.0</ele><time>2026-04-11T08:39:01.724Z</time></trkpt><trkpt lat="43.926775" lon="8.0408417"><ele>316.0</ele><time>2026-04-11T08:39:03.724Z</time></trkpt><trkpt lat="43.9267317" lon="8.0409383"><ele>316.0</ele><time>2026-04-11T08:39:07.724Z</time></trkpt><trkpt lat="43.9266933" lon="8.0410267"><ele>316.0</ele><time>2026-04-11T08:39:10.725Z</time></trkpt><trkpt lat="43.9265833" lon="8.04118"><ele>315.66666666666663</ele><time>2026-04-11T08:40:20.725Z</time></trkpt><trkpt lat="43.9265117" lon="8.04121"><ele>315.3333333333333</ele><time>2026-04-11T08:40:22.725Z</time></trkpt><trkpt lat="43.9264283" lon="8.0412217"><ele>315.0</ele><time>2026-04-11T08:40:24.726Z</time></trkpt><trkpt lat="43.9263533" lon="8.0412017"><ele>314.6666666666667</ele><time>2026-04-11T08:40:26.726Z</time></trkpt><trkpt lat="43.92628" lon="8.0412183"><ele>314.33333333333337</ele><time>2026-04-11T08:40:28.725Z</time></trkpt><trkpt lat="43.9262083" lon="8.0412167"><ele>314.0</ele><time>2026-04-11T08:40:30.725Z</time></trkpt><trkpt lat="43.9261233" lon="8.0412167"><ele>314.0</ele><time>2026-04-11T08:40:32.725Z</time></trkpt><trkpt lat="43.926035" lon="8.0412283"><ele>314.0</ele><time>2026-04-11T08:40:34.725Z</time></trkpt><trkpt lat="43.9259683" lon="8.0412283"><ele>314.0</ele><time>2026-04-11T08:40:37.725Z</time></trkpt><trkpt lat="43.9259433" lon="8.0413117"><ele>314.0</ele><time>2026-04-11T08:41:00.725Z</time></trkpt><trkpt lat="43.9259683" lon="8.0414133"><ele>314.0</ele><time>2026-04-11T08:41:05.725Z</time></trkpt><trkpt lat="43.92605" lon="8.04145"><ele>314.0</ele><time>2026-04-11T08:41:08.726Z</time></trkpt><trkpt lat="43.9261233" lon="8.0414867"><ele>314.0</ele><time>2026-04-11T08:41:11.726Z</time></trkpt><trkpt lat="43.9262017" lon="8.041525"><ele>314.0</ele><time>2026-04-11T08:41:14.725Z</time></trkpt><trkpt lat="43.9262917" lon="8.0415783"><ele>314.0</ele><time>2026-04-11T08:41:17.726Z</time></trkpt><trkpt lat="43.9263533" lon="8.0416233"><ele>314.0</ele><time>2026-04-11T08:41:19.725Z</time></trkpt><trkpt lat="43.9264117" lon="8.0417333"><ele>314.0</ele><time>2026-04-11T08:41:22.725Z</time></trkpt><trkpt lat="43.9264683" lon="8.0418083"><ele>314.0</ele><time>2026-04-11T08:41:24.725Z</time></trkpt><trkpt lat="43.9265283" lon="8.0418533"><ele>313.0</ele><time>2026-04-11T08:41:26.725Z</time></trkpt><trkpt lat="43.926605" lon="8.0419117"><ele>312.0</ele><time>2026-04-11T08:41:29.725Z</time></trkpt><trkpt lat="43.9266667" lon="8.0419683"><ele>311.0</ele><time>2026-04-11T08:41:32.726Z</time></trkpt><trkpt lat="43.9267133" lon="8.042055"><ele>310.0</ele><time>2026-04-11T08:41:35.725Z</time></trkpt><trkpt lat="43.92665" lon="8.0421467"><ele>309.0</ele><time>2026-04-11T08:41:38.725Z</time></trkpt><trkpt lat="43.9265633" lon="8.0422083"><ele>308.0</ele><time>2026-04-11T08:41:41.725Z</time></trkpt><trkpt lat="43.9265" lon="8.0421867"><ele>308.0</ele><time>2026-04-11T08:41:43.725Z</time></trkpt><trkpt lat="43.9264983" lon="8.0422933"><ele>308.0</ele><time>2026-04-11T08:41:49.724Z</time></trkpt><trkpt lat="43.92654" lon="8.0424"><ele>308.0</ele><time>2026-04-11T08:41:52.724Z</time></trkpt><trkpt lat="43.926565" lon="8.042505"><ele>308.0</ele><time>2026-04-11T08:41:55.724Z</time></trkpt><trkpt lat="43.9265917" lon="8.0425867"><ele>308.0</ele><time>2026-04-11T08:41:59.724Z</time></trkpt><trkpt lat="43.9265783" lon="8.0427033"><ele>308.0</ele><time>2026-04-11T08:42:03.724Z</time></trkpt><trkpt lat="43.9265483" lon="8.042795"><ele>305.5</ele><time>2026-04-11T08:42:05.724Z</time></trkpt><trkpt lat="43.9264983" lon="8.0428667"><ele>303.0</ele><time>2026-04-11T08:42:07.724Z</time></trkpt><trkpt lat="43.9264333" lon="8.0429283"><ele>300.5</ele><time>2026-04-11T08:42:09.726Z</time></trkpt><trkpt lat="43.9263633" lon="8.0429017"><ele>298.0</ele><time>2026-04-11T08:42:12.724Z</time></trkpt><trkpt lat="43.9263133" lon="8.042995"><ele>295.5</ele><time>2026-04-11T08:42:16.724Z</time></trkpt><trkpt lat="43.92627" lon="8.0430817"><ele>293.0</ele><time>2026-04-11T08:42:19.724Z</time></trkpt><trkpt lat="43.9262083" lon="8.0431267"><ele>293.0</ele><time>2026-04-11T08:42:23.724Z</time></trkpt><trkpt lat="43.9261717" lon="8.0430367"><ele>293.0</ele><time>2026-04-11T08:42:27.724Z</time></trkpt><trkpt lat="43.9261467" lon="8.0429517"><ele>293.0</ele><time>2026-04-11T08:42:36.724Z</time></trkpt><trkpt lat="43.9261133" lon="8.0428633"><ele>293.0</ele><time>2026-04-11T08:42:40.725Z</time></trkpt><trkpt lat="43.926065" lon="8.0427867"><ele>293.0</ele><time>2026-04-11T08:42:43.724Z</time></trkpt><trkpt lat="43.92601" lon="8.0427017"><ele>293.0</ele><time>2026-04-11T08:42:46.724Z</time></trkpt><trkpt lat="43.9259467" lon="8.04263"><ele>294.1666666666667</ele><time>2026-04-11T08:42:49.724Z</time></trkpt><trkpt lat="43.92588" lon="8.0425617"><ele>295.33333333333337</ele><time>2026-04-11T08:42:52.724Z</time></trkpt><trkpt lat="43.9258017" lon="8.0425033"><ele>296.5</ele><time>2026-04-11T08:42:55.724Z</time></trkpt><trkpt lat="43.9257233" lon="8.0424533"><ele>297.6666666666667</ele><time>2026-04-11T08:42:58.725Z</time></trkpt><trkpt lat="43.9256483" lon="8.0424117"><ele>298.8333333333333</ele><time>2026-04-11T08:43:02.724Z</time></trkpt><trkpt lat="43.9255717" lon="8.0423867"><ele>300.0</ele><time>2026-04-11T08:43:06.724Z</time></trkpt><trkpt lat="43.9255" lon="8.0423667"><ele>300.0</ele><time>2026-04-11T08:43:10.724Z</time></trkpt><trkpt lat="43.925425" lon="8.0423383"><ele>300.0</ele><time>2026-04-11T08:43:14.724Z</time></trkpt><trkpt lat="43.9253483" lon="8.0422917"><ele>300.0</ele><time>2026-04-11T08:43:18.724Z</time></trkpt><trkpt lat="43.9252767" lon="8.0422533"><ele>300.0</ele><time>2026-04-11T08:43:21.724Z</time></trkpt><trkpt lat="43.9252017" lon="8.0422133"><ele>300.0</ele><time>2026-04-11T08:43:25.724Z</time></trkpt><trkpt lat="43.9251367" lon="8.042185"><ele>300.0</ele><time>2026-04-11T08:43:28.724Z</time></trkpt><trkpt lat="43.925075" lon="8.0421667"><ele>299.3333333333333</ele><time>2026-04-11T08:43:31.725Z</time></trkpt><trkpt lat="43.9250067" lon="8.0421617"><ele>298.6666666666667</ele><time>2026-04-11T08:43:34.724Z</time></trkpt><trkpt lat="43.9249283" lon="8.0421567"><ele>298.0</ele><time>2026-04-11T08:43:37.724Z</time></trkpt><trkpt lat="43.9248583" lon="8.0421583"><ele>297.33333333333337</ele><time>2026-04-11T08:43:40.724Z</time></trkpt><trkpt lat="43.9247883" lon="8.0421667"><ele>296.6666666666667</ele><time>2026-04-11T08:43:43.725Z</time></trkpt><trkpt lat="43.9247167" lon="8.0422067"><ele>296.0</ele><time>2026-04-11T08:43:46.724Z</time></trkpt><trkpt lat="43.9246667" lon="8.0423083"><ele>296.0</ele><time>2026-04-11T08:43:49.724Z</time></trkpt><trkpt lat="43.9246367" lon="8.0423967"><ele>296.0</ele><time>2026-04-11T08:43:51.724Z</time></trkpt><trkpt lat="43.9246017" lon="8.04249"><ele>296.0</ele><time>2026-04-11T08:43:53.724Z</time></trkpt><trkpt lat="43.924555" lon="8.0425667"><ele>296.0</ele><time>2026-04-11T08:43:55.724Z</time></trkpt><trkpt lat="43.924515" lon="8.042635"><ele>296.0</ele><time>2026-04-11T08:43:57.725Z</time></trkpt><trkpt lat="43.9244667" lon="8.0427183"><ele>296.0</ele><time>2026-04-11T08:44:00.724Z</time></trkpt><trkpt lat="43.924425" lon="8.0427983"><ele>296.0</ele><time>2026-04-11T08:44:03.724Z</time></trkpt><trkpt lat="43.9243817" lon="8.0428817"><ele>293.0</ele><time>2026-04-11T08:44:06.724Z</time></trkpt><trkpt lat="43.9243417" lon="8.04297"><ele>290.0</ele><time>2026-04-11T08:44:09.724Z</time></trkpt><trkpt lat="43.9243167" lon="8.0430717"><ele>287.0</ele><time>2026-04-11T08:44:13.724Z</time></trkpt><trkpt lat="43.9243017" lon="8.0431567"><ele>284.0</ele><time>2026-04-11T08:44:16.724Z</time></trkpt><trkpt lat="43.92427" lon="8.0432383"><ele>281.0</ele><time>2026-04-11T08:44:19.724Z</time></trkpt><trkpt lat="43.9242217" lon="8.0432983"><ele>278.0</ele><time>2026-04-11T08:44:21.724Z</time></trkpt><trkpt lat="43.9241583" lon="8.0433583"><ele>275.0</ele><time>2026-04-11T08:44:23.724Z</time></trkpt><trkpt lat="43.92409" lon="8.04342"><ele>274.83333333333337</ele><time>2026-04-11T08:44:25.724Z</time></trkpt><trkpt lat="43.92401" lon="8.043465"><ele>274.6666666666667</ele><time>2026-04-11T08:44:27.724Z</time></trkpt><trkpt lat="43.923925" lon="8.04349"><ele>274.5</ele><time>2026-04-11T08:44:30.724Z</time></trkpt><trkpt lat="43.923835" lon="8.0435233"><ele>274.3333333333333</ele><time>2026-04-11T08:44:33.724Z</time></trkpt><trkpt lat="43.9237717" lon="8.0435517"><ele>274.16666666666663</ele><time>2026-04-11T08:44:35.724Z</time></trkpt><trkpt lat="43.9236833" lon="8.0435933"><ele>274.0</ele><time>2026-04-11T08:44:38.724Z</time></trkpt><trkpt lat="43.9236233" lon="8.0436333"><ele>274.0</ele><time>2026-04-11T08:44:40.724Z</time></trkpt><trkpt lat="43.9235567" lon="8.043695"><ele>274.0</ele><time>2026-04-11T08:44:43.724Z</time></trkpt><trkpt lat="43.92352" lon="8.0437833"><ele>274.0</ele><time>2026-04-11T08:44:46.724Z</time></trkpt><trkpt lat="43.9234933" lon="8.0438933"><ele>274.0</ele><time>2026-04-11T08:44:48.724Z</time></trkpt><trkpt lat="43.9234717" lon="8.04406"><ele>274.0</ele><time>2026-04-11T08:44:50.724Z</time></trkpt><trkpt lat="43.923465" lon="8.0441567"><ele>274.0</ele><time>2026-04-11T08:44:51.724Z</time></trkpt><trkpt lat="43.9234617" lon="8.04426"><ele>273.5</ele><time>2026-04-11T08:44:52.724Z</time></trkpt><trkpt lat="43.92346" lon="8.0443633"><ele>273.0</ele><time>2026-04-11T08:44:53.724Z</time></trkpt><trkpt lat="43.923455" lon="8.0444617"><ele>272.5</ele><time>2026-04-11T08:44:54.724Z</time></trkpt><trkpt lat="43.9234383" lon="8.044555"><ele>272.0</ele><time>2026-04-11T08:44:55.724Z</time></trkpt><trkpt lat="43.9234167" lon="8.0446417"><ele>271.5</ele><time>2026-04-11T08:44:56.724Z</time></trkpt><trkpt lat="43.9233517" lon="8.0447867"><ele>271.0</ele><time>2026-04-11T08:44:58.724Z</time></trkpt><trkpt lat="43.9233017" lon="8.0448433"><ele>271.0</ele><time>2026-04-11T08:44:59.724Z</time></trkpt><trkpt lat="43.923215" lon="8.0448967"><ele>271.0</ele><time>2026-04-11T08:45:01.724Z</time></trkpt><trkpt lat="43.9231433" lon="8.0448783"><ele>271.0</ele><time>2026-04-11T08:45:04.724Z</time></trkpt><trkpt lat="43.923065" lon="8.0447917"><ele>271.0</ele><time>2026-04-11T08:45:46.724Z</time></trkpt><trkpt lat="43.9230033" lon="8.0446933"><ele>271.0</ele><time>2026-04-11T08:46:03.724Z</time></trkpt><trkpt lat="43.9229517" lon="8.0446267"><ele>271.0</ele><time>2026-04-11T08:46:05.724Z</time></trkpt><trkpt lat="43.9228817" lon="8.04455"><ele>271.0</ele><time>2026-04-11T08:46:07.725Z</time></trkpt><trkpt lat="43.9228" lon="8.044455"><ele>271.0</ele><time>2026-04-11T08:46:09.724Z</time></trkpt><trkpt lat="43.9227283" lon="8.044355"><ele>271.0</ele><time>2026-04-11T08:46:11.725Z</time></trkpt><trkpt lat="43.922665" lon="8.0442533"><ele>271.0</ele><time>2026-04-11T08:46:13.724Z</time></trkpt><trkpt lat="43.9226033" lon="8.0441517"><ele>271.0</ele><time>2026-04-11T08:46:15.724Z</time></trkpt><trkpt lat="43.92254" lon="8.0440667"><ele>272.3333333333333</ele><time>2026-04-11T08:46:17.724Z</time></trkpt><trkpt lat="43.922465" lon="8.043995"><ele>273.66666666666663</ele><time>2026-04-11T08:46:19.724Z</time></trkpt><trkpt lat="43.9223883" lon="8.04393"><ele>275.0</ele><time>2026-04-11T08:46:21.724Z</time></trkpt><trkpt lat="43.9223367" lon="8.0438733"><ele>276.3333333333333</ele><time>2026-04-11T08:46:24.724Z</time></trkpt><trkpt lat="43.92241" lon="8.043895"><ele>277.6666666666667</ele><time>2026-04-11T08:46:57.724Z</time></trkpt><trkpt lat="43.9224483" lon="8.0439883"><ele>279.0</ele><time>2026-04-11T08:46:59.725Z</time></trkpt><trkpt lat="43.922495" lon="8.0441083"><ele>277.0</ele><time>2026-04-11T08:47:01.724Z</time></trkpt><trkpt lat="43.9225267" lon="8.044225"><ele>275.0</ele><time>2026-04-11T08:47:03.724Z</time></trkpt><trkpt lat="43.9225183" lon="8.0443267"><ele>273.0</ele><time>2026-04-11T08:47:05.724Z</time></trkpt><trkpt lat="43.92243" lon="8.0443467"><ele>271.0</ele><time>2026-04-11T08:47:08.724Z</time></trkpt><trkpt lat="43.9223533" lon="8.0442817"><ele>269.0</ele><time>2026-04-11T08:47:10.724Z</time></trkpt><trkpt lat="43.9222667" lon="8.0442783"><ele>267.0</ele><time>2026-04-11T08:47:12.724Z</time></trkpt><trkpt lat="43.9221933" lon="8.0443633"><ele>267.0</ele><time>2026-04-11T08:47:14.724Z</time></trkpt><trkpt lat="43.9221733" lon="8.04449"><ele>267.0</ele><time>2026-04-11T08:47:16.724Z</time></trkpt><trkpt lat="43.9221667" lon="8.04464"><ele>267.0</ele><time>2026-04-11T08:47:18.724Z</time></trkpt><trkpt lat="43.922145" lon="8.04476"><ele>267.0</ele><time>2026-04-11T08:47:20.724Z</time></trkpt><trkpt lat="43.9220867" lon="8.04481"><ele>267.0</ele><time>2026-04-11T08:47:22.724Z</time></trkpt><trkpt lat="43.922015" lon="8.0448483"><ele>267.0</ele><time>2026-04-11T08:47:24.724Z</time></trkpt><trkpt lat="43.9219383" lon="8.0448683"><ele>267.0</ele><time>2026-04-11T08:47:26.724Z</time></trkpt><trkpt lat="43.9218517" lon="8.04487"><ele>267.0</ele><time>2026-04-11T08:47:28.724Z</time></trkpt><trkpt lat="43.92176" lon="8.04489"><ele>267.0</ele><time>2026-04-11T08:47:30.724Z</time></trkpt><trkpt lat="43.9217017" lon="8.0449667"><ele>267.0</ele><time>2026-04-11T08:47:32.724Z</time></trkpt><trkpt lat="43.9216567" lon="8.0450917"><ele>267.0</ele><time>2026-04-11T08:47:34.724Z</time></trkpt><trkpt lat="43.9215617" lon="8.045175"><ele>263.4</ele><time>2026-04-11T08:47:36.724Z</time></trkpt><trkpt lat="43.9214483" lon="8.0451883"><ele>259.79999999999995</ele><time>2026-04-11T08:47:38.725Z</time></trkpt><trkpt lat="43.9213433" lon="8.045185"><ele>256.2</ele><time>2026-04-11T08:47:40.724Z</time></trkpt><trkpt lat="43.9212333" lon="8.0451983"><ele>252.6</ele><time>2026-04-11T08:47:42.724Z</time></trkpt><trkpt lat="43.921125" lon="8.0452117"><ele>249.0</ele><time>2026-04-11T08:47:44.724Z</time></trkpt><trkpt lat="43.9210417" lon="8.0453017"><ele>249.0</ele><time>2026-04-11T08:47:46.724Z</time></trkpt><trkpt lat="43.9209817" lon="8.0454383"><ele>249.0</ele><time>2026-04-11T08:47:48.724Z</time></trkpt><trkpt lat="43.9209183" lon="8.0455683"><ele>249.0</ele><time>2026-04-11T08:47:50.724Z</time></trkpt><trkpt lat="43.9208433" lon="8.0456917"><ele>249.0</ele><time>2026-04-11T08:47:52.724Z</time></trkpt><trkpt lat="43.92077" lon="8.045805"><ele>247.85714285714283</ele><time>2026-04-11T08:47:54.724Z</time></trkpt><trkpt lat="43.92069" lon="8.0459117"><ele>246.7142857142857</ele><time>2026-04-11T08:47:56.724Z</time></trkpt><trkpt lat="43.92064" lon="8.045965"><ele>245.57142857142856</ele><time>2026-04-11T08:47:57.724Z</time></trkpt><trkpt lat="43.92059" lon="8.0460233"><ele>244.42857142857144</ele><time>2026-04-11T08:47:58.724Z</time></trkpt><trkpt lat="43.92054" lon="8.0460783"><ele>243.2857142857143</ele><time>2026-04-11T08:47:59.724Z</time></trkpt><trkpt lat="43.9204933" lon="8.0461383"><ele>242.14285714285717</ele><time>2026-04-11T08:48:00.724Z</time></trkpt><trkpt lat="43.9204517" lon="8.0462067"><ele>241.0</ele><time>2026-04-11T08:48:01.724Z</time></trkpt><trkpt lat="43.9204183" lon="8.0462867"><ele>241.0</ele><time>2026-04-11T08:48:02.724Z</time></trkpt><trkpt lat="43.9203833" lon="8.046365"><ele>241.00000000000003</ele><time>2026-04-11T08:48:03.724Z</time></trkpt><trkpt lat="43.9203333" lon="8.046515"><ele>241.00000000000003</ele><time>2026-04-11T08:48:05.724Z</time></trkpt><trkpt lat="43.9203" lon="8.0466633"><ele>241.0</ele><time>2026-04-11T08:48:07.724Z</time></trkpt><trkpt lat="43.9202617" lon="8.046815"><ele>241.0</ele><time>2026-04-11T08:48:09.724Z</time></trkpt><trkpt lat="43.9202117" lon="8.04693"><ele>243.20000000000002</ele><time>2026-04-11T08:48:11.724Z</time></trkpt><trkpt lat="43.9201483" lon="8.0470183"><ele>245.40000000000003</ele><time>2026-04-11T08:48:13.724Z</time></trkpt><trkpt lat="43.920065" lon="8.0471083"><ele>247.6</ele><time>2026-04-11T08:48:15.724Z</time></trkpt><trkpt lat="43.9199717" lon="8.047205"><ele>249.8</ele><time>2026-04-11T08:48:17.724Z</time></trkpt><trkpt lat="43.91992" lon="8.0472583"><ele>252.0</ele><time>2026-04-11T08:48:18.725Z</time></trkpt><trkpt lat="43.9198417" lon="8.047375"><ele>248.0</ele><time>2026-04-11T08:48:20.724Z</time></trkpt><trkpt lat="43.9197717" lon="8.0475183"><ele>244.0</ele><time>2026-04-11T08:48:22.724Z</time></trkpt><trkpt lat="43.91974" lon="8.0475967"><ele>240.0</ele><time>2026-04-11T08:48:23.724Z</time></trkpt><trkpt lat="43.9197083" lon="8.047675"><ele>236.0</ele><time>2026-04-11T08:48:24.724Z</time></trkpt><trkpt lat="43.919655" lon="8.04782"><ele>232.0</ele><time>2026-04-11T08:48:26.724Z</time></trkpt><trkpt lat="43.919605" lon="8.04797"><ele>232.0</ele><time>2026-04-11T08:48:28.724Z</time></trkpt><trkpt lat="43.919565" lon="8.0481233"><ele>232.0</ele><time>2026-04-11T08:48:30.724Z</time></trkpt><trkpt lat="43.9195267" lon="8.048265"><ele>232.0</ele><time>2026-04-11T08:48:32.724Z</time></trkpt><trkpt lat="43.9194933" lon="8.0484067"><ele>232.0</ele><time>2026-04-11T08:48:34.724Z</time></trkpt><trkpt lat="43.91945" lon="8.0485433"><ele>232.0</ele><time>2026-04-11T08:48:36.724Z</time></trkpt><trkpt lat="43.9193733" lon="8.04866"><ele>234.33333333333331</ele><time>2026-04-11T08:48:38.724Z</time></trkpt><trkpt lat="43.9193217" lon="8.0487183"><ele>236.66666666666666</ele><time>2026-04-11T08:48:39.724Z</time></trkpt><trkpt lat="43.9192567" lon="8.0487683"><ele>239.0</ele><time>2026-04-11T08:48:40.724Z</time></trkpt><trkpt lat="43.9192" lon="8.04881"><ele>241.33333333333331</ele><time>2026-04-11T08:48:41.724Z</time></trkpt><trkpt lat="43.9191383" lon="8.048845"><ele>243.66666666666666</ele><time>2026-04-11T08:48:42.724Z</time></trkpt><trkpt lat="43.919035" lon="8.0489317"><ele>246.0</ele><time>2026-04-11T08:48:44.724Z</time></trkpt><trkpt lat="43.91896" lon="8.04906"><ele>243.4</ele><time>2026-04-11T08:48:46.724Z</time></trkpt><trkpt lat="43.9189117" lon="8.0491967"><ele>240.8</ele><time>2026-04-11T08:48:48.724Z</time></trkpt><trkpt lat="43.9188683" lon="8.0493533"><ele>238.20000000000002</ele><time>2026-04-11T08:48:50.724Z</time></trkpt><trkpt lat="43.9188483" lon="8.0494383"><ele>235.60000000000002</ele><time>2026-04-11T08:48:51.724Z</time></trkpt><trkpt lat="43.9188433" lon="8.0495883"><ele>233.0</ele><time>2026-04-11T08:48:53.724Z</time></trkpt><trkpt lat="43.91887" lon="8.0497317"><ele>233.0</ele><time>2026-04-11T08:48:55.724Z</time></trkpt><trkpt lat="43.9189" lon="8.0498817"><ele>233.0</ele><time>2026-04-11T08:48:57.724Z</time></trkpt><trkpt lat="43.918925" lon="8.050025"><ele>233.0</ele><time>2026-04-11T08:48:59.724Z</time></trkpt><trkpt lat="43.9189117" lon="8.05014"><ele>233.0</ele><time>2026-04-11T08:49:01.724Z</time></trkpt><trkpt lat="43.9188483" lon="8.0502333"><ele>233.0</ele><time>2026-04-11T08:49:03.724Z</time></trkpt><trkpt lat="43.9187767" lon="8.0503133"><ele>234.2</ele><time>2026-04-11T08:49:05.724Z</time></trkpt><trkpt lat="43.9186967" lon="8.0503383"><ele>235.4</ele><time>2026-04-11T08:49:07.724Z</time></trkpt><trkpt lat="43.918615" lon="8.050295"><ele>236.59999999999997</ele><time>2026-04-11T08:49:09.725Z</time></trkpt><trkpt lat="43.918515" lon="8.0502783"><ele>237.79999999999998</ele><time>2026-04-11T08:49:11.724Z</time></trkpt><trkpt lat="43.9183933" lon="8.05027"><ele>239.0</ele><time>2026-04-11T08:49:13.724Z</time></trkpt><trkpt lat="43.9183183" lon="8.0502717"><ele>239.00000000000003</ele><time>2026-04-11T08:49:14.724Z</time></trkpt><trkpt lat="43.9182333" lon="8.05028"><ele>239.0</ele><time>2026-04-11T08:49:15.724Z</time></trkpt><trkpt lat="43.918145" lon="8.0502767"><ele>239.0</ele><time>2026-04-11T08:49:16.724Z</time></trkpt><trkpt lat="43.9180583" lon="8.05026"><ele>239.0</ele><time>2026-04-11T08:49:17.724Z</time></trkpt><trkpt lat="43.9179667" lon="8.0502283"><ele>239.00000000000003</ele><time>2026-04-11T08:49:18.725Z</time></trkpt><trkpt lat="43.9178833" lon="8.0501917"><ele>239.0</ele><time>2026-04-11T08:49:19.724Z</time></trkpt><trkpt lat="43.9177967" lon="8.050175"><ele>239.00000000000003</ele><time>2026-04-11T08:49:20.724Z</time></trkpt><trkpt lat="43.9177133" lon="8.0501733"><ele>239.0</ele><time>2026-04-11T08:49:21.725Z</time></trkpt><trkpt lat="43.917645" lon="8.0501767"><ele>239.00000000000003</ele><time>2026-04-11T08:49:22.724Z</time></trkpt><trkpt lat="43.9175733" lon="8.0502"><ele>239.00000000000003</ele><time>2026-04-11T08:49:23.724Z</time></trkpt><trkpt lat="43.917505" lon="8.0502283"><ele>239.0</ele><time>2026-04-11T08:49:24.724Z</time></trkpt><trkpt lat="43.9174483" lon="8.05027"><ele>239.00000000000003</ele><time>2026-04-11T08:49:25.724Z</time></trkpt><trkpt lat="43.9174033" lon="8.0503317"><ele>239.00000000000003</ele><time>2026-04-11T08:49:26.724Z</time></trkpt><trkpt lat="43.9173567" lon="8.050395"><ele>239.0</ele><time>2026-04-11T08:49:27.724Z</time></trkpt><trkpt lat="43.9172833" lon="8.0505283"><ele>238.99999999999997</ele><time>2026-04-11T08:49:29.724Z</time></trkpt><trkpt lat="43.9172267" lon="8.05068"><ele>238.99999999999997</ele><time>2026-04-11T08:49:31.724Z</time></trkpt><trkpt lat="43.9171883" lon="8.0508317"><ele>239.0</ele><time>2026-04-11T08:49:33.724Z</time></trkpt><trkpt lat="43.9171767" lon="8.0509233"><ele>239.0</ele><time>2026-04-11T08:49:34.724Z</time></trkpt><trkpt lat="43.917165" lon="8.0511"><ele>237.28571428571433</ele><time>2026-04-11T08:49:36.724Z</time></trkpt><trkpt lat="43.9171617" lon="8.0511883"><ele>235.57142857142858</ele><time>2026-04-11T08:49:37.724Z</time></trkpt><trkpt lat="43.9171583" lon="8.05128"><ele>233.8571428571429</ele><time>2026-04-11T08:49:38.724Z</time></trkpt><trkpt lat="43.9171533" lon="8.0513683"><ele>232.14285714285717</ele><time>2026-04-11T08:49:39.725Z</time></trkpt><trkpt lat="43.9171517" lon="8.0514567"><ele>230.42857142857144</ele><time>2026-04-11T08:49:40.724Z</time></trkpt><trkpt lat="43.917155" lon="8.051545"><ele>228.71428571428572</ele><time>2026-04-11T08:49:41.724Z</time></trkpt><trkpt lat="43.9171783" lon="8.0517117"><ele>227.0</ele><time>2026-04-11T08:49:43.724Z</time></trkpt><trkpt lat="43.9171983" lon="8.0518667"><ele>225.39999999999998</ele><time>2026-04-11T08:49:45.724Z</time></trkpt><trkpt lat="43.917185" lon="8.0520167"><ele>223.79999999999998</ele><time>2026-04-11T08:49:47.724Z</time></trkpt><trkpt lat="43.9171333" lon="8.052135"><ele>222.2</ele><time>2026-04-11T08:49:49.724Z</time></trkpt><trkpt lat="43.917075" lon="8.0522367"><ele>220.6</ele><time>2026-04-11T08:49:51.724Z</time></trkpt><trkpt lat="43.9170067" lon="8.0523383"><ele>219.0</ele><time>2026-04-11T08:49:53.724Z</time></trkpt><trkpt lat="43.9169217" lon="8.052435"><ele>217.75</ele><time>2026-04-11T08:49:55.724Z</time></trkpt><trkpt lat="43.9168267" lon="8.052535"><ele>216.5</ele><time>2026-04-11T08:49:57.724Z</time></trkpt><trkpt lat="43.9167517" lon="8.0526567"><ele>215.25</ele><time>2026-04-11T08:49:59.724Z</time></trkpt><trkpt lat="43.9166933" lon="8.0527867"><ele>214.0</ele><time>2026-04-11T08:50:01.724Z</time></trkpt><trkpt lat="43.9166433" lon="8.0529267"><ele>217.0</ele><time>2026-04-11T08:50:03.724Z</time></trkpt><trkpt lat="43.9166133" lon="8.0530733"><ele>219.99999999999997</ele><time>2026-04-11T08:50:05.724Z</time></trkpt><trkpt lat="43.9165983" lon="8.0532167"><ele>222.99999999999997</ele><time>2026-04-11T08:50:07.724Z</time></trkpt><trkpt lat="43.9165767" lon="8.0533633"><ele>226.0</ele><time>2026-04-11T08:50:09.724Z</time></trkpt><trkpt lat="43.91654" lon="8.05349"><ele>229.0</ele><time>2026-04-11T08:50:11.724Z</time></trkpt><trkpt lat="43.9164683" lon="8.0535967"><ele>228.99999999999997</ele><time>2026-04-11T08:50:13.724Z</time></trkpt><trkpt lat="43.9164133" lon="8.053645"><ele>229.0</ele><time>2026-04-11T08:50:14.724Z</time></trkpt><trkpt lat="43.9163467" lon="8.05369"><ele>229.0</ele><time>2026-04-11T08:50:15.724Z</time></trkpt><trkpt lat="43.91628" lon="8.0537233"><ele>229.0</ele><time>2026-04-11T08:50:16.724Z</time></trkpt><trkpt lat="43.916205" lon="8.0537533"><ele>228.99999999999997</ele><time>2026-04-11T08:50:17.724Z</time></trkpt><trkpt lat="43.9161217" lon="8.0537783"><ele>229.0</ele><time>2026-04-11T08:50:18.724Z</time></trkpt><trkpt lat="43.9160367" lon="8.0537783"><ele>228.99999999999997</ele><time>2026-04-11T08:50:19.724Z</time></trkpt><trkpt lat="43.91595" lon="8.0537583"><ele>229.0</ele><time>2026-04-11T08:50:20.724Z</time></trkpt><trkpt lat="43.9158683" lon="8.0537167"><ele>229.0</ele><time>2026-04-11T08:50:21.724Z</time></trkpt><trkpt lat="43.9157983" lon="8.0536617"><ele>229.0</ele><time>2026-04-11T08:50:22.724Z</time></trkpt><trkpt lat="43.91574" lon="8.0535867"><ele>228.99999999999997</ele><time>2026-04-11T08:50:23.724Z</time></trkpt><trkpt lat="43.9156967" lon="8.05352"><ele>229.0</ele><time>2026-04-11T08:50:24.724Z</time></trkpt><trkpt lat="43.9156317" lon="8.0534567"><ele>230.16666666666666</ele><time>2026-04-11T08:50:25.724Z</time></trkpt><trkpt lat="43.9155683" lon="8.0534133"><ele>231.33333333333331</ele><time>2026-04-11T08:50:26.724Z</time></trkpt><trkpt lat="43.9155067" lon="8.0533933"><ele>232.5</ele><time>2026-04-11T08:50:27.724Z</time></trkpt><trkpt lat="43.9154017" lon="8.0533767"><ele>233.66666666666669</ele><time>2026-04-11T08:50:29.724Z</time></trkpt><trkpt lat="43.9153367" lon="8.05343"><ele>234.83333333333334</ele><time>2026-04-11T08:50:31.724Z</time></trkpt><trkpt lat="43.9153533" lon="8.053525"><ele>236.0</ele><time>2026-04-11T08:50:33.724Z</time></trkpt><trkpt lat="43.9154283" lon="8.0536367"><ele>236.0</ele><time>2026-04-11T08:50:35.724Z</time></trkpt><trkpt lat="43.9153667" lon="8.0537217"><ele>236.00000000000003</ele><time>2026-04-11T08:50:38.724Z</time></trkpt><trkpt lat="43.9152567" lon="8.0537433"><ele>236.00000000000003</ele><time>2026-04-11T08:50:40.724Z</time></trkpt><trkpt lat="43.9151333" lon="8.053845"><ele>236.0</ele><time>2026-04-11T08:50:42.724Z</time></trkpt><trkpt lat="43.9150783" lon="8.05391"><ele>236.0</ele><time>2026-04-11T08:50:43.724Z</time></trkpt><trkpt lat="43.9150267" lon="8.0539917"><ele>234.66666666666669</ele><time>2026-04-11T08:50:44.724Z</time></trkpt><trkpt lat="43.9149883" lon="8.0540833"><ele>233.33333333333334</ele><time>2026-04-11T08:50:45.724Z</time></trkpt><trkpt lat="43.9149533" lon="8.0541817"><ele>232.0</ele><time>2026-04-11T08:50:46.724Z</time></trkpt><trkpt lat="43.9149167" lon="8.05427"><ele>230.66666666666669</ele><time>2026-04-11T08:50:47.724Z</time></trkpt><trkpt lat="43.9148767" lon="8.0543617"><ele>229.33333333333334</ele><time>2026-04-11T08:50:48.724Z</time></trkpt><trkpt lat="43.9148317" lon="8.0544517"><ele>228.0</ele><time>2026-04-11T08:50:49.724Z</time></trkpt><trkpt lat="43.9147883" lon="8.0545367"><ele>225.0</ele><time>2026-04-11T08:50:50.724Z</time></trkpt><trkpt lat="43.9147533" lon="8.0546167"><ele>222.0</ele><time>2026-04-11T08:50:51.724Z</time></trkpt><trkpt lat="43.9147017" lon="8.05477"><ele>219.0</ele><time>2026-04-11T08:50:53.724Z</time></trkpt><trkpt lat="43.9146567" lon="8.054935"><ele>216.0</ele><time>2026-04-11T08:50:55.725Z</time></trkpt><trkpt lat="43.9146367" lon="8.0550217"><ele>213.0</ele><time>2026-04-11T08:50:56.725Z</time></trkpt><trkpt lat="43.914575" lon="8.05515"><ele>213.0</ele><time>2026-04-11T08:50:58.724Z</time></trkpt><trkpt lat="43.9144733" lon="8.0551883"><ele>213.0</ele><time>2026-04-11T08:51:00.724Z</time></trkpt><trkpt lat="43.914385" lon="8.0550983"><ele>213.0</ele><time>2026-04-11T08:51:02.724Z</time></trkpt><trkpt lat="43.9143183" lon="8.0549683"><ele>213.0</ele><time>2026-04-11T08:51:04.724Z</time></trkpt><trkpt lat="43.91426" lon="8.0548383"><ele>213.0</ele><time>2026-04-11T08:51:06.724Z</time></trkpt><trkpt lat="43.9141933" lon="8.05472"><ele>212.83333333333334</ele><time>2026-04-11T08:51:08.724Z</time></trkpt><trkpt lat="43.9141167" lon="8.05459"><ele>212.66666666666669</ele><time>2026-04-11T08:51:10.725Z</time></trkpt><trkpt lat="43.9140767" lon="8.0545117"><ele>212.5</ele><time>2026-04-11T08:51:11.724Z</time></trkpt><trkpt lat="43.9140333" lon="8.0544283"><ele>212.33333333333334</ele><time>2026-04-11T08:51:12.724Z</time></trkpt><trkpt lat="43.9139917" lon="8.0543417"><ele>212.16666666666669</ele><time>2026-04-11T08:51:13.724Z</time></trkpt><trkpt lat="43.9139517" lon="8.0542517"><ele>212.0</ele><time>2026-04-11T08:51:14.725Z</time></trkpt><trkpt lat="43.9139233" lon="8.0541717"><ele>214.0</ele><time>2026-04-11T08:51:15.724Z</time></trkpt><trkpt lat="43.9138783" lon="8.054035"><ele>216.0</ele><time>2026-04-11T08:51:17.724Z</time></trkpt><trkpt lat="43.91382" lon="8.0539233"><ele>218.0</ele><time>2026-04-11T08:51:19.724Z</time></trkpt><trkpt lat="43.9137517" lon="8.0538217"><ele>220.0</ele><time>2026-04-11T08:51:21.725Z</time></trkpt><trkpt lat="43.9136617" lon="8.0537133"><ele>222.0</ele><time>2026-04-11T08:51:23.724Z</time></trkpt><trkpt lat="43.9136067" lon="8.0536417"><ele>222.0</ele><time>2026-04-11T08:51:24.724Z</time></trkpt><trkpt lat="43.9135517" lon="8.0535617"><ele>222.0</ele><time>2026-04-11T08:51:25.724Z</time></trkpt><trkpt lat="43.913495" lon="8.0534817"><ele>222.0</ele><time>2026-04-11T08:51:26.724Z</time></trkpt><trkpt lat="43.9134383" lon="8.0534033"><ele>222.0</ele><time>2026-04-11T08:51:27.724Z</time></trkpt><trkpt lat="43.9133867" lon="8.0533283"><ele>222.0</ele><time>2026-04-11T08:51:28.724Z</time></trkpt><trkpt lat="43.9133417" lon="8.053265"><ele>222.0</ele><time>2026-04-11T08:51:29.724Z</time></trkpt><trkpt lat="43.9132617" lon="8.05319"><ele>217.2</ele><time>2026-04-11T08:51:31.724Z</time></trkpt><trkpt lat="43.91319" lon="8.0533267"><ele>212.39999999999998</ele><time>2026-04-11T08:51:34.725Z</time></trkpt><trkpt lat="43.9131733" lon="8.0534317"><ele>207.60000000000002</ele><time>2026-04-11T08:51:35.724Z</time></trkpt><trkpt lat="43.9131567" lon="8.0535433"><ele>202.8</ele><time>2026-04-11T08:51:36.724Z</time></trkpt><trkpt lat="43.91314" lon="8.0536417"><ele>198.0</ele><time>2026-04-11T08:51:37.724Z</time></trkpt><trkpt lat="43.9130883" lon="8.0537683"><ele>198.0</ele><time>2026-04-11T08:51:39.724Z</time></trkpt><trkpt lat="43.9129683" lon="8.053725"><ele>198.0</ele><time>2026-04-11T08:51:41.725Z</time></trkpt><trkpt lat="43.9129117" lon="8.053645"><ele>198.0</ele><time>2026-04-11T08:51:42.725Z</time></trkpt><trkpt lat="43.9128533" lon="8.053545"><ele>198.0</ele><time>2026-04-11T08:51:43.725Z</time></trkpt><trkpt lat="43.9127983" lon="8.0534367"><ele>198.0</ele><time>2026-04-11T08:51:44.725Z</time></trkpt><trkpt lat="43.9127467" lon="8.0533267"><ele>199.33333333333334</ele><time>2026-04-11T08:51:45.725Z</time></trkpt><trkpt lat="43.9126917" lon="8.0532317"><ele>200.66666666666669</ele><time>2026-04-11T08:51:46.725Z</time></trkpt><trkpt lat="43.9126333" lon="8.053155"><ele>202.0</ele><time>2026-04-11T08:51:47.725Z</time></trkpt><trkpt lat="43.9125733" lon="8.053095"><ele>203.33333333333334</ele><time>2026-04-11T08:51:48.725Z</time></trkpt><trkpt lat="43.9125183" lon="8.05303"><ele>204.66666666666669</ele><time>2026-04-11T08:51:49.725Z</time></trkpt><trkpt lat="43.91247" lon="8.0529567"><ele>206.0</ele><time>2026-04-11T08:51:50.725Z</time></trkpt><trkpt lat="43.9124267" lon="8.0528867"><ele>202.4</ele><time>2026-04-11T08:51:51.725Z</time></trkpt><trkpt lat="43.912385" lon="8.0528133"><ele>198.8</ele><time>2026-04-11T08:51:52.725Z</time></trkpt><trkpt lat="43.9123433" lon="8.0527433"><ele>195.20000000000002</ele><time>2026-04-11T08:51:53.725Z</time></trkpt><trkpt lat="43.91226" lon="8.0526217"><ele>191.60000000000002</ele><time>2026-04-11T08:51:55.725Z</time></trkpt><trkpt lat="43.9121533" lon="8.0525383"><ele>188.0</ele><time>2026-04-11T08:51:57.725Z</time></trkpt><trkpt lat="43.91204" lon="8.0525483"><ele>188.0</ele><time>2026-04-11T08:51:59.725Z</time></trkpt><trkpt lat="43.9119217" lon="8.0526017"><ele>188.0</ele><time>2026-04-11T08:52:01.725Z</time></trkpt><trkpt lat="43.91186" lon="8.05262"><ele>188.0</ele><time>2026-04-11T08:52:02.726Z</time></trkpt><trkpt lat="43.9117433" lon="8.0526317"><ele>188.0</ele><time>2026-04-11T08:52:04.725Z</time></trkpt><trkpt lat="43.9116217" lon="8.05264"><ele>188.0</ele><time>2026-04-11T08:52:06.725Z</time></trkpt><trkpt lat="43.9115583" lon="8.05265"><ele>186.75</ele><time>2026-04-11T08:52:07.725Z</time></trkpt><trkpt lat="43.91144" lon="8.0526917"><ele>185.5</ele><time>2026-04-11T08:52:09.725Z</time></trkpt><trkpt lat="43.911325" lon="8.0527517"><ele>184.25</ele><time>2026-04-11T08:52:11.725Z</time></trkpt><trkpt lat="43.9112167" lon="8.0528167"><ele>183.0</ele><time>2026-04-11T08:52:13.725Z</time></trkpt><trkpt lat="43.91112" lon="8.052895"><ele>183.0</ele><time>2026-04-11T08:52:15.725Z</time></trkpt><trkpt lat="43.911025" lon="8.05299"><ele>183.0</ele><time>2026-04-11T08:52:17.726Z</time></trkpt><trkpt lat="43.91093" lon="8.0530933"><ele>183.0</ele><time>2026-04-11T08:52:19.725Z</time></trkpt><trkpt lat="43.9108333" lon="8.0531883"><ele>183.0</ele><time>2026-04-11T08:52:21.725Z</time></trkpt><trkpt lat="43.91072" lon="8.0532467"><ele>185.0</ele><time>2026-04-11T08:52:23.725Z</time></trkpt><trkpt lat="43.9106083" lon="8.053265"><ele>187.0</ele><time>2026-04-11T08:52:25.725Z</time></trkpt><trkpt lat="43.9104933" lon="8.053235"><ele>189.0</ele><time>2026-04-11T08:52:27.725Z</time></trkpt><trkpt lat="43.91038" lon="8.05321"><ele>191.0</ele><time>2026-04-11T08:52:29.725Z</time></trkpt><trkpt lat="43.9102733" lon="8.0531967"><ele>191.0</ele><time>2026-04-11T08:52:31.725Z</time></trkpt><trkpt lat="43.9101667" lon="8.0532033"><ele>191.0</ele><time>2026-04-11T08:52:33.725Z</time></trkpt><trkpt lat="43.910065" lon="8.0532283"><ele>191.0</ele><time>2026-04-11T08:52:35.725Z</time></trkpt><trkpt lat="43.9099683" lon="8.0532967"><ele>191.0</ele><time>2026-04-11T08:52:37.725Z</time></trkpt><trkpt lat="43.9098633" lon="8.0533517"><ele>191.0</ele><time>2026-04-11T08:52:39.725Z</time></trkpt><trkpt lat="43.9097533" lon="8.0533833"><ele>189.0</ele><time>2026-04-11T08:52:41.725Z</time></trkpt><trkpt lat="43.9096333" lon="8.0534083"><ele>187.0</ele><time>2026-04-11T08:52:43.725Z</time></trkpt><trkpt lat="43.9095183" lon="8.053415"><ele>185.0</ele><time>2026-04-11T08:52:45.725Z</time></trkpt><trkpt lat="43.9094117" lon="8.053375"><ele>183.0</ele><time>2026-04-11T08:52:47.725Z</time></trkpt><trkpt lat="43.90931" lon="8.0533117"><ele>183.8</ele><time>2026-04-11T08:52:49.725Z</time></trkpt><trkpt lat="43.9092033" lon="8.0532633"><ele>184.60000000000002</ele><time>2026-04-11T08:52:51.725Z</time></trkpt><trkpt lat="43.9090933" lon="8.0532367"><ele>185.39999999999998</ele><time>2026-04-11T08:52:53.725Z</time></trkpt><trkpt lat="43.908985" lon="8.0532383"><ele>186.2</ele><time>2026-04-11T08:52:55.726Z</time></trkpt><trkpt lat="43.90888" lon="8.0532817"><ele>187.0</ele><time>2026-04-11T08:52:57.725Z</time></trkpt><trkpt lat="43.9087817" lon="8.0533333"><ele>187.0</ele><time>2026-04-11T08:52:59.725Z</time></trkpt><trkpt lat="43.9086983" lon="8.0534067"><ele>187.0</ele><time>2026-04-11T08:53:01.725Z</time></trkpt><trkpt lat="43.90864" lon="8.05353"><ele>187.0</ele><time>2026-04-11T08:53:03.725Z</time></trkpt><trkpt lat="43.9086067" lon="8.0536683"><ele>187.0</ele><time>2026-04-11T08:53:05.726Z</time></trkpt><trkpt lat="43.9085667" lon="8.0538033"><ele>187.0</ele><time>2026-04-11T08:53:07.725Z</time></trkpt><trkpt lat="43.90849" lon="8.05389"><ele>189.8</ele><time>2026-04-11T08:53:09.725Z</time></trkpt><trkpt lat="43.9084" lon="8.0539383"><ele>192.6</ele><time>2026-04-11T08:53:11.725Z</time></trkpt><trkpt lat="43.9083" lon="8.0539633"><ele>195.4</ele><time>2026-04-11T08:53:13.726Z</time></trkpt><trkpt lat="43.9082017" lon="8.0539883"><ele>198.20000000000002</ele><time>2026-04-11T08:53:15.725Z</time></trkpt><trkpt lat="43.9081067" lon="8.0540333"><ele>201.0</ele><time>2026-04-11T08:53:17.725Z</time></trkpt><trkpt lat="43.908015" lon="8.0540833"><ele>199.4</ele><time>2026-04-11T08:53:19.725Z</time></trkpt><trkpt lat="43.9079233" lon="8.0541233"><ele>197.8</ele><time>2026-04-11T08:53:21.725Z</time></trkpt><trkpt lat="43.90783" lon="8.0541667"><ele>196.20000000000002</ele><time>2026-04-11T08:53:23.725Z</time></trkpt><trkpt lat="43.907735" lon="8.0542217"><ele>194.60000000000002</ele><time>2026-04-11T08:53:25.726Z</time></trkpt><trkpt lat="43.9076467" lon="8.05429"><ele>193.0</ele><time>2026-04-11T08:53:27.725Z</time></trkpt><trkpt lat="43.9075633" lon="8.05438"><ele>193.0</ele><time>2026-04-11T08:53:29.724Z</time></trkpt><trkpt lat="43.9074783" lon="8.0544733"><ele>193.0</ele><time>2026-04-11T08:53:31.725Z</time></trkpt><trkpt lat="43.9073967" lon="8.0545667"><ele>193.0</ele><time>2026-04-11T08:53:33.724Z</time></trkpt><trkpt lat="43.9073017" lon="8.0546283"><ele>193.0</ele><time>2026-04-11T08:53:35.725Z</time></trkpt><trkpt lat="43.90719" lon="8.0546517"><ele>193.0</ele><time>2026-04-11T08:53:37.724Z</time></trkpt><trkpt lat="43.9070817" lon="8.0546567"><ele>193.0</ele><time>2026-04-11T08:53:39.724Z</time></trkpt><trkpt lat="43.9069683" lon="8.0546633"><ele>193.0</ele><time>2026-04-11T08:53:41.724Z</time></trkpt><trkpt lat="43.9068517" lon="8.05468"><ele>193.0</ele><time>2026-04-11T08:53:43.724Z</time></trkpt><trkpt lat="43.906735" lon="8.0546967"><ele>193.0</ele><time>2026-04-11T08:53:45.724Z</time></trkpt><trkpt lat="43.9066717" lon="8.0547083"><ele>193.0</ele><time>2026-04-11T08:53:46.724Z</time></trkpt><trkpt lat="43.9066067" lon="8.0547167"><ele>195.0</ele><time>2026-04-11T08:53:47.724Z</time></trkpt><trkpt lat="43.906485" lon="8.0547367"><ele>197.0</ele><time>2026-04-11T08:53:49.724Z</time></trkpt><trkpt lat="43.90638" lon="8.0547883"><ele>199.0</ele><time>2026-04-11T08:53:51.725Z</time></trkpt><trkpt lat="43.90629" lon="8.0549033"><ele>201.0</ele><time>2026-04-11T08:53:53.724Z</time></trkpt><trkpt lat="43.9062133" lon="8.0550333"><ele>196.5</ele><time>2026-04-11T08:53:55.724Z</time></trkpt><trkpt lat="43.9061517" lon="8.0551817"><ele>192.0</ele><time>2026-04-11T08:53:57.724Z</time></trkpt><trkpt lat="43.906115" lon="8.0553383"><ele>187.5</ele><time>2026-04-11T08:53:59.724Z</time></trkpt><trkpt lat="43.9061033" lon="8.0555"><ele>183.0</ele><time>2026-04-11T08:54:01.725Z</time></trkpt><trkpt lat="43.9061133" lon="8.05565"><ele>184.0</ele><time>2026-04-11T08:54:03.724Z</time></trkpt><trkpt lat="43.9060917" lon="8.055795"><ele>185.0</ele><time>2026-04-11T08:54:05.724Z</time></trkpt><trkpt lat="43.9060333" lon="8.055925"><ele>186.0</ele><time>2026-04-11T08:54:07.725Z</time></trkpt><trkpt lat="43.9059617" lon="8.0560433"><ele>187.0</ele><time>2026-04-11T08:54:09.724Z</time></trkpt><trkpt lat="43.905865" lon="8.0560967"><ele>188.0</ele><time>2026-04-11T08:54:11.724Z</time></trkpt><trkpt lat="43.9057617" lon="8.0560967"><ele>188.0</ele><time>2026-04-11T08:54:13.724Z</time></trkpt><trkpt lat="43.90566" lon="8.0560567"><ele>188.0</ele><time>2026-04-11T08:54:15.724Z</time></trkpt><trkpt lat="43.9055683" lon="8.0559833"><ele>188.0</ele><time>2026-04-11T08:54:17.724Z</time></trkpt><trkpt lat="43.9054783" lon="8.0559017"><ele>188.0</ele><time>2026-04-11T08:54:19.724Z</time></trkpt><trkpt lat="43.9053883" lon="8.0558133"><ele>188.0</ele><time>2026-04-11T08:54:21.724Z</time></trkpt><trkpt lat="43.9053033" lon="8.0557167"><ele>189.8</ele><time>2026-04-11T08:54:23.724Z</time></trkpt><trkpt lat="43.905225" lon="8.0556217"><ele>191.60000000000002</ele><time>2026-04-11T08:54:25.725Z</time></trkpt><trkpt lat="43.9051483" lon="8.055515"><ele>193.39999999999998</ele><time>2026-04-11T08:54:27.724Z</time></trkpt><trkpt lat="43.9050817" lon="8.0553933"><ele>195.2</ele><time>2026-04-11T08:54:29.725Z</time></trkpt><trkpt lat="43.90501" lon="8.0552867"><ele>197.0</ele><time>2026-04-11T08:54:31.724Z</time></trkpt><trkpt lat="43.9049267" lon="8.0551867"><ele>197.0</ele><time>2026-04-11T08:54:33.725Z</time></trkpt><trkpt lat="43.9048367" lon="8.055095"><ele>197.0</ele><time>2026-04-11T08:54:35.724Z</time></trkpt><trkpt lat="43.90473" lon="8.0550367"><ele>197.0</ele><time>2026-04-11T08:54:37.725Z</time></trkpt><trkpt lat="43.9046183" lon="8.055"><ele>197.0</ele><time>2026-04-11T08:54:39.724Z</time></trkpt><trkpt lat="43.9045133" lon="8.0549767"><ele>197.0</ele><time>2026-04-11T08:54:41.724Z</time></trkpt><trkpt lat="43.9044183" lon="8.0550083"><ele>197.0</ele><time>2026-04-11T08:54:43.724Z</time></trkpt><trkpt lat="43.9043217" lon="8.0550617"><ele>197.0</ele><time>2026-04-11T08:54:45.725Z</time></trkpt><trkpt lat="43.9042217" lon="8.055105"><ele>197.0</ele><time>2026-04-11T08:54:47.725Z</time></trkpt><trkpt lat="43.9041133" lon="8.05516"><ele>197.0</ele><time>2026-04-11T08:54:49.725Z</time></trkpt><trkpt lat="43.9040017" lon="8.0552217"><ele>197.0</ele><time>2026-04-11T08:54:51.724Z</time></trkpt><trkpt lat="43.9038867" lon="8.0552817"><ele>196.8</ele><time>2026-04-11T08:54:53.724Z</time></trkpt><trkpt lat="43.90378" lon="8.0553517"><ele>196.6</ele><time>2026-04-11T08:54:55.724Z</time></trkpt><trkpt lat="43.903695" lon="8.0554583"><ele>196.4</ele><time>2026-04-11T08:54:57.724Z</time></trkpt><trkpt lat="43.9036583" lon="8.05553"><ele>196.20000000000002</ele><time>2026-04-11T08:54:58.724Z</time></trkpt><trkpt lat="43.9035933" lon="8.0556617"><ele>196.0</ele><time>2026-04-11T08:55:00.724Z</time></trkpt><trkpt lat="43.90352" lon="8.0557817"><ele>196.20000000000002</ele><time>2026-04-11T08:55:02.725Z</time></trkpt><trkpt lat="43.9034317" lon="8.0558733"><ele>196.4</ele><time>2026-04-11T08:55:04.724Z</time></trkpt><trkpt lat="43.903335" lon="8.055935"><ele>196.6</ele><time>2026-04-11T08:55:06.724Z</time></trkpt><trkpt lat="43.9032367" lon="8.05597"><ele>196.8</ele><time>2026-04-11T08:55:08.724Z</time></trkpt><trkpt lat="43.9031317" lon="8.0559867"><ele>197.0</ele><time>2026-04-11T08:55:10.724Z</time></trkpt><trkpt lat="43.90303" lon="8.0559833"><ele>197.0</ele><time>2026-04-11T08:55:12.724Z</time></trkpt><trkpt lat="43.90292" lon="8.0559667"><ele>197.0</ele><time>2026-04-11T08:55:14.724Z</time></trkpt><trkpt lat="43.9028117" lon="8.0559533"><ele>197.0</ele><time>2026-04-11T08:55:16.724Z</time></trkpt><trkpt lat="43.902705" lon="8.0559433"><ele>197.0</ele><time>2026-04-11T08:55:18.724Z</time></trkpt><trkpt lat="43.9025983" lon="8.0559467"><ele>197.0</ele><time>2026-04-11T08:55:20.724Z</time></trkpt><trkpt lat="43.9025" lon="8.0559867"><ele>198.2</ele><time>2026-04-11T08:55:22.724Z</time></trkpt><trkpt lat="43.9024117" lon="8.05608"><ele>199.39999999999998</ele><time>2026-04-11T08:55:24.725Z</time></trkpt><trkpt lat="43.902335" lon="8.05619"><ele>200.60000000000002</ele><time>2026-04-11T08:55:26.724Z</time></trkpt><trkpt lat="43.9022683" lon="8.0563117"><ele>201.8</ele><time>2026-04-11T08:55:28.724Z</time></trkpt><trkpt lat="43.9021967" lon="8.0564217"><ele>203.0</ele><time>2026-04-11T08:55:30.724Z</time></trkpt><trkpt lat="43.9021483" lon="8.0564817"><ele>203.0</ele><time>2026-04-11T08:55:31.724Z</time></trkpt><trkpt lat="43.902095" lon="8.0565333"><ele>203.0</ele><time>2026-04-11T08:55:32.724Z</time></trkpt><trkpt lat="43.9020333" lon="8.0565683"><ele>203.0</ele><time>2026-04-11T08:55:33.724Z</time></trkpt><trkpt lat="43.90197" lon="8.0565967"><ele>203.0</ele><time>2026-04-11T08:55:34.724Z</time></trkpt><trkpt lat="43.901905" lon="8.0566117"><ele>203.0</ele><time>2026-04-11T08:55:35.724Z</time></trkpt><trkpt lat="43.9018383" lon="8.05661"><ele>203.0</ele><time>2026-04-11T08:55:36.724Z</time></trkpt><trkpt lat="43.90177" lon="8.0565983"><ele>203.0</ele><time>2026-04-11T08:55:37.724Z</time></trkpt><trkpt lat="43.9017017" lon="8.056575"><ele>205.2</ele><time>2026-04-11T08:55:38.724Z</time></trkpt><trkpt lat="43.9016333" lon="8.0565483"><ele>207.4</ele><time>2026-04-11T08:55:39.724Z</time></trkpt><trkpt lat="43.9015683" lon="8.056525"><ele>209.59999999999997</ele><time>2026-04-11T08:55:40.725Z</time></trkpt><trkpt lat="43.9014417" lon="8.056515"><ele>211.79999999999998</ele><time>2026-04-11T08:55:42.724Z</time></trkpt><trkpt lat="43.901325" lon="8.0565283"><ele>214.0</ele><time>2026-04-11T08:55:44.724Z</time></trkpt><trkpt lat="43.9012233" lon="8.056585"><ele>212.2</ele><time>2026-04-11T08:55:46.724Z</time></trkpt><trkpt lat="43.9011467" lon="8.05666"><ele>210.39999999999998</ele><time>2026-04-11T08:55:48.724Z</time></trkpt><trkpt lat="43.9010783" lon="8.0567483"><ele>208.6</ele><time>2026-04-11T08:55:50.724Z</time></trkpt><trkpt lat="43.9009983" lon="8.0568333"><ele>206.8</ele><time>2026-04-11T08:55:52.724Z</time></trkpt><trkpt lat="43.900905" lon="8.0569"><ele>205.0</ele><time>2026-04-11T08:55:54.724Z</time></trkpt><trkpt lat="43.9007983" lon="8.0569383"><ele>205.0</ele><time>2026-04-11T08:55:56.724Z</time></trkpt><trkpt lat="43.9006917" lon="8.0569767"><ele>205.0</ele><time>2026-04-11T08:55:58.724Z</time></trkpt><trkpt lat="43.90059" lon="8.0570233"><ele>205.0</ele><time>2026-04-11T08:56:00.725Z</time></trkpt><trkpt lat="43.90049" lon="8.0570833"><ele>205.0</ele><time>2026-04-11T08:56:02.724Z</time></trkpt><trkpt lat="43.900395" lon="8.057145"><ele>205.0</ele><time>2026-04-11T08:56:04.724Z</time></trkpt><trkpt lat="43.9002967" lon="8.0572183"><ele>205.0</ele><time>2026-04-11T08:56:06.724Z</time></trkpt><trkpt lat="43.900195" lon="8.0572933"><ele>205.0</ele><time>2026-04-11T08:56:08.724Z</time></trkpt><trkpt lat="43.9001" lon="8.057375"><ele>205.0</ele><time>2026-04-11T08:56:10.724Z</time></trkpt><trkpt lat="43.900035" lon="8.0574883"><ele>205.0</ele><time>2026-04-11T08:56:12.724Z</time></trkpt><trkpt lat="43.89999" lon="8.0575967"><ele>205.0</ele><time>2026-04-11T08:56:14.724Z</time></trkpt><trkpt lat="43.899945" lon="8.0577"><ele>203.66666666666666</ele><time>2026-04-11T08:56:17.724Z</time></trkpt><trkpt lat="43.8998533" lon="8.0577733"><ele>202.33333333333331</ele><time>2026-04-11T08:57:23.724Z</time></trkpt><trkpt lat="43.899825" lon="8.0578783"><ele>201.0</ele><time>2026-04-11T08:57:26.724Z</time></trkpt><trkpt lat="43.8998033" lon="8.0579733"><ele>199.66666666666669</ele><time>2026-04-11T08:57:28.724Z</time></trkpt><trkpt lat="43.8997833" lon="8.0580683"><ele>198.33333333333334</ele><time>2026-04-11T08:57:30.724Z</time></trkpt><trkpt lat="43.8997617" lon="8.0581533"><ele>197.0</ele><time>2026-04-11T08:57:32.724Z</time></trkpt><trkpt lat="43.8997717" lon="8.0582767"><ele>196.50000000000003</ele><time>2026-04-11T08:57:35.724Z</time></trkpt><trkpt lat="43.8998267" lon="8.0583617"><ele>196.0</ele><time>2026-04-11T08:57:38.724Z</time></trkpt><trkpt lat="43.899875" lon="8.0584317"><ele>195.5</ele><time>2026-04-11T08:57:41.724Z</time></trkpt><trkpt lat="43.8998967" lon="8.058515"><ele>195.0</ele><time>2026-04-11T08:57:43.724Z</time></trkpt><trkpt lat="43.899885" lon="8.058605"><ele>194.50000000000003</ele><time>2026-04-11T08:57:45.724Z</time></trkpt><trkpt lat="43.8998617" lon="8.05872"><ele>194.0</ele><time>2026-04-11T08:57:47.724Z</time></trkpt><trkpt lat="43.8998267" lon="8.0588233"><ele>194.00000000000003</ele><time>2026-04-11T08:57:49.725Z</time></trkpt><trkpt lat="43.8997867" lon="8.058925"><ele>194.0</ele><time>2026-04-11T08:57:51.724Z</time></trkpt><trkpt lat="43.89974" lon="8.0590283"><ele>194.0</ele><time>2026-04-11T08:57:53.724Z</time></trkpt><trkpt lat="43.8996917" lon="8.05912"><ele>194.0</ele><time>2026-04-11T08:57:55.724Z</time></trkpt><trkpt lat="43.899635" lon="8.0591967"><ele>194.00000000000003</ele><time>2026-04-11T08:57:57.724Z</time></trkpt><trkpt lat="43.899585" lon="8.059265"><ele>194.0</ele><time>2026-04-11T08:57:59.724Z</time></trkpt><trkpt lat="43.8995383" lon="8.0593317"><ele>194.0</ele><time>2026-04-11T08:58:01.724Z</time></trkpt><trkpt lat="43.8994733" lon="8.0594"><ele>194.0</ele><time>2026-04-11T08:58:04.724Z</time></trkpt><trkpt lat="43.8994333" lon="8.05947"><ele>194.0</ele><time>2026-04-11T08:58:09.724Z</time></trkpt><trkpt lat="43.8993783" lon="8.0595333"><ele>194.0</ele><time>2026-04-11T08:58:12.724Z</time></trkpt><trkpt lat="43.8993317" lon="8.059595"><ele>194.0</ele><time>2026-04-11T08:58:15.724Z</time></trkpt><trkpt lat="43.8992767" lon="8.0596717"><ele>194.0</ele><time>2026-04-11T08:58:19.725Z</time></trkpt><trkpt lat="43.8992283" lon="8.059755"><ele>194.0</ele><time>2026-04-11T08:58:23.724Z</time></trkpt><trkpt lat="43.8991767" lon="8.0598167"><ele>195.0</ele><time>2026-04-11T08:58:27.724Z</time></trkpt><trkpt lat="43.8991233" lon="8.059875"><ele>196.0</ele><time>2026-04-11T08:58:30.724Z</time></trkpt><trkpt lat="43.8990667" lon="8.0599383"><ele>197.0</ele><time>2026-04-11T08:58:33.724Z</time></trkpt><trkpt lat="43.899015" lon="8.0600267"><ele>198.0</ele><time>2026-04-11T08:58:37.724Z</time></trkpt><trkpt lat="43.89897" lon="8.0601233"><ele>199.0</ele><time>2026-04-11T08:58:41.724Z</time></trkpt><trkpt lat="43.8989467" lon="8.06021"><ele>200.0</ele><time>2026-04-11T08:58:44.725Z</time></trkpt><trkpt lat="43.8989217" lon="8.060305"><ele>201.0</ele><time>2026-04-11T08:58:47.724Z</time></trkpt><trkpt lat="43.8988933" lon="8.060395"><ele>201.57142857142856</ele><time>2026-04-11T08:58:50.724Z</time></trkpt><trkpt lat="43.8988867" lon="8.0604883"><ele>202.14285714285717</ele><time>2026-04-11T08:58:53.724Z</time></trkpt><trkpt lat="43.8988433" lon="8.060565"><ele>202.71428571428572</ele><time>2026-04-11T08:58:56.724Z</time></trkpt><trkpt lat="43.89877" lon="8.06057"><ele>203.28571428571428</ele><time>2026-04-11T08:58:59.724Z</time></trkpt><trkpt lat="43.8986933" lon="8.06055"><ele>203.85714285714283</ele><time>2026-04-11T08:59:02.724Z</time></trkpt><trkpt lat="43.8986133" lon="8.0605517"><ele>204.42857142857144</ele><time>2026-04-11T08:59:05.724Z</time></trkpt><trkpt lat="43.8985417" lon="8.0605483"><ele>205.0</ele><time>2026-04-11T08:59:08.724Z</time></trkpt><trkpt lat="43.8984733" lon="8.0605417"><ele>206.16666666666666</ele><time>2026-04-11T08:59:11.724Z</time></trkpt><trkpt lat="43.898405" lon="8.06052"><ele>207.33333333333331</ele><time>2026-04-11T08:59:14.724Z</time></trkpt><trkpt lat="43.898315" lon="8.06049"><ele>208.5</ele><time>2026-04-11T08:59:17.724Z</time></trkpt><trkpt lat="43.8982517" lon="8.0604783"><ele>209.66666666666669</ele><time>2026-04-11T08:59:19.724Z</time></trkpt><trkpt lat="43.8981867" lon="8.0604667"><ele>210.83333333333334</ele><time>2026-04-11T08:59:21.724Z</time></trkpt><trkpt lat="43.8981017" lon="8.0604483"><ele>212.0</ele><time>2026-04-11T08:59:24.724Z</time></trkpt><trkpt lat="43.898015" lon="8.0604267"><ele>212.00000000000003</ele><time>2026-04-11T08:59:27.724Z</time></trkpt><trkpt lat="43.8979333" lon="8.0604117"><ele>212.0</ele><time>2026-04-11T08:59:30.724Z</time></trkpt><trkpt lat="43.8978517" lon="8.060375"><ele>212.0</ele><time>2026-04-11T08:59:33.724Z</time></trkpt><trkpt lat="43.8977717" lon="8.06036"><ele>212.0</ele><time>2026-04-11T08:59:36.724Z</time></trkpt><trkpt lat="43.8976983" lon="8.0603467"><ele>212.00000000000003</ele><time>2026-04-11T08:59:39.724Z</time></trkpt><trkpt lat="43.8976217" lon="8.0603383"><ele>212.0</ele><time>2026-04-11T08:59:42.725Z</time></trkpt><trkpt lat="43.897545" lon="8.0602867"><ele>213.2857142857143</ele><time>2026-04-11T08:59:46.724Z</time></trkpt><trkpt lat="43.897485" lon="8.0602583"><ele>214.57142857142856</ele><time>2026-04-11T08:59:49.724Z</time></trkpt><trkpt lat="43.8974167" lon="8.0603"><ele>215.85714285714286</ele><time>2026-04-11T08:59:53.724Z</time></trkpt><trkpt lat="43.8973767" lon="8.0603917"><ele>217.14285714285717</ele><time>2026-04-11T08:59:57.724Z</time></trkpt><trkpt lat="43.8973483" lon="8.06049"><ele>218.42857142857144</ele><time>2026-04-11T09:00:00.724Z</time></trkpt><trkpt lat="43.897335" lon="8.06058"><ele>219.71428571428572</ele><time>2026-04-11T09:00:03.724Z</time></trkpt><trkpt lat="43.8973" lon="8.0606817"><ele>221.0</ele><time>2026-04-11T09:00:06.724Z</time></trkpt><trkpt lat="43.8972567" lon="8.0607883"><ele>221.71428571428572</ele><time>2026-04-11T09:00:09.724Z</time></trkpt><trkpt lat="43.8972167" lon="8.0608583"><ele>222.42857142857144</ele><time>2026-04-11T09:00:11.724Z</time></trkpt><trkpt lat="43.8971817" lon="8.060935"><ele>223.14285714285717</ele><time>2026-04-11T09:00:13.724Z</time></trkpt><trkpt lat="43.8971267" lon="8.06104"><ele>223.85714285714286</ele><time>2026-04-11T09:00:16.724Z</time></trkpt><trkpt lat="43.89709" lon="8.0611117"><ele>224.57142857142856</ele><time>2026-04-11T09:00:18.724Z</time></trkpt><trkpt lat="43.8970533" lon="8.0611917"><ele>225.2857142857143</ele><time>2026-04-11T09:00:20.724Z</time></trkpt><trkpt lat="43.89701" lon="8.061275"><ele>226.0</ele><time>2026-04-11T09:00:22.724Z</time></trkpt><trkpt lat="43.89693" lon="8.0613183"><ele>226.0</ele><time>2026-04-11T09:00:24.724Z</time></trkpt><trkpt lat="43.8968517" lon="8.061325"><ele>226.00000000000003</ele><time>2026-04-11T09:00:26.724Z</time></trkpt><trkpt lat="43.8967467" lon="8.061305"><ele>226.00000000000003</ele><time>2026-04-11T09:00:28.724Z</time></trkpt><trkpt lat="43.89665" lon="8.0612533"><ele>226.0</ele><time>2026-04-11T09:00:30.724Z</time></trkpt><trkpt lat="43.896565" lon="8.0612683"><ele>226.0</ele><time>2026-04-11T09:00:32.724Z</time></trkpt><trkpt lat="43.896505" lon="8.0614067"><ele>225.66666666666666</ele><time>2026-04-11T09:00:34.724Z</time></trkpt><trkpt lat="43.896465" lon="8.0614983"><ele>225.33333333333331</ele><time>2026-04-11T09:00:35.724Z</time></trkpt><trkpt lat="43.89643" lon="8.061595"><ele>225.0</ele><time>2026-04-11T09:00:36.724Z</time></trkpt><trkpt lat="43.8964" lon="8.0616917"><ele>224.66666666666669</ele><time>2026-04-11T09:00:37.724Z</time></trkpt><trkpt lat="43.8963767" lon="8.0617817"><ele>224.33333333333334</ele><time>2026-04-11T09:00:38.724Z</time></trkpt><trkpt lat="43.8963433" lon="8.061875"><ele>224.0</ele><time>2026-04-11T09:00:39.724Z</time></trkpt><trkpt lat="43.896305" lon="8.061965"><ele>224.00000000000003</ele><time>2026-04-11T09:00:40.725Z</time></trkpt><trkpt lat="43.89626" lon="8.06205"><ele>224.0</ele><time>2026-04-11T09:00:41.724Z</time></trkpt><trkpt lat="43.8962217" lon="8.0621317"><ele>224.0</ele><time>2026-04-11T09:00:42.724Z</time></trkpt><trkpt lat="43.8961817" lon="8.062205"><ele>224.0</ele><time>2026-04-11T09:00:43.724Z</time></trkpt><trkpt lat="43.8961167" lon="8.0623283"><ele>224.00000000000003</ele><time>2026-04-11T09:00:45.724Z</time></trkpt><trkpt lat="43.89606" lon="8.0624383"><ele>224.0</ele><time>2026-04-11T09:00:47.724Z</time></trkpt><trkpt lat="43.896015" lon="8.06255"><ele>223.39999999999998</ele><time>2026-04-11T09:00:49.724Z</time></trkpt><trkpt lat="43.8959633" lon="8.0626767"><ele>222.79999999999998</ele><time>2026-04-11T09:00:51.725Z</time></trkpt><trkpt lat="43.8958983" lon="8.0628017"><ele>222.20000000000002</ele><time>2026-04-11T09:00:53.724Z</time></trkpt><trkpt lat="43.8958333" lon="8.0629317"><ele>221.60000000000002</ele><time>2026-04-11T09:00:55.724Z</time></trkpt><trkpt lat="43.8957817" lon="8.0630633"><ele>221.0</ele><time>2026-04-11T09:00:57.724Z</time></trkpt><trkpt lat="43.895735" lon="8.0631933"><ele>221.66666666666669</ele><time>2026-04-11T09:00:59.724Z</time></trkpt><trkpt lat="43.89569" lon="8.0633167"><ele>222.33333333333334</ele><time>2026-04-11T09:01:01.724Z</time></trkpt><trkpt lat="43.89565" lon="8.0634267"><ele>223.0</ele><time>2026-04-11T09:01:03.724Z</time></trkpt><trkpt lat="43.8956233" lon="8.0635417"><ele>223.66666666666669</ele><time>2026-04-11T09:01:05.724Z</time></trkpt><trkpt lat="43.89561" lon="8.0636517"><ele>224.33333333333334</ele><time>2026-04-11T09:01:07.725Z</time></trkpt><trkpt lat="43.8955967" lon="8.0637467"><ele>225.0</ele><time>2026-04-11T09:01:09.724Z</time></trkpt><trkpt lat="43.8955783" lon="8.0638633"><ele>225.0</ele><time>2026-04-11T09:01:12.724Z</time></trkpt><trkpt lat="43.89558" lon="8.06399"><ele>225.0</ele><time>2026-04-11T09:01:15.724Z</time></trkpt><trkpt lat="43.89555" lon="8.0640783"><ele>225.0</ele><time>2026-04-11T09:01:17.725Z</time></trkpt><trkpt lat="43.8955217" lon="8.06416"><ele>232.0</ele><time>2026-04-11T09:01:19.724Z</time></trkpt><trkpt lat="43.8954883" lon="8.0642783"><ele>232.0</ele><time>2026-04-11T09:01:22.724Z</time></trkpt></trkseg></trk></gpx>